﻿<?xml version="1.0" encoding="utf-8"?><gpx creator="Garmin Desktop App" version="1.1" xsi:schemaLocation="http://www.topografix.com/GPX/1/1 http://www.topografix.com/GPX/1/1/gpx.xsd http://www.garmin.com/xmlschemas/WaypointExtension/v1 http://www8.garmin.com/xmlschemas/WaypointExtensionv1.xsd http://www.garmin.com/xmlschemas/TrackPointExtension/v1 http://www.garmin.com/xmlschemas/TrackPointExtensionv1.xsd http://www.garmin.com/xmlschemas/GpxExtensions/v3 http://www8.garmin.com/xmlschemas/GpxExtensionsv3.xsd http://www.garmin.com/xmlschemas/ActivityExtension/v1 http://www8.garmin.com/xmlschemas/ActivityExtensionv1.xsd http://www.garmin.com/xmlschemas/AdventuresExtensions/v1 http://www8.garmin.com/xmlschemas/AdventuresExtensionv1.xsd http://www.garmin.com/xmlschemas/PressureExtension/v1 http://www.garmin.com/xmlschemas/PressureExtensionv1.xsd http://www.garmin.com/xmlschemas/TripExtensions/v1 http://www.garmin.com/xmlschemas/TripExtensionsv1.xsd http://www.garmin.com/xmlschemas/TripMetaDataExtensions/v1 http://www.garmin.com/xmlschemas/TripMetaDataExtensionsv1.xsd http://www.garmin.com/xmlschemas/ViaPointTransportationModeExtensions/v1 http://www.garmin.com/xmlschemas/ViaPointTransportationModeExtensionsv1.xsd http://www.garmin.com/xmlschemas/CreationTimeExtension/v1 http://www.garmin.com/xmlschemas/CreationTimeExtensionsv1.xsd http://www.garmin.com/xmlschemas/AccelerationExtension/v1 http://www.garmin.com/xmlschemas/AccelerationExtensionv1.xsd http://www.garmin.com/xmlschemas/PowerExtension/v1 http://www.garmin.com/xmlschemas/PowerExtensionv1.xsd http://www.garmin.com/xmlschemas/VideoExtension/v1 http://www.garmin.com/xmlschemas/VideoExtensionv1.xsd" xmlns="http://www.topografix.com/GPX/1/1" xmlns:xsi="http://www.w3.org/2001/XMLSchema-instance" xmlns:wptx1="http://www.garmin.com/xmlschemas/WaypointExtension/v1" xmlns:gpxtrx="http://www.garmin.com/xmlschemas/GpxExtensions/v3" xmlns:gpxtpx="http://www.garmin.com/xmlschemas/TrackPointExtension/v1" xmlns:gpxx="http://www.garmin.com/xmlschemas/GpxExtensions/v3" xmlns:trp="http://www.garmin.com/xmlschemas/TripExtensions/v1" xmlns:adv="http://www.garmin.com/xmlschemas/AdventuresExtensions/v1" xmlns:prs="http://www.garmin.com/xmlschemas/PressureExtension/v1" xmlns:tmd="http://www.garmin.com/xmlschemas/TripMetaDataExtensions/v1" xmlns:vptm="http://www.garmin.com/xmlschemas/ViaPointTransportationModeExtensions/v1" xmlns:ctx="http://www.garmin.com/xmlschemas/CreationTimeExtension/v1" xmlns:gpxacc="http://www.garmin.com/xmlschemas/AccelerationExtension/v1" xmlns:gpxpx="http://www.garmin.com/xmlschemas/PowerExtension/v1" xmlns:vidx1="http://www.garmin.com/xmlschemas/VideoExtension/v1">

  <metadata>
    <link href="http://www.garmin.com">
      <text>Garmin International</text>
    </link>
    <time>2022-07-17T05:58:17Z</time>
    <bounds maxlat="47.147469995543361" maxlon="-0.143259968608618" minlat="47.13203220628202" minlon="-0.165160037577152" />
  </metadata>

  <trk>
    <name>Blog-Montreuil vigne st. Catherine du 13/07/2022</name>
    <extensions>
      <gpxx:TrackExtension>
        <gpxx:DisplayColor>DarkBlue</gpxx:DisplayColor>
      </gpxx:TrackExtension>
    </extensions>
    <trkseg>
      <trkpt lat="47.132109990343451" lon="-0.158670013770461">
        <ele>15</ele>
        <time>2022-07-13T08:23:46Z</time>
      </trkpt>
      <trkpt lat="47.132160030305386" lon="-0.158689962700009">
        <ele>17</ele>
        <time>2022-07-13T08:23:47Z</time>
      </trkpt>
      <trkpt lat="47.132219960913062" lon="-0.158689962700009">
        <ele>18</ele>
        <time>2022-07-13T08:23:48Z</time>
      </trkpt>
      <trkpt lat="47.132260026410222" lon="-0.158670013770461">
        <ele>19</ele>
        <time>2022-07-13T08:23:50Z</time>
      </trkpt>
      <trkpt lat="47.13230000808835" lon="-0.158649981021881">
        <ele>20</ele>
        <time>2022-07-13T08:23:51Z</time>
      </trkpt>
      <trkpt lat="47.132330015301704" lon="-0.158619973808527">
        <ele>21</ele>
        <time>2022-07-13T08:23:54Z</time>
      </trkpt>
      <trkpt lat="47.132349964231253" lon="-0.158589966595173">
        <ele>21</ele>
        <time>2022-07-13T08:23:57Z</time>
      </trkpt>
      <trkpt lat="47.132379971444607" lon="-0.158570017665625">
        <ele>22</ele>
        <time>2022-07-13T08:23:59Z</time>
      </trkpt>
      <trkpt lat="47.132400004193187" lon="-0.158530035987496">
        <ele>24</ele>
        <time>2022-07-13T08:24:02Z</time>
      </trkpt>
      <trkpt lat="47.132409978657961" lon="-0.158489970490336">
        <ele>25</ele>
        <time>2022-07-13T08:24:05Z</time>
      </trkpt>
      <trkpt lat="47.132430011406541" lon="-0.158449988812208">
        <ele>23</ele>
        <time>2022-07-13T08:24:08Z</time>
      </trkpt>
      <trkpt lat="47.132449960336089" lon="-0.15841000713408">
        <ele>22</ele>
        <time>2022-07-13T08:24:11Z</time>
      </trkpt>
      <trkpt lat="47.132469993084669" lon="-0.158370025455952">
        <ele>22</ele>
        <time>2022-07-13T08:24:13Z</time>
      </trkpt>
      <trkpt lat="47.132490025833249" lon="-0.158340018242598">
        <ele>22</ele>
        <time>2022-07-13T08:24:15Z</time>
      </trkpt>
      <trkpt lat="47.132520033046603" lon="-0.158300036564469">
        <ele>23</ele>
        <time>2022-07-13T08:24:19Z</time>
      </trkpt>
      <trkpt lat="47.132550040259957" lon="-0.158259971067309">
        <ele>23</ele>
        <time>2022-07-13T08:24:22Z</time>
      </trkpt>
      <trkpt lat="47.132569989189506" lon="-0.158219989389181">
        <ele>24</ele>
        <time>2022-07-13T08:24:25Z</time>
      </trkpt>
      <trkpt lat="47.132590021938086" lon="-0.158180007711053">
        <ele>24</ele>
        <time>2022-07-13T08:24:27Z</time>
      </trkpt>
      <trkpt lat="47.132609970867634" lon="-0.158150000497699">
        <ele>25</ele>
        <time>2022-07-13T08:24:29Z</time>
      </trkpt>
      <trkpt lat="47.132630003616214" lon="-0.158110018819571">
        <ele>25</ele>
        <time>2022-07-13T08:24:31Z</time>
      </trkpt>
      <trkpt lat="47.132639978080988" lon="-0.158070037141442">
        <ele>25</ele>
        <time>2022-07-13T08:24:33Z</time>
      </trkpt>
      <trkpt lat="47.132650036364794" lon="-0.158029971644282">
        <ele>26</ele>
        <time>2022-07-13T08:24:35Z</time>
      </trkpt>
      <trkpt lat="47.132669985294342" lon="-0.15798001550138">
        <ele>26</ele>
        <time>2022-07-13T08:24:37Z</time>
      </trkpt>
      <trkpt lat="47.132699992507696" lon="-0.157940033823252">
        <ele>27</ele>
        <time>2022-07-13T08:24:39Z</time>
      </trkpt>
      <trkpt lat="47.132720025256276" lon="-0.157899968326092">
        <ele>27</ele>
        <time>2022-07-13T08:24:41Z</time>
      </trkpt>
      <trkpt lat="47.132739974185824" lon="-0.157869961112738">
        <ele>27</ele>
        <time>2022-07-13T08:24:43Z</time>
      </trkpt>
      <trkpt lat="47.132760006934404" lon="-0.157829979434609">
        <ele>28</ele>
        <time>2022-07-13T08:24:45Z</time>
      </trkpt>
      <trkpt lat="47.132760006934404" lon="-0.157789997756481">
        <ele>28</ele>
        <time>2022-07-13T08:24:49Z</time>
      </trkpt>
      <trkpt lat="47.132769981399179" lon="-0.157759990543127">
        <ele>27</ele>
        <time>2022-07-13T08:24:51Z</time>
      </trkpt>
      <trkpt lat="47.132780039682984" lon="-0.157720008864999">
        <ele>27</ele>
        <time>2022-07-13T08:24:53Z</time>
      </trkpt>
      <trkpt lat="47.132790014147758" lon="-0.157669968903065">
        <ele>28</ele>
        <time>2022-07-13T08:24:55Z</time>
      </trkpt>
      <trkpt lat="47.132809963077307" lon="-0.157620012760162">
        <ele>30</ele>
        <time>2022-07-13T08:24:57Z</time>
      </trkpt>
      <trkpt lat="47.132829995825887" lon="-0.157569972798228">
        <ele>32</ele>
        <time>2022-07-13T08:24:59Z</time>
      </trkpt>
      <trkpt lat="47.132850028574467" lon="-0.15750995837152">
        <ele>34</ele>
        <time>2022-07-13T08:25:01Z</time>
      </trkpt>
      <trkpt lat="47.132869977504015" lon="-0.157450027763844">
        <ele>34</ele>
        <time>2022-07-13T08:25:03Z</time>
      </trkpt>
      <trkpt lat="47.132890010252595" lon="-0.157380038872361">
        <ele>34</ele>
        <time>2022-07-13T08:25:05Z</time>
      </trkpt>
      <trkpt lat="47.132899984717369" lon="-0.157309966161847">
        <ele>34</ele>
        <time>2022-07-13T08:25:07Z</time>
      </trkpt>
      <trkpt lat="47.132920017465949" lon="-0.157250035554171">
        <ele>34</ele>
        <time>2022-07-13T08:25:09Z</time>
      </trkpt>
      <trkpt lat="47.132929991930723" lon="-0.157190021127462">
        <ele>34</ele>
        <time>2022-07-13T08:25:11Z</time>
      </trkpt>
      <trkpt lat="47.132950024679303" lon="-0.157130006700754">
        <ele>34</ele>
        <time>2022-07-13T08:25:13Z</time>
      </trkpt>
      <trkpt lat="47.132959999144077" lon="-0.157069992274046">
        <ele>33</ele>
        <time>2022-07-13T08:25:15Z</time>
      </trkpt>
      <trkpt lat="47.132980031892657" lon="-0.157020036131144">
        <ele>33</ele>
        <time>2022-07-13T08:25:17Z</time>
      </trkpt>
      <trkpt lat="47.132990006357431" lon="-0.156960021704435">
        <ele>33</ele>
        <time>2022-07-13T08:25:19Z</time>
      </trkpt>
      <trkpt lat="47.132999980822206" lon="-0.156900007277727">
        <ele>33</ele>
        <time>2022-07-13T08:25:21Z</time>
      </trkpt>
      <trkpt lat="47.132990006357431" lon="-0.156839992851019">
        <ele>33</ele>
        <time>2022-07-13T08:25:23Z</time>
      </trkpt>
      <trkpt lat="47.132990006357431" lon="-0.156770003959537">
        <ele>33</ele>
        <time>2022-07-13T08:25:25Z</time>
      </trkpt>
      <trkpt lat="47.132999980822206" lon="-0.156700015068054">
        <ele>33</ele>
        <time>2022-07-13T08:25:27Z</time>
      </trkpt>
      <trkpt lat="47.133010039106011" lon="-0.156640000641346">
        <ele>33</ele>
        <time>2022-07-13T08:25:29Z</time>
      </trkpt>
      <trkpt lat="47.13302998803556" lon="-0.156570011749864">
        <ele>32</ele>
        <time>2022-07-13T08:25:31Z</time>
      </trkpt>
      <trkpt lat="47.13305002078414" lon="-0.156509997323155">
        <ele>33</ele>
        <time>2022-07-13T08:25:33Z</time>
      </trkpt>
      <trkpt lat="47.133069969713688" lon="-0.156460041180253">
        <ele>33</ele>
        <time>2022-07-13T08:25:35Z</time>
      </trkpt>
      <trkpt lat="47.133090002462268" lon="-0.156400026753545">
        <ele>34</ele>
        <time>2022-07-13T08:25:37Z</time>
      </trkpt>
      <trkpt lat="47.133110035210848" lon="-0.156349986791611">
        <ele>34</ele>
        <time>2022-07-13T08:25:39Z</time>
      </trkpt>
      <trkpt lat="47.133129984140396" lon="-0.156289972364903">
        <ele>35</ele>
        <time>2022-07-13T08:25:41Z</time>
      </trkpt>
      <trkpt lat="47.133150016888976" lon="-0.156230041757226">
        <ele>35</ele>
        <time>2022-07-13T08:25:43Z</time>
      </trkpt>
      <trkpt lat="47.133169965818524" lon="-0.156170027330518">
        <ele>36</ele>
        <time>2022-07-13T08:25:45Z</time>
      </trkpt>
      <trkpt lat="47.133189998567104" lon="-0.15611001290381">
        <ele>36</ele>
        <time>2022-07-13T08:25:47Z</time>
      </trkpt>
      <trkpt lat="47.133210031315684" lon="-0.156059972941875">
        <ele>35</ele>
        <time>2022-07-13T08:25:49Z</time>
      </trkpt>
      <trkpt lat="47.133240038529038" lon="-0.156040024012327">
        <ele>34</ele>
        <time>2022-07-13T08:25:51Z</time>
      </trkpt>
      <trkpt lat="47.133269961923361" lon="-0.156010016798973">
        <ele>34</ele>
        <time>2022-07-13T08:25:53Z</time>
      </trkpt>
      <trkpt lat="47.133310027420521" lon="-0.155999958515167">
        <ele>33</ele>
        <time>2022-07-13T08:25:55Z</time>
      </trkpt>
      <trkpt lat="47.133359983563423" lon="-0.155999958515167">
        <ele>33</ele>
        <time>2022-07-13T08:25:57Z</time>
      </trkpt>
      <trkpt lat="47.133410023525357" lon="-0.156019991263747">
        <ele>33</ele>
        <time>2022-07-13T08:25:59Z</time>
      </trkpt>
      <trkpt lat="47.133440030738711" lon="-0.156049998477101">
        <ele>33</ele>
        <time>2022-07-13T08:26:01Z</time>
      </trkpt>
      <trkpt lat="47.133470037952065" lon="-0.156070031225681">
        <ele>32</ele>
        <time>2022-07-13T08:26:03Z</time>
      </trkpt>
      <trkpt lat="47.133489986881614" lon="-0.156059972941875">
        <ele>29</ele>
        <time>2022-07-13T08:26:14Z</time>
      </trkpt>
      <trkpt lat="47.133510019630194" lon="-0.156029965728521">
        <ele>29</ele>
        <time>2022-07-13T08:26:18Z</time>
      </trkpt>
      <trkpt lat="47.133529968559742" lon="-0.155989984050393">
        <ele>30</ele>
        <time>2022-07-13T08:26:20Z</time>
      </trkpt>
      <trkpt lat="47.133550001308322" lon="-0.155950002372265">
        <ele>30</ele>
        <time>2022-07-13T08:26:22Z</time>
      </trkpt>
      <trkpt lat="47.133570034056902" lon="-0.155910020694137">
        <ele>30</ele>
        <time>2022-07-13T08:26:24Z</time>
      </trkpt>
      <trkpt lat="47.13358998298645" lon="-0.155859980732203">
        <ele>30</ele>
        <time>2022-07-13T08:26:26Z</time>
      </trkpt>
      <trkpt lat="47.13361001573503" lon="-0.155819999054074">
        <ele>30</ele>
        <time>2022-07-13T08:26:28Z</time>
      </trkpt>
      <trkpt lat="47.133619990199804" lon="-0.155780017375946">
        <ele>30</ele>
        <time>2022-07-13T08:26:30Z</time>
      </trkpt>
      <trkpt lat="47.133640022948384" lon="-0.155720002949238">
        <ele>30</ele>
        <time>2022-07-13T08:26:32Z</time>
      </trkpt>
      <trkpt lat="47.133659971877933" lon="-0.155650014057755">
        <ele>30</ele>
        <time>2022-07-13T08:26:34Z</time>
      </trkpt>
      <trkpt lat="47.133680004626513" lon="-0.155599974095821">
        <ele>31</ele>
        <time>2022-07-13T08:26:36Z</time>
      </trkpt>
      <trkpt lat="47.133689979091287" lon="-0.155550017952919">
        <ele>31</ele>
        <time>2022-07-13T08:26:38Z</time>
      </trkpt>
      <trkpt lat="47.133710011839867" lon="-0.155499977990985">
        <ele>31</ele>
        <time>2022-07-13T08:26:40Z</time>
      </trkpt>
      <trkpt lat="47.133729960769415" lon="-0.155459996312857">
        <ele>31</ele>
        <time>2022-07-13T08:26:41Z</time>
      </trkpt>
      <trkpt lat="47.133749993517995" lon="-0.155399981886148">
        <ele>31</ele>
        <time>2022-07-13T08:26:43Z</time>
      </trkpt>
      <trkpt lat="47.133770026266575" lon="-0.15533996745944">
        <ele>31</ele>
        <time>2022-07-13T08:26:45Z</time>
      </trkpt>
      <trkpt lat="47.133789975196123" lon="-0.155290011316538">
        <ele>31</ele>
        <time>2022-07-13T08:26:47Z</time>
      </trkpt>
      <trkpt lat="47.133819982409477" lon="-0.155239971354604">
        <ele>31</ele>
        <time>2022-07-13T08:26:49Z</time>
      </trkpt>
      <trkpt lat="47.133840015158057" lon="-0.155180040746927">
        <ele>31</ele>
        <time>2022-07-13T08:26:51Z</time>
      </trkpt>
      <trkpt lat="47.133859964087605" lon="-0.155130000784993">
        <ele>31</ele>
        <time>2022-07-13T08:26:53Z</time>
      </trkpt>
      <trkpt lat="47.133879996836185" lon="-0.155079960823059">
        <ele>32</ele>
        <time>2022-07-13T08:26:55Z</time>
      </trkpt>
      <trkpt lat="47.13391000404954" lon="-0.155020030215383">
        <ele>32</ele>
        <time>2022-07-13T08:26:57Z</time>
      </trkpt>
      <trkpt lat="47.13393003679812" lon="-0.154960015788674">
        <ele>31</ele>
        <time>2022-07-13T08:26:59Z</time>
      </trkpt>
      <trkpt lat="47.133959960192442" lon="-0.154900001361966">
        <ele>31</ele>
        <time>2022-07-13T08:27:01Z</time>
      </trkpt>
      <trkpt lat="47.133989967405796" lon="-0.154860019683838">
        <ele>31</ele>
        <time>2022-07-13T08:27:03Z</time>
      </trkpt>
      <trkpt lat="47.134010000154376" lon="-0.15480000525713">
        <ele>32</ele>
        <time>2022-07-13T08:27:05Z</time>
      </trkpt>
      <trkpt lat="47.13401997461915" lon="-0.154749965295196">
        <ele>32</ele>
        <time>2022-07-13T08:27:07Z</time>
      </trkpt>
      <trkpt lat="47.134030032902956" lon="-0.154690034687519">
        <ele>31</ele>
        <time>2022-07-13T08:27:09Z</time>
      </trkpt>
      <trkpt lat="47.13404000736773" lon="-0.154639994725585">
        <ele>31</ele>
        <time>2022-07-13T08:27:11Z</time>
      </trkpt>
      <trkpt lat="47.134030032902956" lon="-0.154579980298877">
        <ele>31</ele>
        <time>2022-07-13T08:27:13Z</time>
      </trkpt>
      <trkpt lat="47.134030032902956" lon="-0.154530024155974">
        <ele>30</ele>
        <time>2022-07-13T08:27:15Z</time>
      </trkpt>
      <trkpt lat="47.13404000736773" lon="-0.154539998620749">
        <ele>30</ele>
        <time>2022-07-13T08:27:17Z</time>
      </trkpt>
      <trkpt lat="47.13404000736773" lon="-0.154560031369329">
        <ele>28</ele>
        <time>2022-07-13T08:27:22Z</time>
      </trkpt>
      <trkpt lat="47.13404000736773" lon="-0.154549973085523">
        <ele>28</ele>
        <time>2022-07-13T08:27:37Z</time>
      </trkpt>
      <trkpt lat="47.134049981832504" lon="-0.154509991407394">
        <ele>28</ele>
        <time>2022-07-13T08:27:42Z</time>
      </trkpt>
      <trkpt lat="47.13406004011631" lon="-0.154470009729266">
        <ele>28</ele>
        <time>2022-07-13T08:27:44Z</time>
      </trkpt>
      <trkpt lat="47.134070014581084" lon="-0.154430028051138">
        <ele>28</ele>
        <time>2022-07-13T08:27:46Z</time>
      </trkpt>
      <trkpt lat="47.134089963510633" lon="-0.154379988089204">
        <ele>28</ele>
        <time>2022-07-13T08:27:58Z</time>
      </trkpt>
      <trkpt lat="47.134100021794438" lon="-0.154330031946301">
        <ele>28</ele>
        <time>2022-07-13T08:28:00Z</time>
      </trkpt>
      <trkpt lat="47.134100021794438" lon="-0.154279991984367">
        <ele>29</ele>
        <time>2022-07-13T08:28:02Z</time>
      </trkpt>
      <trkpt lat="47.134109996259212" lon="-0.154230035841465">
        <ele>29</ele>
        <time>2022-07-13T08:28:04Z</time>
      </trkpt>
      <trkpt lat="47.134119970723987" lon="-0.154179995879531">
        <ele>29</ele>
        <time>2022-07-13T08:28:06Z</time>
      </trkpt>
      <trkpt lat="47.134130029007792" lon="-0.154140014201403">
        <ele>29</ele>
        <time>2022-07-13T08:28:08Z</time>
      </trkpt>
      <trkpt lat="47.134149977937341" lon="-0.154089974239469">
        <ele>29</ele>
        <time>2022-07-13T08:28:11Z</time>
      </trkpt>
      <trkpt lat="47.134170010685921" lon="-0.15404999256134">
        <ele>29</ele>
        <time>2022-07-13T08:28:13Z</time>
      </trkpt>
      <trkpt lat="47.134189959615469" lon="-0.154019985347986">
        <ele>29</ele>
        <time>2022-07-13T08:28:15Z</time>
      </trkpt>
      <trkpt lat="47.134219966828823" lon="-0.153989978134632">
        <ele>29</ele>
        <time>2022-07-13T08:28:18Z</time>
      </trkpt>
      <trkpt lat="47.134239999577403" lon="-0.153949996456504">
        <ele>29</ele>
        <time>2022-07-13T08:28:20Z</time>
      </trkpt>
      <trkpt lat="47.134260032325983" lon="-0.153910014778376">
        <ele>29</ele>
        <time>2022-07-13T08:28:22Z</time>
      </trkpt>
      <trkpt lat="47.134290039539337" lon="-0.153880007565022">
        <ele>28</ele>
        <time>2022-07-13T08:28:25Z</time>
      </trkpt>
      <trkpt lat="47.134309988468885" lon="-0.153859974816442">
        <ele>28</ele>
        <time>2022-07-13T08:28:27Z</time>
      </trkpt>
      <trkpt lat="47.134349970147014" lon="-0.153829967603087">
        <ele>28</ele>
        <time>2022-07-13T08:28:29Z</time>
      </trkpt>
      <trkpt lat="47.134379977360368" lon="-0.153810018673539">
        <ele>28</ele>
        <time>2022-07-13T08:28:31Z</time>
      </trkpt>
      <trkpt lat="47.134409984573722" lon="-0.153789985924959">
        <ele>28</ele>
        <time>2022-07-13T08:28:34Z</time>
      </trkpt>
      <trkpt lat="47.134439991787076" lon="-0.153770036995411">
        <ele>29</ele>
        <time>2022-07-13T08:28:36Z</time>
      </trkpt>
      <trkpt lat="47.134479973465204" lon="-0.153740029782057">
        <ele>29</ele>
        <time>2022-07-13T08:28:39Z</time>
      </trkpt>
      <trkpt lat="47.134509980678558" lon="-0.153719997033477">
        <ele>30</ele>
        <time>2022-07-13T08:28:41Z</time>
      </trkpt>
      <trkpt lat="47.134539987891912" lon="-0.153710022568703">
        <ele>30</ele>
        <time>2022-07-13T08:28:43Z</time>
      </trkpt>
      <trkpt lat="47.134579969570041" lon="-0.153710022568703">
        <ele>29</ele>
        <time>2022-07-13T08:28:45Z</time>
      </trkpt>
      <trkpt lat="47.134609976783395" lon="-0.153719997033477">
        <ele>30</ele>
        <time>2022-07-13T08:28:47Z</time>
      </trkpt>
      <trkpt lat="47.134649958461523" lon="-0.153719997033477">
        <ele>30</ele>
        <time>2022-07-13T08:28:49Z</time>
      </trkpt>
      <trkpt lat="47.134690023958683" lon="-0.153740029782057">
        <ele>30</ele>
        <time>2022-07-13T08:28:51Z</time>
      </trkpt>
      <trkpt lat="47.134730005636811" lon="-0.153770036995411">
        <ele>31</ele>
        <time>2022-07-13T08:28:53Z</time>
      </trkpt>
      <trkpt lat="47.134760012850165" lon="-0.153780011460185">
        <ele>31</ele>
        <time>2022-07-13T08:28:54Z</time>
      </trkpt>
      <trkpt lat="47.134799994528294" lon="-0.153799960389733">
        <ele>32</ele>
        <time>2022-07-13T08:28:56Z</time>
      </trkpt>
      <trkpt lat="47.134839976206422" lon="-0.153840025886893">
        <ele>33</ele>
        <time>2022-07-13T08:28:58Z</time>
      </trkpt>
      <trkpt lat="47.134880041703582" lon="-0.153870033100247">
        <ele>34</ele>
        <time>2022-07-13T08:29:00Z</time>
      </trkpt>
      <trkpt lat="47.13492002338171" lon="-0.153910014778376">
        <ele>35</ele>
        <time>2022-07-13T08:29:02Z</time>
      </trkpt>
      <trkpt lat="47.134960005059838" lon="-0.153949996456504">
        <ele>35</ele>
        <time>2022-07-13T08:29:04Z</time>
      </trkpt>
      <trkpt lat="47.135009961202741" lon="-0.153980003669858">
        <ele>35</ele>
        <time>2022-07-13T08:29:06Z</time>
      </trkpt>
      <trkpt lat="47.135050026699901" lon="-0.154000036418438">
        <ele>36</ele>
        <time>2022-07-13T08:29:08Z</time>
      </trkpt>
      <trkpt lat="47.135099982842803" lon="-0.154019985347986">
        <ele>36</ele>
        <time>2022-07-13T08:29:10Z</time>
      </trkpt>
      <trkpt lat="47.135139964520931" lon="-0.154040018096566">
        <ele>36</ele>
        <time>2022-07-13T08:29:12Z</time>
      </trkpt>
      <trkpt lat="47.135169971734285" lon="-0.15407002530992">
        <ele>36</ele>
        <time>2022-07-13T08:29:14Z</time>
      </trkpt>
      <trkpt lat="47.135199978947639" lon="-0.154110006988049">
        <ele>36</ele>
        <time>2022-07-13T08:29:16Z</time>
      </trkpt>
      <trkpt lat="47.135239960625768" lon="-0.154130039736629">
        <ele>36</ele>
        <time>2022-07-13T08:29:18Z</time>
      </trkpt>
      <trkpt lat="47.135269967839122" lon="-0.154159963130951">
        <ele>36</ele>
        <time>2022-07-13T08:29:20Z</time>
      </trkpt>
      <trkpt lat="47.135299975052476" lon="-0.154200028628111">
        <ele>36</ele>
        <time>2022-07-13T08:29:22Z</time>
      </trkpt>
      <trkpt lat="47.13532998226583" lon="-0.154240010306239">
        <ele>36</ele>
        <time>2022-07-13T08:29:24Z</time>
      </trkpt>
      <trkpt lat="47.135359989479184" lon="-0.154279991984367">
        <ele>36</ele>
        <time>2022-07-13T08:29:26Z</time>
      </trkpt>
      <trkpt lat="47.135389996692538" lon="-0.154319973662496">
        <ele>36</ele>
        <time>2022-07-13T08:29:28Z</time>
      </trkpt>
      <trkpt lat="47.135429978370667" lon="-0.15434998087585">
        <ele>35</ele>
        <time>2022-07-13T08:29:30Z</time>
      </trkpt>
      <trkpt lat="47.135459985584021" lon="-0.154379988089204">
        <ele>35</ele>
        <time>2022-07-13T08:29:31Z</time>
      </trkpt>
      <trkpt lat="47.135480018332601" lon="-0.154400020837784">
        <ele>35</ele>
        <time>2022-07-13T08:29:32Z</time>
      </trkpt>
      <trkpt lat="47.135510025545955" lon="-0.154430028051138">
        <ele>36</ele>
        <time>2022-07-13T08:29:33Z</time>
      </trkpt>
      <trkpt lat="47.135540032759309" lon="-0.154470009729266">
        <ele>36</ele>
        <time>2022-07-13T08:29:35Z</time>
      </trkpt>
      <trkpt lat="47.135570039972663" lon="-0.154509991407394">
        <ele>36</ele>
        <time>2022-07-13T08:29:37Z</time>
      </trkpt>
      <trkpt lat="47.135610021650791" lon="-0.154560031369329">
        <ele>36</ele>
        <time>2022-07-13T08:29:39Z</time>
      </trkpt>
      <trkpt lat="47.135640028864145" lon="-0.154609987512231">
        <ele>36</ele>
        <time>2022-07-13T08:29:41Z</time>
      </trkpt>
      <trkpt lat="47.135670036077499" lon="-0.154649969190359">
        <ele>36</ele>
        <time>2022-07-13T08:29:43Z</time>
      </trkpt>
      <trkpt lat="47.135710017755628" lon="-0.154700009152293">
        <ele>35</ele>
        <time>2022-07-13T08:29:45Z</time>
      </trkpt>
      <trkpt lat="47.135740024968982" lon="-0.154730016365647">
        <ele>35</ele>
        <time>2022-07-13T08:29:47Z</time>
      </trkpt>
      <trkpt lat="47.135770032182336" lon="-0.15477997250855">
        <ele>35</ele>
        <time>2022-07-13T08:29:49Z</time>
      </trkpt>
      <trkpt lat="47.13580003939569" lon="-0.15482003800571">
        <ele>35</ele>
        <time>2022-07-13T08:29:51Z</time>
      </trkpt>
      <trkpt lat="47.135829962790012" lon="-0.154860019683838">
        <ele>35</ele>
        <time>2022-07-13T08:29:53Z</time>
      </trkpt>
      <trkpt lat="47.135870028287172" lon="-0.154890026897192">
        <ele>35</ele>
        <time>2022-07-13T08:29:55Z</time>
      </trkpt>
      <trkpt lat="47.135900035500526" lon="-0.154920034110546">
        <ele>34</ele>
        <time>2022-07-13T08:29:57Z</time>
      </trkpt>
      <trkpt lat="47.135929958894849" lon="-0.154960015788674">
        <ele>33</ele>
        <time>2022-07-13T08:29:59Z</time>
      </trkpt>
      <trkpt lat="47.135970024392009" lon="-0.154990023002028">
        <ele>33</ele>
        <time>2022-07-13T08:30:01Z</time>
      </trkpt>
      <trkpt lat="47.136000031605363" lon="-0.155020030215383">
        <ele>32</ele>
        <time>2022-07-13T08:30:03Z</time>
      </trkpt>
      <trkpt lat="47.136040013283491" lon="-0.155069986358285">
        <ele>32</ele>
        <time>2022-07-13T08:30:05Z</time>
      </trkpt>
      <trkpt lat="47.136079994961619" lon="-0.155109968036413">
        <ele>32</ele>
        <time>2022-07-13T08:30:07Z</time>
      </trkpt>
      <trkpt lat="47.136110002174973" lon="-0.155139975249767">
        <ele>32</ele>
        <time>2022-07-13T08:30:09Z</time>
      </trkpt>
      <trkpt lat="47.136140009388328" lon="-0.155169982463121">
        <ele>32</ele>
        <time>2022-07-13T08:30:11Z</time>
      </trkpt>
      <trkpt lat="47.136170016601682" lon="-0.15520996414125">
        <ele>32</ele>
        <time>2022-07-13T08:30:13Z</time>
      </trkpt>
      <trkpt lat="47.13620999827981" lon="-0.15525002963841">
        <ele>32</ele>
        <time>2022-07-13T08:30:15Z</time>
      </trkpt>
      <trkpt lat="47.136249979957938" lon="-0.155280036851764">
        <ele>32</ele>
        <time>2022-07-13T08:30:17Z</time>
      </trkpt>
      <trkpt lat="47.136289961636066" lon="-0.155299985781312">
        <ele>32</ele>
        <time>2022-07-13T08:30:19Z</time>
      </trkpt>
      <trkpt lat="47.136309994384646" lon="-0.155329992994666">
        <ele>32</ele>
        <time>2022-07-13T08:30:21Z</time>
      </trkpt>
      <trkpt lat="47.136340001598001" lon="-0.15536000020802">
        <ele>32</ele>
        <time>2022-07-13T08:30:23Z</time>
      </trkpt>
      <trkpt lat="47.136379983276129" lon="-0.155399981886148">
        <ele>33</ele>
        <time>2022-07-13T08:30:25Z</time>
      </trkpt>
      <trkpt lat="47.136409990489483" lon="-0.155450021848083">
        <ele>33</ele>
        <time>2022-07-13T08:30:27Z</time>
      </trkpt>
      <trkpt lat="47.136439997702837" lon="-0.155490003526211">
        <ele>33</ele>
        <time>2022-07-13T08:30:29Z</time>
      </trkpt>
      <trkpt lat="47.136460030451417" lon="-0.155529985204339">
        <ele>34</ele>
        <time>2022-07-13T08:30:31Z</time>
      </trkpt>
      <trkpt lat="47.136490037664771" lon="-0.155569966882467">
        <ele>33</ele>
        <time>2022-07-13T08:30:33Z</time>
      </trkpt>
      <trkpt lat="47.136500012129545" lon="-0.155620006844401">
        <ele>32</ele>
        <time>2022-07-13T08:30:35Z</time>
      </trkpt>
      <trkpt lat="47.136509986594319" lon="-0.15565998852253">
        <ele>31</ele>
        <time>2022-07-13T08:30:37Z</time>
      </trkpt>
      <trkpt lat="47.136509986594319" lon="-0.155720002949238">
        <ele>31</ele>
        <time>2022-07-13T08:30:39Z</time>
      </trkpt>
      <trkpt lat="47.136509986594319" lon="-0.155759984627366">
        <ele>31</ele>
        <time>2022-07-13T08:30:41Z</time>
      </trkpt>
      <trkpt lat="47.136500012129545" lon="-0.155799966305494">
        <ele>31</ele>
        <time>2022-07-13T08:30:43Z</time>
      </trkpt>
      <trkpt lat="47.136490037664771" lon="-0.155850006267428">
        <ele>32</ele>
        <time>2022-07-13T08:30:45Z</time>
      </trkpt>
      <trkpt lat="47.136490037664771" lon="-0.155899962410331">
        <ele>32</ele>
        <time>2022-07-13T08:30:47Z</time>
      </trkpt>
      <trkpt lat="47.136479979380965" lon="-0.155940027907491">
        <ele>33</ele>
        <time>2022-07-13T08:30:49Z</time>
      </trkpt>
      <trkpt lat="47.136460030451417" lon="-0.155980009585619">
        <ele>33</ele>
        <time>2022-07-13T08:30:52Z</time>
      </trkpt>
      <trkpt lat="47.136439997702837" lon="-0.156029965728521">
        <ele>32</ele>
        <time>2022-07-13T08:30:55Z</time>
      </trkpt>
      <trkpt lat="47.136419964954257" lon="-0.156059972941875">
        <ele>32</ele>
        <time>2022-07-13T08:30:57Z</time>
      </trkpt>
      <trkpt lat="47.136400016024709" lon="-0.15611001290381">
        <ele>31</ele>
        <time>2022-07-13T08:31:00Z</time>
      </trkpt>
      <trkpt lat="47.136390041559935" lon="-0.156149994581938">
        <ele>31</ele>
        <time>2022-07-13T08:31:03Z</time>
      </trkpt>
      <trkpt lat="47.136370008811355" lon="-0.156200034543872">
        <ele>30</ele>
        <time>2022-07-13T08:31:05Z</time>
      </trkpt>
      <trkpt lat="47.136360034346581" lon="-0.156230041757226">
        <ele>30</ele>
        <time>2022-07-13T08:31:07Z</time>
      </trkpt>
      <trkpt lat="47.136340001598001" lon="-0.156270023435354">
        <ele>29</ele>
        <time>2022-07-13T08:31:09Z</time>
      </trkpt>
      <trkpt lat="47.136319968849421" lon="-0.156310005113482">
        <ele>30</ele>
        <time>2022-07-13T08:31:12Z</time>
      </trkpt>
      <trkpt lat="47.136300019919872" lon="-0.156349986791611">
        <ele>29</ele>
        <time>2022-07-13T08:31:14Z</time>
      </trkpt>
      <trkpt lat="47.136279987171292" lon="-0.156410001218319">
        <ele>29</ele>
        <time>2022-07-13T08:31:16Z</time>
      </trkpt>
      <trkpt lat="47.136260038241744" lon="-0.156470015645027">
        <ele>28</ele>
        <time>2022-07-13T08:31:18Z</time>
      </trkpt>
      <trkpt lat="47.136249979957938" lon="-0.15654000453651">
        <ele>28</ele>
        <time>2022-07-13T08:31:20Z</time>
      </trkpt>
      <trkpt lat="47.13623003102839" lon="-0.156600018963218">
        <ele>27</ele>
        <time>2022-07-13T08:31:22Z</time>
      </trkpt>
      <trkpt lat="47.136219972744584" lon="-0.1566700078547">
        <ele>27</ele>
        <time>2022-07-13T08:31:24Z</time>
      </trkpt>
      <trkpt lat="47.13620999827981" lon="-0.156739996746182">
        <ele>27</ele>
        <time>2022-07-13T08:31:26Z</time>
      </trkpt>
      <trkpt lat="47.136200023815036" lon="-0.156809985637665">
        <ele>26</ele>
        <time>2022-07-13T08:31:28Z</time>
      </trkpt>
      <trkpt lat="47.13618996553123" lon="-0.156879974529147">
        <ele>26</ele>
        <time>2022-07-13T08:31:30Z</time>
      </trkpt>
      <trkpt lat="47.136179991066456" lon="-0.15694996342063">
        <ele>25</ele>
        <time>2022-07-13T08:31:32Z</time>
      </trkpt>
      <trkpt lat="47.136170016601682" lon="-0.157000003382564">
        <ele>25</ele>
        <time>2022-07-13T08:31:33Z</time>
      </trkpt>
      <trkpt lat="47.136159958317876" lon="-0.157060017809272">
        <ele>25</ele>
        <time>2022-07-13T08:31:35Z</time>
      </trkpt>
      <trkpt lat="47.136149983853102" lon="-0.157130006700754">
        <ele>25</ele>
        <time>2022-07-13T08:31:37Z</time>
      </trkpt>
      <trkpt lat="47.136149983853102" lon="-0.157199995592237">
        <ele>26</ele>
        <time>2022-07-13T08:31:39Z</time>
      </trkpt>
      <trkpt lat="47.136149983853102" lon="-0.157260010018945">
        <ele>26</ele>
        <time>2022-07-13T08:31:41Z</time>
      </trkpt>
      <trkpt lat="47.136140009388328" lon="-0.157320024445653">
        <ele>26</ele>
        <time>2022-07-13T08:31:43Z</time>
      </trkpt>
      <trkpt lat="47.136119976639748" lon="-0.157390013337135">
        <ele>26</ele>
        <time>2022-07-13T08:31:45Z</time>
      </trkpt>
      <trkpt lat="47.136089969426394" lon="-0.157439969480038">
        <ele>26</ele>
        <time>2022-07-13T08:31:47Z</time>
      </trkpt>
      <trkpt lat="47.136059962213039" lon="-0.157499983906746">
        <ele>26</ele>
        <time>2022-07-13T08:31:49Z</time>
      </trkpt>
      <trkpt lat="47.136040013283491" lon="-0.157539965584874">
        <ele>26</ele>
        <time>2022-07-13T08:31:51Z</time>
      </trkpt>
      <trkpt lat="47.136000031605363" lon="-0.157590005546808">
        <ele>26</ele>
        <time>2022-07-13T08:31:53Z</time>
      </trkpt>
      <trkpt lat="47.135970024392009" lon="-0.157639961689711">
        <ele>26</ele>
        <time>2022-07-13T08:31:55Z</time>
      </trkpt>
      <trkpt lat="47.135940017178655" lon="-0.157680027186871">
        <ele>26</ele>
        <time>2022-07-13T08:31:57Z</time>
      </trkpt>
      <trkpt lat="47.135910009965301" lon="-0.157729983329773">
        <ele>27</ele>
        <time>2022-07-13T08:31:59Z</time>
      </trkpt>
      <trkpt lat="47.135880002751946" lon="-0.157780023291707">
        <ele>27</ele>
        <time>2022-07-13T08:32:01Z</time>
      </trkpt>
      <trkpt lat="47.135849995538592" lon="-0.157820004969835">
        <ele>27</ele>
        <time>2022-07-13T08:32:03Z</time>
      </trkpt>
      <trkpt lat="47.135829962790012" lon="-0.157850012183189">
        <ele>27</ele>
        <time>2022-07-13T08:32:05Z</time>
      </trkpt>
      <trkpt lat="47.135810013860464" lon="-0.157889993861318">
        <ele>25</ele>
        <time>2022-07-13T08:32:07Z</time>
      </trkpt>
      <trkpt lat="47.13580003939569" lon="-0.157929975539446">
        <ele>24</ele>
        <time>2022-07-13T08:32:09Z</time>
      </trkpt>
      <trkpt lat="47.13578000664711" lon="-0.15798001550138">
        <ele>24</ele>
        <time>2022-07-13T08:32:11Z</time>
      </trkpt>
      <trkpt lat="47.13575997389853" lon="-0.158019997179508">
        <ele>24</ele>
        <time>2022-07-13T08:32:13Z</time>
      </trkpt>
      <trkpt lat="47.135749999433756" lon="-0.158070037141442">
        <ele>25</ele>
        <time>2022-07-13T08:32:16Z</time>
      </trkpt>
      <trkpt lat="47.135729966685176" lon="-0.158110018819571">
        <ele>25</ele>
        <time>2022-07-13T08:32:19Z</time>
      </trkpt>
      <trkpt lat="47.135710017755628" lon="-0.158150000497699">
        <ele>25</ele>
        <time>2022-07-13T08:32:21Z</time>
      </trkpt>
      <trkpt lat="47.135689985007048" lon="-0.158189982175827">
        <ele>25</ele>
        <time>2022-07-13T08:32:23Z</time>
      </trkpt>
      <trkpt lat="47.135670036077499" lon="-0.158229963853955">
        <ele>24</ele>
        <time>2022-07-13T08:32:26Z</time>
      </trkpt>
      <trkpt lat="47.135640028864145" lon="-0.158270029351115">
        <ele>23</ele>
        <time>2022-07-13T08:32:29Z</time>
      </trkpt>
      <trkpt lat="47.135619996115565" lon="-0.158310011029243">
        <ele>22</ele>
        <time>2022-07-13T08:32:31Z</time>
      </trkpt>
      <trkpt lat="47.135599963366985" lon="-0.158340018242598">
        <ele>21</ele>
        <time>2022-07-13T08:32:33Z</time>
      </trkpt>
      <trkpt lat="47.135570039972663" lon="-0.158370025455952">
        <ele>20</ele>
        <time>2022-07-13T08:32:35Z</time>
      </trkpt>
      <trkpt lat="47.135550007224083" lon="-0.158400032669306">
        <ele>19</ele>
        <time>2022-07-13T08:32:38Z</time>
      </trkpt>
      <trkpt lat="47.135529974475503" lon="-0.158440014347434">
        <ele>19</ele>
        <time>2022-07-13T08:32:40Z</time>
      </trkpt>
      <trkpt lat="47.135510025545955" lon="-0.158479996025562">
        <ele>20</ele>
        <time>2022-07-13T08:32:42Z</time>
      </trkpt>
      <trkpt lat="47.135480018332601" lon="-0.158530035987496">
        <ele>20</ele>
        <time>2022-07-13T08:32:44Z</time>
      </trkpt>
      <trkpt lat="47.135450011119246" lon="-0.158579992130399">
        <ele>20</ele>
        <time>2022-07-13T08:32:46Z</time>
      </trkpt>
      <trkpt lat="47.135420003905892" lon="-0.158630032092333">
        <ele>20</ele>
        <time>2022-07-13T08:32:48Z</time>
      </trkpt>
      <trkpt lat="47.135399971157312" lon="-0.158679988235235">
        <ele>20</ele>
        <time>2022-07-13T08:32:50Z</time>
      </trkpt>
      <trkpt lat="47.135359989479184" lon="-0.158740002661943">
        <ele>20</ele>
        <time>2022-07-13T08:32:52Z</time>
      </trkpt>
      <trkpt lat="47.135340040549636" lon="-0.158800017088652">
        <ele>20</ele>
        <time>2022-07-13T08:32:54Z</time>
      </trkpt>
      <trkpt lat="47.135310033336282" lon="-0.15886003151536">
        <ele>19</ele>
        <time>2022-07-13T08:32:56Z</time>
      </trkpt>
      <trkpt lat="47.135290000587702" lon="-0.158919962123036">
        <ele>19</ele>
        <time>2022-07-13T08:32:58Z</time>
      </trkpt>
      <trkpt lat="47.135259993374348" lon="-0.158979976549745">
        <ele>20</ele>
        <time>2022-07-13T08:33:00Z</time>
      </trkpt>
      <trkpt lat="47.135229986160994" lon="-0.159049965441227">
        <ele>20</ele>
        <time>2022-07-13T08:33:02Z</time>
      </trkpt>
      <trkpt lat="47.135199978947639" lon="-0.159100005403161">
        <ele>20</ele>
        <time>2022-07-13T08:33:04Z</time>
      </trkpt>
      <trkpt lat="47.135169971734285" lon="-0.159160019829869">
        <ele>21</ele>
        <time>2022-07-13T08:33:06Z</time>
      </trkpt>
      <trkpt lat="47.135139964520931" lon="-0.159209975972772">
        <ele>21</ele>
        <time>2022-07-13T08:33:08Z</time>
      </trkpt>
      <trkpt lat="47.135120015591383" lon="-0.159260015934706">
        <ele>20</ele>
        <time>2022-07-13T08:33:10Z</time>
      </trkpt>
      <trkpt lat="47.135110041126609" lon="-0.159330004826188">
        <ele>20</ele>
        <time>2022-07-13T08:33:12Z</time>
      </trkpt>
      <trkpt lat="47.135099982842803" lon="-0.159369986504316">
        <ele>19</ele>
        <time>2022-07-13T08:33:13Z</time>
      </trkpt>
      <trkpt lat="47.135090008378029" lon="-0.159430000931025">
        <ele>19</ele>
        <time>2022-07-13T08:33:15Z</time>
      </trkpt>
      <trkpt lat="47.135080033913255" lon="-0.15942002646625">
        <ele>19</ele>
        <time>2022-07-13T08:33:20Z</time>
      </trkpt>
      <trkpt lat="47.135060001164675" lon="-0.15937996096909">
        <ele>20</ele>
        <time>2022-07-13T08:33:22Z</time>
      </trkpt>
      <trkpt lat="47.135050026699901" lon="-0.159350037574768">
        <ele>20</ele>
        <time>2022-07-13T08:33:24Z</time>
      </trkpt>
      <trkpt lat="47.135029993951321" lon="-0.159360012039542">
        <ele>19</ele>
        <time>2022-07-13T08:33:27Z</time>
      </trkpt>
      <trkpt lat="47.135020019486547" lon="-0.159409968182445">
        <ele>19</ele>
        <time>2022-07-13T08:33:30Z</time>
      </trkpt>
      <trkpt lat="47.135020019486547" lon="-0.159450033679605">
        <ele>19</ele>
        <time>2022-07-13T08:33:32Z</time>
      </trkpt>
      <trkpt lat="47.135020019486547" lon="-0.159509964287281">
        <ele>19</ele>
        <time>2022-07-13T08:33:34Z</time>
      </trkpt>
      <trkpt lat="47.134999986737967" lon="-0.159569978713989">
        <ele>20</ele>
        <time>2022-07-13T08:33:36Z</time>
      </trkpt>
      <trkpt lat="47.134990012273192" lon="-0.159620018675923">
        <ele>20</ele>
        <time>2022-07-13T08:33:37Z</time>
      </trkpt>
      <trkpt lat="47.134980037808418" lon="-0.159660000354052">
        <ele>20</ele>
        <time>2022-07-13T08:33:38Z</time>
      </trkpt>
      <trkpt lat="47.134960005059838" lon="-0.15972001478076">
        <ele>21</ele>
        <time>2022-07-13T08:33:40Z</time>
      </trkpt>
      <trkpt lat="47.134939972311258" lon="-0.159769970923662">
        <ele>21</ele>
        <time>2022-07-13T08:33:42Z</time>
      </trkpt>
      <trkpt lat="47.13492002338171" lon="-0.159810036420822">
        <ele>21</ele>
        <time>2022-07-13T08:33:43Z</time>
      </trkpt>
      <trkpt lat="47.134890016168356" lon="-0.159859992563725">
        <ele>22</ele>
        <time>2022-07-13T08:33:45Z</time>
      </trkpt>
      <trkpt lat="47.134880041703582" lon="-0.159920006990433">
        <ele>22</ele>
        <time>2022-07-13T08:33:47Z</time>
      </trkpt>
      <trkpt lat="47.134860008955002" lon="-0.159980021417141">
        <ele>22</ele>
        <time>2022-07-13T08:33:49Z</time>
      </trkpt>
      <trkpt lat="47.134839976206422" lon="-0.160040035843849">
        <ele>21</ele>
        <time>2022-07-13T08:33:51Z</time>
      </trkpt>
      <trkpt lat="47.134809968993068" lon="-0.160099966451526">
        <ele>21</ele>
        <time>2022-07-13T08:33:53Z</time>
      </trkpt>
      <trkpt lat="47.134790020063519" lon="-0.160159980878234">
        <ele>21</ele>
        <time>2022-07-13T08:33:55Z</time>
      </trkpt>
      <trkpt lat="47.134760012850165" lon="-0.160210020840168">
        <ele>21</ele>
        <time>2022-07-13T08:33:57Z</time>
      </trkpt>
      <trkpt lat="47.134739980101585" lon="-0.16025997698307">
        <ele>20</ele>
        <time>2022-07-13T08:33:59Z</time>
      </trkpt>
      <trkpt lat="47.134720031172037" lon="-0.160310016945004">
        <ele>20</ele>
        <time>2022-07-13T08:34:01Z</time>
      </trkpt>
      <trkpt lat="47.134690023958683" lon="-0.160359973087907">
        <ele>20</ele>
        <time>2022-07-13T08:34:03Z</time>
      </trkpt>
      <trkpt lat="47.134669991210103" lon="-0.160410013049841">
        <ele>20</ele>
        <time>2022-07-13T08:34:05Z</time>
      </trkpt>
      <trkpt lat="47.134639983996749" lon="-0.160449994727969">
        <ele>20</ele>
        <time>2022-07-13T08:34:06Z</time>
      </trkpt>
      <trkpt lat="47.134620035067201" lon="-0.160480001941323">
        <ele>20</ele>
        <time>2022-07-13T08:34:07Z</time>
      </trkpt>
      <trkpt lat="47.134590027853847" lon="-0.160510009154677">
        <ele>20</ele>
        <time>2022-07-13T08:34:09Z</time>
      </trkpt>
      <trkpt lat="47.134560020640492" lon="-0.160549990832806">
        <ele>20</ele>
        <time>2022-07-13T08:34:11Z</time>
      </trkpt>
      <trkpt lat="47.134530013427138" lon="-0.160589972510934">
        <ele>20</ele>
        <time>2022-07-13T08:34:13Z</time>
      </trkpt>
      <trkpt lat="47.134509980678558" lon="-0.160630038008094">
        <ele>20</ele>
        <time>2022-07-13T08:34:14Z</time>
      </trkpt>
      <trkpt lat="47.134479973465204" lon="-0.160670019686222">
        <ele>20</ele>
        <time>2022-07-13T08:34:16Z</time>
      </trkpt>
      <trkpt lat="47.13444996625185" lon="-0.16071000136435">
        <ele>20</ele>
        <time>2022-07-13T08:34:18Z</time>
      </trkpt>
      <trkpt lat="47.134419959038496" lon="-0.160749983042479">
        <ele>20</ele>
        <time>2022-07-13T08:34:20Z</time>
      </trkpt>
      <trkpt lat="47.134390035644174" lon="-0.160789964720607">
        <ele>20</ele>
        <time>2022-07-13T08:34:22Z</time>
      </trkpt>
      <trkpt lat="47.13436002843082" lon="-0.160840004682541">
        <ele>20</ele>
        <time>2022-07-13T08:34:24Z</time>
      </trkpt>
      <trkpt lat="47.134330021217465" lon="-0.160909993574023">
        <ele>21</ele>
        <time>2022-07-13T08:34:26Z</time>
      </trkpt>
      <trkpt lat="47.134300014004111" lon="-0.160960033535957">
        <ele>21</ele>
        <time>2022-07-13T08:34:28Z</time>
      </trkpt>
      <trkpt lat="47.134279981255531" lon="-0.161019964143634">
        <ele>21</ele>
        <time>2022-07-13T08:34:30Z</time>
      </trkpt>
      <trkpt lat="47.134249974042177" lon="-0.161079978570342">
        <ele>21</ele>
        <time>2022-07-13T08:34:32Z</time>
      </trkpt>
      <trkpt lat="47.134209992364049" lon="-0.161109985783696">
        <ele>21</ele>
        <time>2022-07-13T08:34:34Z</time>
      </trkpt>
      <trkpt lat="47.134189959615469" lon="-0.161149967461824">
        <ele>21</ele>
        <time>2022-07-13T08:34:36Z</time>
      </trkpt>
      <trkpt lat="47.134170010685921" lon="-0.161190032958984">
        <ele>21</ele>
        <time>2022-07-13T08:34:38Z</time>
      </trkpt>
      <trkpt lat="47.134149977937341" lon="-0.161220040172338">
        <ele>21</ele>
        <time>2022-07-13T08:34:40Z</time>
      </trkpt>
      <trkpt lat="47.134119970723987" lon="-0.161249963566661">
        <ele>20</ele>
        <time>2022-07-13T08:34:42Z</time>
      </trkpt>
      <trkpt lat="47.134089963510633" lon="-0.161279970780015">
        <ele>20</ele>
        <time>2022-07-13T08:34:45Z</time>
      </trkpt>
      <trkpt lat="47.13406004011631" lon="-0.161290029063821">
        <ele>19</ele>
        <time>2022-07-13T08:34:50Z</time>
      </trkpt>
      <trkpt lat="47.134030032902956" lon="-0.161300003528595">
        <ele>19</ele>
        <time>2022-07-13T08:34:53Z</time>
      </trkpt>
      <trkpt lat="47.134000025689602" lon="-0.161290029063821">
        <ele>20</ele>
        <time>2022-07-13T08:34:56Z</time>
      </trkpt>
      <trkpt lat="47.133970018476248" lon="-0.161279970780015">
        <ele>22</ele>
        <time>2022-07-13T08:35:16Z</time>
      </trkpt>
      <trkpt lat="47.133940011262894" lon="-0.161260021850467">
        <ele>22</ele>
        <time>2022-07-13T08:35:18Z</time>
      </trkpt>
      <trkpt lat="47.133919978514314" lon="-0.161230014637113">
        <ele>23</ele>
        <time>2022-07-13T08:35:20Z</time>
      </trkpt>
      <trkpt lat="47.133900029584765" lon="-0.161200007423759">
        <ele>23</ele>
        <time>2022-07-13T08:35:22Z</time>
      </trkpt>
      <trkpt lat="47.133879996836185" lon="-0.161170000210404">
        <ele>24</ele>
        <time>2022-07-13T08:35:25Z</time>
      </trkpt>
      <trkpt lat="47.133849989622831" lon="-0.161149967461824">
        <ele>24</ele>
        <time>2022-07-13T08:35:27Z</time>
      </trkpt>
      <trkpt lat="47.133819982409477" lon="-0.161130018532276">
        <ele>24</ele>
        <time>2022-07-13T08:35:29Z</time>
      </trkpt>
      <trkpt lat="47.133800033479929" lon="-0.161109985783696">
        <ele>24</ele>
        <time>2022-07-13T08:35:31Z</time>
      </trkpt>
      <trkpt lat="47.133780000731349" lon="-0.161079978570342">
        <ele>24</ele>
        <time>2022-07-13T08:35:33Z</time>
      </trkpt>
      <trkpt lat="47.133759967982769" lon="-0.161049971356988">
        <ele>24</ele>
        <time>2022-07-13T08:35:35Z</time>
      </trkpt>
      <trkpt lat="47.133740019053221" lon="-0.16100998967886">
        <ele>24</ele>
        <time>2022-07-13T08:35:37Z</time>
      </trkpt>
      <trkpt lat="47.133719986304641" lon="-0.160970008000731">
        <ele>24</ele>
        <time>2022-07-13T08:35:39Z</time>
      </trkpt>
      <trkpt lat="47.133700037375093" lon="-0.160930026322603">
        <ele>25</ele>
        <time>2022-07-13T08:35:41Z</time>
      </trkpt>
      <trkpt lat="47.133670030161738" lon="-0.160900019109249">
        <ele>25</ele>
        <time>2022-07-13T08:35:43Z</time>
      </trkpt>
      <trkpt lat="47.133649997413158" lon="-0.160849979147315">
        <ele>24</ele>
        <time>2022-07-13T08:35:46Z</time>
      </trkpt>
      <trkpt lat="47.133640022948384" lon="-0.160809997469187">
        <ele>24</ele>
        <time>2022-07-13T08:35:48Z</time>
      </trkpt>
      <trkpt lat="47.133619990199804" lon="-0.160770015791059">
        <ele>25</ele>
        <time>2022-07-13T08:35:50Z</time>
      </trkpt>
      <trkpt lat="47.133600041270256" lon="-0.16073003411293">
        <ele>25</ele>
        <time>2022-07-13T08:35:52Z</time>
      </trkpt>
      <trkpt lat="47.133580008521676" lon="-0.160700026899576">
        <ele>24</ele>
        <time>2022-07-13T08:35:54Z</time>
      </trkpt>
      <trkpt lat="47.133550001308322" lon="-0.160659961402416">
        <ele>24</ele>
        <time>2022-07-13T08:35:56Z</time>
      </trkpt>
      <trkpt lat="47.133529968559742" lon="-0.160640012472868">
        <ele>24</ele>
        <time>2022-07-13T08:35:58Z</time>
      </trkpt>
      <trkpt lat="47.133499961346388" lon="-0.160619979724288">
        <ele>24</ele>
        <time>2022-07-13T08:36:00Z</time>
      </trkpt>
      <trkpt lat="47.13348001241684" lon="-0.160619979724288">
        <ele>23</ele>
        <time>2022-07-13T08:36:02Z</time>
      </trkpt>
      <trkpt lat="47.133450005203485" lon="-0.160619979724288">
        <ele>23</ele>
        <time>2022-07-13T08:36:04Z</time>
      </trkpt>
      <trkpt lat="47.133419997990131" lon="-0.160640012472868">
        <ele>23</ele>
        <time>2022-07-13T08:36:06Z</time>
      </trkpt>
      <trkpt lat="47.133389990776777" lon="-0.160670019686222">
        <ele>24</ele>
        <time>2022-07-13T08:36:08Z</time>
      </trkpt>
      <trkpt lat="47.133370041847229" lon="-0.160700026899576">
        <ele>25</ele>
        <time>2022-07-13T08:36:10Z</time>
      </trkpt>
      <trkpt lat="47.133350009098649" lon="-0.16073003411293">
        <ele>25</ele>
        <time>2022-07-13T08:36:12Z</time>
      </trkpt>
      <trkpt lat="47.133329976350069" lon="-0.160770015791059">
        <ele>25</ele>
        <time>2022-07-13T08:36:14Z</time>
      </trkpt>
      <trkpt lat="47.133310027420521" lon="-0.160809997469187">
        <ele>25</ele>
        <time>2022-07-13T08:36:16Z</time>
      </trkpt>
      <trkpt lat="47.133289994671941" lon="-0.160840004682541">
        <ele>25</ele>
        <time>2022-07-13T08:36:18Z</time>
      </trkpt>
      <trkpt lat="47.133269961923361" lon="-0.160870011895895">
        <ele>26</ele>
        <time>2022-07-13T08:36:21Z</time>
      </trkpt>
      <trkpt lat="47.133259987458587" lon="-0.160919968038797">
        <ele>25</ele>
        <time>2022-07-13T08:36:40Z</time>
      </trkpt>
      <trkpt lat="47.133250012993813" lon="-0.160960033535957">
        <ele>25</ele>
        <time>2022-07-13T08:36:42Z</time>
      </trkpt>
      <trkpt lat="47.133240038529038" lon="-0.161000015214086">
        <ele>25</ele>
        <time>2022-07-13T08:36:45Z</time>
      </trkpt>
      <trkpt lat="47.133220005780458" lon="-0.161049971356988">
        <ele>25</ele>
        <time>2022-07-13T08:36:48Z</time>
      </trkpt>
      <trkpt lat="47.133210031315684" lon="-0.161100011318922">
        <ele>26</ele>
        <time>2022-07-13T08:36:51Z</time>
      </trkpt>
      <trkpt lat="47.133189998567104" lon="-0.161149967461824">
        <ele>27</ele>
        <time>2022-07-13T08:36:54Z</time>
      </trkpt>
      <trkpt lat="47.13318002410233" lon="-0.161200007423759">
        <ele>27</ele>
        <time>2022-07-13T08:36:57Z</time>
      </trkpt>
      <trkpt lat="47.13315999135375" lon="-0.161249963566661">
        <ele>27</ele>
        <time>2022-07-13T08:36:59Z</time>
      </trkpt>
      <trkpt lat="47.133150016888976" lon="-0.161300003528595">
        <ele>27</ele>
        <time>2022-07-13T08:37:01Z</time>
      </trkpt>
      <trkpt lat="47.13313995860517" lon="-0.161330010741949">
        <ele>27</ele>
        <time>2022-07-13T08:37:03Z</time>
      </trkpt>
      <trkpt lat="47.133120009675622" lon="-0.161369992420077">
        <ele>27</ele>
        <time>2022-07-13T08:37:06Z</time>
      </trkpt>
      <trkpt lat="47.133099976927042" lon="-0.161420032382011">
        <ele>27</ele>
        <time>2022-07-13T08:37:09Z</time>
      </trkpt>
      <trkpt lat="47.133080027997494" lon="-0.16146001406014">
        <ele>27</ele>
        <time>2022-07-13T08:37:12Z</time>
      </trkpt>
      <trkpt lat="47.13305002078414" lon="-0.161490021273494">
        <ele>27</ele>
        <time>2022-07-13T08:37:15Z</time>
      </trkpt>
      <trkpt lat="47.133020013570786" lon="-0.161520028486848">
        <ele>26</ele>
        <time>2022-07-13T08:37:17Z</time>
      </trkpt>
      <trkpt lat="47.132999980822206" lon="-0.161550035700202">
        <ele>26</ele>
        <time>2022-07-13T08:37:19Z</time>
      </trkpt>
      <trkpt lat="47.132980031892657" lon="-0.161579959094524">
        <ele>26</ele>
        <time>2022-07-13T08:37:21Z</time>
      </trkpt>
      <trkpt lat="47.132959999144077" lon="-0.161609966307878">
        <ele>27</ele>
        <time>2022-07-13T08:37:23Z</time>
      </trkpt>
      <trkpt lat="47.132939966395497" lon="-0.161650031805038">
        <ele>27</ele>
        <time>2022-07-13T08:37:26Z</time>
      </trkpt>
      <trkpt lat="47.132920017465949" lon="-0.161690013483167">
        <ele>28</ele>
        <time>2022-07-13T08:37:28Z</time>
      </trkpt>
      <trkpt lat="47.132909959182143" lon="-0.161729995161295">
        <ele>28</ele>
        <time>2022-07-13T08:37:30Z</time>
      </trkpt>
      <trkpt lat="47.132890010252595" lon="-0.161760002374649">
        <ele>29</ele>
        <time>2022-07-13T08:37:44Z</time>
      </trkpt>
      <trkpt lat="47.132869977504015" lon="-0.161799984052777">
        <ele>29</ele>
        <time>2022-07-13T08:38:11Z</time>
      </trkpt>
      <trkpt lat="47.132820021361113" lon="-0.161899980157614">
        <ele>26</ele>
        <time>2022-07-13T08:38:33Z</time>
      </trkpt>
      <trkpt lat="47.132720025256276" lon="-0.16204004175961">
        <ele>25</ele>
        <time>2022-07-13T08:38:44Z</time>
      </trkpt>
      <trkpt lat="47.13270996697247" lon="-0.162080023437738">
        <ele>25</ele>
        <time>2022-07-13T08:38:47Z</time>
      </trkpt>
      <trkpt lat="47.132660010829568" lon="-0.162150012329221">
        <ele>26</ele>
        <time>2022-07-13T08:38:53Z</time>
      </trkpt>
      <trkpt lat="47.132669985294342" lon="-0.162210026755929">
        <ele>20</ele>
        <time>2022-07-13T08:45:02Z</time>
      </trkpt>
      <trkpt lat="47.13270996697247" lon="-0.162169961258769">
        <ele>19</ele>
        <time>2022-07-13T08:45:04Z</time>
      </trkpt>
      <trkpt lat="47.132739974185824" lon="-0.162140037864447">
        <ele>18</ele>
        <time>2022-07-13T08:45:05Z</time>
      </trkpt>
      <trkpt lat="47.132780039682984" lon="-0.162120005115867">
        <ele>18</ele>
        <time>2022-07-13T08:45:07Z</time>
      </trkpt>
      <trkpt lat="47.132809963077307" lon="-0.162110030651093">
        <ele>18</ele>
        <time>2022-07-13T08:45:10Z</time>
      </trkpt>
      <trkpt lat="47.132850028574467" lon="-0.162110030651093">
        <ele>18</ele>
        <time>2022-07-13T08:45:12Z</time>
      </trkpt>
      <trkpt lat="47.132890010252595" lon="-0.162129979580641">
        <ele>19</ele>
        <time>2022-07-13T08:45:14Z</time>
      </trkpt>
      <trkpt lat="47.132920017465949" lon="-0.162140037864447">
        <ele>19</ele>
        <time>2022-07-13T08:45:16Z</time>
      </trkpt>
      <trkpt lat="47.132939966395497" lon="-0.162169961258769">
        <ele>20</ele>
        <time>2022-07-13T08:45:18Z</time>
      </trkpt>
      <trkpt lat="47.132959999144077" lon="-0.162199968472123">
        <ele>21</ele>
        <time>2022-07-13T08:45:21Z</time>
      </trkpt>
      <trkpt lat="47.132980031892657" lon="-0.162229975685477">
        <ele>21</ele>
        <time>2022-07-13T08:45:24Z</time>
      </trkpt>
      <trkpt lat="47.132999980822206" lon="-0.162270041182637">
        <ele>21</ele>
        <time>2022-07-13T08:45:28Z</time>
      </trkpt>
      <trkpt lat="47.133020013570786" lon="-0.16231999732554">
        <ele>21</ele>
        <time>2022-07-13T08:45:30Z</time>
      </trkpt>
      <trkpt lat="47.133039962500334" lon="-0.162359979003668">
        <ele>20</ele>
        <time>2022-07-13T08:45:32Z</time>
      </trkpt>
      <trkpt lat="47.133069969713688" lon="-0.162399960681796">
        <ele>20</ele>
        <time>2022-07-13T08:45:34Z</time>
      </trkpt>
      <trkpt lat="47.133090002462268" lon="-0.16242996789515">
        <ele>21</ele>
        <time>2022-07-13T08:45:36Z</time>
      </trkpt>
      <trkpt lat="47.133129984140396" lon="-0.16247003339231">
        <ele>21</ele>
        <time>2022-07-13T08:45:39Z</time>
      </trkpt>
      <trkpt lat="47.13315999135375" lon="-0.162500040605664">
        <ele>21</ele>
        <time>2022-07-13T08:45:41Z</time>
      </trkpt>
      <trkpt lat="47.133189998567104" lon="-0.162519989535213">
        <ele>22</ele>
        <time>2022-07-13T08:45:43Z</time>
      </trkpt>
      <trkpt lat="47.133210031315684" lon="-0.162549996748567">
        <ele>23</ele>
        <time>2022-07-13T08:45:45Z</time>
      </trkpt>
      <trkpt lat="47.133240038529038" lon="-0.162580003961921">
        <ele>23</ele>
        <time>2022-07-13T08:45:47Z</time>
      </trkpt>
      <trkpt lat="47.133259987458587" lon="-0.162610011175275">
        <ele>23</ele>
        <time>2022-07-13T08:45:49Z</time>
      </trkpt>
      <trkpt lat="47.133280020207167" lon="-0.162629960104823">
        <ele>22</ele>
        <time>2022-07-13T08:45:51Z</time>
      </trkpt>
      <trkpt lat="47.133299969136715" lon="-0.162680000066757">
        <ele>22</ele>
        <time>2022-07-13T08:45:54Z</time>
      </trkpt>
      <trkpt lat="47.133310027420521" lon="-0.162719981744885">
        <ele>22</ele>
        <time>2022-07-13T08:45:56Z</time>
      </trkpt>
      <trkpt lat="47.133310027420521" lon="-0.162759963423014">
        <ele>23</ele>
        <time>2022-07-13T08:45:58Z</time>
      </trkpt>
      <trkpt lat="47.133320001885295" lon="-0.162810003384948">
        <ele>23</ele>
        <time>2022-07-13T08:46:03Z</time>
      </trkpt>
      <trkpt lat="47.133340034633875" lon="-0.162830036133528">
        <ele>23</ele>
        <time>2022-07-13T08:46:06Z</time>
      </trkpt>
      <trkpt lat="47.133340034633875" lon="-0.162870017811656">
        <ele>22</ele>
        <time>2022-07-13T08:46:13Z</time>
      </trkpt>
      <trkpt lat="47.133340034633875" lon="-0.162919973954558">
        <ele>23</ele>
        <time>2022-07-13T08:46:16Z</time>
      </trkpt>
      <trkpt lat="47.133350009098649" lon="-0.162960039451718">
        <ele>24</ele>
        <time>2022-07-13T08:46:19Z</time>
      </trkpt>
      <trkpt lat="47.133370041847229" lon="-0.162989962846041">
        <ele>25</ele>
        <time>2022-07-13T08:46:22Z</time>
      </trkpt>
      <trkpt lat="47.133399965241551" lon="-0.163000021129847">
        <ele>26</ele>
        <time>2022-07-13T08:46:25Z</time>
      </trkpt>
      <trkpt lat="47.133429972454906" lon="-0.162989962846041">
        <ele>28</ele>
        <time>2022-07-13T08:46:28Z</time>
      </trkpt>
      <trkpt lat="47.133470037952065" lon="-0.162989962846041">
        <ele>28</ele>
        <time>2022-07-13T08:46:30Z</time>
      </trkpt>
      <trkpt lat="47.133489986881614" lon="-0.162979988381267">
        <ele>29</ele>
        <time>2022-07-13T08:46:32Z</time>
      </trkpt>
      <trkpt lat="47.133519994094968" lon="-0.162979988381267">
        <ele>29</ele>
        <time>2022-07-13T08:46:34Z</time>
      </trkpt>
      <trkpt lat="47.133550001308322" lon="-0.162979988381267">
        <ele>28</ele>
        <time>2022-07-13T08:46:36Z</time>
      </trkpt>
      <trkpt lat="47.133580008521676" lon="-0.163009995594621">
        <ele>28</ele>
        <time>2022-07-13T08:46:39Z</time>
      </trkpt>
      <trkpt lat="47.13361001573503" lon="-0.163030028343201">
        <ele>27</ele>
        <time>2022-07-13T08:46:42Z</time>
      </trkpt>
      <trkpt lat="47.133649997413158" lon="-0.163049977272749">
        <ele>29</ele>
        <time>2022-07-13T08:46:45Z</time>
      </trkpt>
      <trkpt lat="47.133670030161738" lon="-0.163079984486103">
        <ele>30</ele>
        <time>2022-07-13T08:46:48Z</time>
      </trkpt>
      <trkpt lat="47.133710011839867" lon="-0.163100017234683">
        <ele>32</ele>
        <time>2022-07-13T08:46:51Z</time>
      </trkpt>
      <trkpt lat="47.133729960769415" lon="-0.163139998912811">
        <ele>33</ele>
        <time>2022-07-13T08:46:54Z</time>
      </trkpt>
      <trkpt lat="47.133759967982769" lon="-0.163170006126165">
        <ele>35</ele>
        <time>2022-07-13T08:46:57Z</time>
      </trkpt>
      <trkpt lat="47.133780000731349" lon="-0.163209987804294">
        <ele>36</ele>
        <time>2022-07-13T08:47:00Z</time>
      </trkpt>
      <trkpt lat="47.133810007944703" lon="-0.163260027766228">
        <ele>37</ele>
        <time>2022-07-13T08:47:03Z</time>
      </trkpt>
      <trkpt lat="47.133819982409477" lon="-0.163300009444356">
        <ele>38</ele>
        <time>2022-07-13T08:47:05Z</time>
      </trkpt>
      <trkpt lat="47.133840015158057" lon="-0.163349965587258">
        <ele>39</ele>
        <time>2022-07-13T08:47:07Z</time>
      </trkpt>
      <trkpt lat="47.133870022371411" lon="-0.163409980013967">
        <ele>40</ele>
        <time>2022-07-13T08:47:09Z</time>
      </trkpt>
      <trkpt lat="47.13388997130096" lon="-0.163469994440675">
        <ele>39</ele>
        <time>2022-07-13T08:47:11Z</time>
      </trkpt>
      <trkpt lat="47.133919978514314" lon="-0.163530008867383">
        <ele>38</ele>
        <time>2022-07-13T08:47:13Z</time>
      </trkpt>
      <trkpt lat="47.133949985727668" lon="-0.163590023294091">
        <ele>38</ele>
        <time>2022-07-13T08:47:15Z</time>
      </trkpt>
      <trkpt lat="47.133979992941022" lon="-0.163650037720799">
        <ele>39</ele>
        <time>2022-07-13T08:47:17Z</time>
      </trkpt>
      <trkpt lat="47.134000025689602" lon="-0.163699993863702">
        <ele>39</ele>
        <time>2022-07-13T08:47:19Z</time>
      </trkpt>
      <trkpt lat="47.134030032902956" lon="-0.163750033825636">
        <ele>40</ele>
        <time>2022-07-13T08:47:21Z</time>
      </trkpt>
      <trkpt lat="47.134070014581084" lon="-0.163799989968538">
        <ele>39</ele>
        <time>2022-07-13T08:47:23Z</time>
      </trkpt>
      <trkpt lat="47.134100021794438" lon="-0.163850029930472">
        <ele>39</ele>
        <time>2022-07-13T08:47:25Z</time>
      </trkpt>
      <trkpt lat="47.134140003472567" lon="-0.163899986073375">
        <ele>39</ele>
        <time>2022-07-13T08:47:27Z</time>
      </trkpt>
      <trkpt lat="47.134179985150695" lon="-0.163939967751503">
        <ele>40</ele>
        <time>2022-07-13T08:47:29Z</time>
      </trkpt>
      <trkpt lat="47.134219966828823" lon="-0.163960000500083">
        <ele>40</ele>
        <time>2022-07-13T08:47:31Z</time>
      </trkpt>
      <trkpt lat="47.134260032325983" lon="-0.163980033248663">
        <ele>41</ele>
        <time>2022-07-13T08:47:33Z</time>
      </trkpt>
      <trkpt lat="47.134300014004111" lon="-0.164010040462017">
        <ele>41</ele>
        <time>2022-07-13T08:47:35Z</time>
      </trkpt>
      <trkpt lat="47.134330021217465" lon="-0.164039963856339">
        <ele>41</ele>
        <time>2022-07-13T08:47:37Z</time>
      </trkpt>
      <trkpt lat="47.134370002895594" lon="-0.164090003818274">
        <ele>40</ele>
        <time>2022-07-13T08:47:39Z</time>
      </trkpt>
      <trkpt lat="47.134400010108948" lon="-0.164120011031628">
        <ele>40</ele>
        <time>2022-07-13T08:47:40Z</time>
      </trkpt>
      <trkpt lat="47.134430017322302" lon="-0.164150018244982">
        <ele>40</ele>
        <time>2022-07-13T08:47:41Z</time>
      </trkpt>
      <trkpt lat="47.134460024535656" lon="-0.16418999992311">
        <ele>40</ele>
        <time>2022-07-13T08:47:43Z</time>
      </trkpt>
      <trkpt lat="47.134500006213784" lon="-0.164240039885044">
        <ele>41</ele>
        <time>2022-07-13T08:47:45Z</time>
      </trkpt>
      <trkpt lat="47.134530013427138" lon="-0.164269963279366">
        <ele>41</ele>
        <time>2022-07-13T08:47:47Z</time>
      </trkpt>
      <trkpt lat="47.134569995105267" lon="-0.164310028776526">
        <ele>42</ele>
        <time>2022-07-13T08:47:49Z</time>
      </trkpt>
      <trkpt lat="47.134609976783395" lon="-0.164350010454655">
        <ele>43</ele>
        <time>2022-07-13T08:47:51Z</time>
      </trkpt>
      <trkpt lat="47.134649958461523" lon="-0.164380017668009">
        <ele>44</ele>
        <time>2022-07-13T08:47:53Z</time>
      </trkpt>
      <trkpt lat="47.134699998423457" lon="-0.164419999346137">
        <ele>44</ele>
        <time>2022-07-13T08:47:55Z</time>
      </trkpt>
      <trkpt lat="47.134739980101585" lon="-0.164459981024265">
        <ele>45</ele>
        <time>2022-07-13T08:47:57Z</time>
      </trkpt>
      <trkpt lat="47.134779961779714" lon="-0.164489988237619">
        <ele>45</ele>
        <time>2022-07-13T08:47:59Z</time>
      </trkpt>
      <trkpt lat="47.134820027276874" lon="-0.164529969915748">
        <ele>45</ele>
        <time>2022-07-13T08:48:01Z</time>
      </trkpt>
      <trkpt lat="47.134860008955002" lon="-0.164570035412908">
        <ele>46</ele>
        <time>2022-07-13T08:48:03Z</time>
      </trkpt>
      <trkpt lat="47.134890016168356" lon="-0.164610017091036">
        <ele>46</ele>
        <time>2022-07-13T08:48:05Z</time>
      </trkpt>
      <trkpt lat="47.134929997846484" lon="-0.164649998769164">
        <ele>46</ele>
        <time>2022-07-13T08:48:07Z</time>
      </trkpt>
      <trkpt lat="47.134969979524612" lon="-0.164680005982518">
        <ele>47</ele>
        <time>2022-07-13T08:48:09Z</time>
      </trkpt>
      <trkpt lat="47.135020019486547" lon="-0.164719987660646">
        <ele>47</ele>
        <time>2022-07-13T08:48:11Z</time>
      </trkpt>
      <trkpt lat="47.135060001164675" lon="-0.164759969338775">
        <ele>47</ele>
        <time>2022-07-13T08:48:13Z</time>
      </trkpt>
      <trkpt lat="47.135090008378029" lon="-0.164810009300709">
        <ele>48</ele>
        <time>2022-07-13T08:48:15Z</time>
      </trkpt>
      <trkpt lat="47.135120015591383" lon="-0.164840016514063">
        <ele>48</ele>
        <time>2022-07-13T08:48:17Z</time>
      </trkpt>
      <trkpt lat="47.135150022804737" lon="-0.164879998192191">
        <ele>48</ele>
        <time>2022-07-13T08:48:19Z</time>
      </trkpt>
      <trkpt lat="47.135190004482865" lon="-0.164919979870319">
        <ele>49</ele>
        <time>2022-07-13T08:48:22Z</time>
      </trkpt>
      <trkpt lat="47.135220011696219" lon="-0.164940012618899">
        <ele>50</ele>
        <time>2022-07-13T08:48:24Z</time>
      </trkpt>
      <trkpt lat="47.135250018909574" lon="-0.164959961548448">
        <ele>49</ele>
        <time>2022-07-13T08:48:26Z</time>
      </trkpt>
      <trkpt lat="47.135280026122928" lon="-0.164979994297028">
        <ele>50</ele>
        <time>2022-07-13T08:48:28Z</time>
      </trkpt>
      <trkpt lat="47.135299975052476" lon="-0.165010001510382">
        <ele>50</ele>
        <time>2022-07-13T08:48:30Z</time>
      </trkpt>
      <trkpt lat="47.13532998226583" lon="-0.165019975975156">
        <ele>50</ele>
        <time>2022-07-13T08:48:32Z</time>
      </trkpt>
      <trkpt lat="47.135359989479184" lon="-0.165040008723736">
        <ele>50</ele>
        <time>2022-07-13T08:48:34Z</time>
      </trkpt>
      <trkpt lat="47.135389996692538" lon="-0.16504998318851">
        <ele>51</ele>
        <time>2022-07-13T08:48:36Z</time>
      </trkpt>
      <trkpt lat="47.135410029441118" lon="-0.165089964866638">
        <ele>52</ele>
        <time>2022-07-13T08:48:39Z</time>
      </trkpt>
      <trkpt lat="47.135420003905892" lon="-0.165130030363798">
        <ele>52</ele>
        <time>2022-07-13T08:48:42Z</time>
      </trkpt>
      <trkpt lat="47.135440036654472" lon="-0.165130030363798">
        <ele>53</ele>
        <time>2022-07-13T08:48:48Z</time>
      </trkpt>
      <trkpt lat="47.135459985584021" lon="-0.165109997615218">
        <ele>54</ele>
        <time>2022-07-13T08:48:50Z</time>
      </trkpt>
      <trkpt lat="47.135480018332601" lon="-0.165079990401864">
        <ele>54</ele>
        <time>2022-07-13T08:48:52Z</time>
      </trkpt>
      <trkpt lat="47.135499967262149" lon="-0.165040008723736">
        <ele>53</ele>
        <time>2022-07-13T08:48:54Z</time>
      </trkpt>
      <trkpt lat="47.135510025545955" lon="-0.165000027045608">
        <ele>53</ele>
        <time>2022-07-13T08:48:57Z</time>
      </trkpt>
      <trkpt lat="47.135529974475503" lon="-0.164949987083673">
        <ele>52</ele>
        <time>2022-07-13T08:49:00Z</time>
      </trkpt>
      <trkpt lat="47.135550007224083" lon="-0.164910005405545">
        <ele>52</ele>
        <time>2022-07-13T08:49:02Z</time>
      </trkpt>
      <trkpt lat="47.135570039972663" lon="-0.164870023727417">
        <ele>52</ele>
        <time>2022-07-13T08:49:04Z</time>
      </trkpt>
      <trkpt lat="47.135589988902211" lon="-0.164829958230257">
        <ele>52</ele>
        <time>2022-07-13T08:49:06Z</time>
      </trkpt>
      <trkpt lat="47.135599963366985" lon="-0.164780002087355">
        <ele>52</ele>
        <time>2022-07-13T08:49:08Z</time>
      </trkpt>
      <trkpt lat="47.135619996115565" lon="-0.164740020409226">
        <ele>52</ele>
        <time>2022-07-13T08:49:11Z</time>
      </trkpt>
      <trkpt lat="47.135640028864145" lon="-0.164689980447292">
        <ele>52</ele>
        <time>2022-07-13T08:49:14Z</time>
      </trkpt>
      <trkpt lat="47.135659977793694" lon="-0.164649998769164">
        <ele>52</ele>
        <time>2022-07-13T08:49:16Z</time>
      </trkpt>
      <trkpt lat="47.135680010542274" lon="-0.16459995880723">
        <ele>52</ele>
        <time>2022-07-13T08:49:19Z</time>
      </trkpt>
      <trkpt lat="47.135699959471822" lon="-0.164559977129102">
        <ele>52</ele>
        <time>2022-07-13T08:49:21Z</time>
      </trkpt>
      <trkpt lat="47.135710017755628" lon="-0.164510020986199">
        <ele>53</ele>
        <time>2022-07-13T08:49:24Z</time>
      </trkpt>
      <trkpt lat="47.135729966685176" lon="-0.164470039308071">
        <ele>54</ele>
        <time>2022-07-13T08:49:26Z</time>
      </trkpt>
      <trkpt lat="47.135749999433756" lon="-0.164429973810911">
        <ele>54</ele>
        <time>2022-07-13T08:49:28Z</time>
      </trkpt>
      <trkpt lat="47.13575997389853" lon="-0.164389992132783">
        <ele>54</ele>
        <time>2022-07-13T08:49:30Z</time>
      </trkpt>
      <trkpt lat="47.13578000664711" lon="-0.164359984919429">
        <ele>54</ele>
        <time>2022-07-13T08:49:32Z</time>
      </trkpt>
      <trkpt lat="47.13580003939569" lon="-0.164320003241301">
        <ele>54</ele>
        <time>2022-07-13T08:49:34Z</time>
      </trkpt>
      <trkpt lat="47.135819988325238" lon="-0.164280021563172">
        <ele>55</ele>
        <time>2022-07-13T08:49:36Z</time>
      </trkpt>
      <trkpt lat="47.135840021073818" lon="-0.164240039885044">
        <ele>55</ele>
        <time>2022-07-13T08:49:38Z</time>
      </trkpt>
      <trkpt lat="47.135859970003366" lon="-0.164199974387884">
        <ele>55</ele>
        <time>2022-07-13T08:49:40Z</time>
      </trkpt>
      <trkpt lat="47.135880002751946" lon="-0.164159992709756">
        <ele>55</ele>
        <time>2022-07-13T08:49:42Z</time>
      </trkpt>
      <trkpt lat="47.135889977216721" lon="-0.164120011031628">
        <ele>54</ele>
        <time>2022-07-13T08:49:44Z</time>
      </trkpt>
      <trkpt lat="47.135910009965301" lon="-0.164080029353499">
        <ele>54</ele>
        <time>2022-07-13T08:49:46Z</time>
      </trkpt>
      <trkpt lat="47.135940017178655" lon="-0.164059996604919">
        <ele>53</ele>
        <time>2022-07-13T08:49:48Z</time>
      </trkpt>
      <trkpt lat="47.135959966108203" lon="-0.164029989391565">
        <ele>53</ele>
        <time>2022-07-13T08:49:50Z</time>
      </trkpt>
      <trkpt lat="47.135979998856783" lon="-0.163990007713437">
        <ele>53</ele>
        <time>2022-07-13T08:49:52Z</time>
      </trkpt>
      <trkpt lat="47.136000031605363" lon="-0.163950026035309">
        <ele>53</ele>
        <time>2022-07-13T08:49:54Z</time>
      </trkpt>
      <trkpt lat="47.136019980534911" lon="-0.163909960538149">
        <ele>53</ele>
        <time>2022-07-13T08:49:56Z</time>
      </trkpt>
      <trkpt lat="47.136040013283491" lon="-0.163869978860021">
        <ele>52</ele>
        <time>2022-07-13T08:49:58Z</time>
      </trkpt>
      <trkpt lat="47.136049987748265" lon="-0.163829997181892">
        <ele>51</ele>
        <time>2022-07-13T08:50:00Z</time>
      </trkpt>
      <trkpt lat="47.136070020496845" lon="-0.163790015503764">
        <ele>51</ele>
        <time>2022-07-13T08:50:02Z</time>
      </trkpt>
      <trkpt lat="47.136089969426394" lon="-0.16373997554183">
        <ele>51</ele>
        <time>2022-07-13T08:50:04Z</time>
      </trkpt>
      <trkpt lat="47.136110002174973" lon="-0.163699993863702">
        <ele>51</ele>
        <time>2022-07-13T08:50:06Z</time>
      </trkpt>
      <trkpt lat="47.136130034923553" lon="-0.163660012185574">
        <ele>51</ele>
        <time>2022-07-13T08:50:08Z</time>
      </trkpt>
      <trkpt lat="47.136140009388328" lon="-0.163620030507445">
        <ele>50</ele>
        <time>2022-07-13T08:50:10Z</time>
      </trkpt>
      <trkpt lat="47.136159958317876" lon="-0.163590023294091">
        <ele>50</ele>
        <time>2022-07-13T08:50:12Z</time>
      </trkpt>
      <trkpt lat="47.136179991066456" lon="-0.163560016080737">
        <ele>50</ele>
        <time>2022-07-13T08:50:14Z</time>
      </trkpt>
      <trkpt lat="47.136200023815036" lon="-0.163530008867383">
        <ele>51</ele>
        <time>2022-07-13T08:50:16Z</time>
      </trkpt>
      <trkpt lat="47.136219972744584" lon="-0.163500001654029">
        <ele>51</ele>
        <time>2022-07-13T08:50:18Z</time>
      </trkpt>
      <trkpt lat="47.136240005493164" lon="-0.163460019975901">
        <ele>50</ele>
        <time>2022-07-13T08:50:20Z</time>
      </trkpt>
      <trkpt lat="47.136260038241744" lon="-0.163430012762547">
        <ele>50</ele>
        <time>2022-07-13T08:50:22Z</time>
      </trkpt>
      <trkpt lat="47.136289961636066" lon="-0.163400005549192">
        <ele>50</ele>
        <time>2022-07-13T08:50:25Z</time>
      </trkpt>
      <trkpt lat="47.136309994384646" lon="-0.163369998335838">
        <ele>50</ele>
        <time>2022-07-13T08:50:27Z</time>
      </trkpt>
      <trkpt lat="47.136330027133226" lon="-0.163339991122484">
        <ele>50</ele>
        <time>2022-07-13T08:50:29Z</time>
      </trkpt>
      <trkpt lat="47.136330027133226" lon="-0.16330998390913">
        <ele>50</ele>
        <time>2022-07-13T08:50:31Z</time>
      </trkpt>
      <trkpt lat="47.136309994384646" lon="-0.163290034979582">
        <ele>50</ele>
        <time>2022-07-13T08:50:33Z</time>
      </trkpt>
      <trkpt lat="47.136279987171292" lon="-0.163279976695776">
        <ele>50</ele>
        <time>2022-07-13T08:50:35Z</time>
      </trkpt>
      <trkpt lat="47.136279987171292" lon="-0.163249969482422">
        <ele>52</ele>
        <time>2022-07-13T08:51:04Z</time>
      </trkpt>
      <trkpt lat="47.136300019919872" lon="-0.163239995017648">
        <ele>52</ele>
        <time>2022-07-13T08:51:06Z</time>
      </trkpt>
      <trkpt lat="47.136330027133226" lon="-0.163239995017648">
        <ele>52</ele>
        <time>2022-07-13T08:51:08Z</time>
      </trkpt>
      <trkpt lat="47.136360034346581" lon="-0.163230020552874">
        <ele>52</ele>
        <time>2022-07-13T08:51:10Z</time>
      </trkpt>
      <trkpt lat="47.136390041559935" lon="-0.163239995017648">
        <ele>51</ele>
        <time>2022-07-13T08:51:13Z</time>
      </trkpt>
      <trkpt lat="47.136419964954257" lon="-0.163239995017648">
        <ele>51</ele>
        <time>2022-07-13T08:51:15Z</time>
      </trkpt>
      <trkpt lat="47.136460030451417" lon="-0.163239995017648">
        <ele>50</ele>
        <time>2022-07-13T08:51:17Z</time>
      </trkpt>
      <trkpt lat="47.136490037664771" lon="-0.163239995017648">
        <ele>50</ele>
        <time>2022-07-13T08:51:19Z</time>
      </trkpt>
      <trkpt lat="47.136519961059093" lon="-0.163230020552874">
        <ele>50</ele>
        <time>2022-07-13T08:51:21Z</time>
      </trkpt>
      <trkpt lat="47.136549968272448" lon="-0.163219962269068">
        <ele>50</ele>
        <time>2022-07-13T08:51:23Z</time>
      </trkpt>
      <trkpt lat="47.136590033769608" lon="-0.163209987804294">
        <ele>50</ele>
        <time>2022-07-13T08:51:26Z</time>
      </trkpt>
      <trkpt lat="47.136620040982962" lon="-0.163209987804294">
        <ele>50</ele>
        <time>2022-07-13T08:51:29Z</time>
      </trkpt>
      <trkpt lat="47.136649964377284" lon="-0.163209987804294">
        <ele>50</ele>
        <time>2022-07-13T08:51:32Z</time>
      </trkpt>
      <trkpt lat="47.136690029874444" lon="-0.163219962269068">
        <ele>50</ele>
        <time>2022-07-13T08:51:34Z</time>
      </trkpt>
      <trkpt lat="47.136730011552572" lon="-0.163249969482422">
        <ele>49</ele>
        <time>2022-07-13T08:51:36Z</time>
      </trkpt>
      <trkpt lat="47.136760018765926" lon="-0.163270002231002">
        <ele>49</ele>
        <time>2022-07-13T08:51:38Z</time>
      </trkpt>
      <trkpt lat="47.13679002597928" lon="-0.163290034979582">
        <ele>49</ele>
        <time>2022-07-13T08:51:40Z</time>
      </trkpt>
      <trkpt lat="47.136820033192635" lon="-0.163319958373904">
        <ele>49</ele>
        <time>2022-07-13T08:51:42Z</time>
      </trkpt>
      <trkpt lat="47.136850040405989" lon="-0.163339991122484">
        <ele>49</ele>
        <time>2022-07-13T08:51:44Z</time>
      </trkpt>
      <trkpt lat="47.136890022084117" lon="-0.163369998335838">
        <ele>48</ele>
        <time>2022-07-13T08:51:46Z</time>
      </trkpt>
      <trkpt lat="47.136930003762245" lon="-0.163390031084418">
        <ele>48</ele>
        <time>2022-07-13T08:51:48Z</time>
      </trkpt>
      <trkpt lat="47.136969985440373" lon="-0.163420038297772">
        <ele>48</ele>
        <time>2022-07-13T08:51:50Z</time>
      </trkpt>
      <trkpt lat="47.137009967118502" lon="-0.163449961692095">
        <ele>48</ele>
        <time>2022-07-13T08:51:52Z</time>
      </trkpt>
      <trkpt lat="47.137050032615662" lon="-0.163469994440675">
        <ele>48</ele>
        <time>2022-07-13T08:51:54Z</time>
      </trkpt>
      <trkpt lat="47.13709001429379" lon="-0.163490027189255">
        <ele>48</ele>
        <time>2022-07-13T08:51:56Z</time>
      </trkpt>
      <trkpt lat="47.137120021507144" lon="-0.163509976118803">
        <ele>48</ele>
        <time>2022-07-13T08:51:58Z</time>
      </trkpt>
      <trkpt lat="47.137160003185272" lon="-0.163550041615963">
        <ele>48</ele>
        <time>2022-07-13T08:52:00Z</time>
      </trkpt>
      <trkpt lat="47.137190010398626" lon="-0.163569990545511">
        <ele>48</ele>
        <time>2022-07-13T08:52:01Z</time>
      </trkpt>
      <trkpt lat="47.13722001761198" lon="-0.163579965010285">
        <ele>48</ele>
        <time>2022-07-13T08:52:02Z</time>
      </trkpt>
      <trkpt lat="47.137239966541529" lon="-0.163599997758865">
        <ele>49</ele>
        <time>2022-07-13T08:52:03Z</time>
      </trkpt>
      <trkpt lat="47.137269973754883" lon="-0.163609972223639">
        <ele>49</ele>
        <time>2022-07-13T08:52:04Z</time>
      </trkpt>
      <trkpt lat="47.137299980968237" lon="-0.163630004972219">
        <ele>48</ele>
        <time>2022-07-13T08:52:05Z</time>
      </trkpt>
      <trkpt lat="47.137329988181591" lon="-0.163650037720799">
        <ele>48</ele>
        <time>2022-07-13T08:52:06Z</time>
      </trkpt>
      <trkpt lat="47.137369969859719" lon="-0.163679961115122">
        <ele>48</ele>
        <time>2022-07-13T08:52:08Z</time>
      </trkpt>
      <trkpt lat="47.137420009821653" lon="-0.163709968328476">
        <ele>48</ele>
        <time>2022-07-13T08:52:10Z</time>
      </trkpt>
      <trkpt lat="47.137450017035007" lon="-0.163730001077056">
        <ele>48</ele>
        <time>2022-07-13T08:52:11Z</time>
      </trkpt>
      <trkpt lat="47.137480024248362" lon="-0.163750033825636">
        <ele>48</ele>
        <time>2022-07-13T08:52:12Z</time>
      </trkpt>
      <trkpt lat="47.137510031461716" lon="-0.163769982755184">
        <ele>49</ele>
        <time>2022-07-13T08:52:13Z</time>
      </trkpt>
      <trkpt lat="47.137529980391264" lon="-0.163790015503764">
        <ele>49</ele>
        <time>2022-07-13T08:52:14Z</time>
      </trkpt>
      <trkpt lat="47.137569962069392" lon="-0.163809964433312">
        <ele>48</ele>
        <time>2022-07-13T08:52:16Z</time>
      </trkpt>
      <trkpt lat="47.137610027566552" lon="-0.163850029930472">
        <ele>48</ele>
        <time>2022-07-13T08:52:18Z</time>
      </trkpt>
      <trkpt lat="47.13765000924468" lon="-0.163880037143826">
        <ele>49</ele>
        <time>2022-07-13T08:52:20Z</time>
      </trkpt>
      <trkpt lat="47.137689990922809" lon="-0.163920018821955">
        <ele>48</ele>
        <time>2022-07-13T08:52:22Z</time>
      </trkpt>
      <trkpt lat="47.137729972600937" lon="-0.163969974964857">
        <ele>49</ele>
        <time>2022-07-13T08:52:24Z</time>
      </trkpt>
      <trkpt lat="47.137759979814291" lon="-0.163999982178211">
        <ele>49</ele>
        <time>2022-07-13T08:52:25Z</time>
      </trkpt>
      <trkpt lat="47.137789987027645" lon="-0.164029989391565">
        <ele>50</ele>
        <time>2022-07-13T08:52:27Z</time>
      </trkpt>
      <trkpt lat="47.137829968705773" lon="-0.164059996604919">
        <ele>49</ele>
        <time>2022-07-13T08:52:29Z</time>
      </trkpt>
      <trkpt lat="47.137870034202933" lon="-0.164099978283048">
        <ele>50</ele>
        <time>2022-07-13T08:52:31Z</time>
      </trkpt>
      <trkpt lat="47.137900041416287" lon="-0.164129985496402">
        <ele>50</ele>
        <time>2022-07-13T08:52:32Z</time>
      </trkpt>
      <trkpt lat="47.13792996481061" lon="-0.16416996717453">
        <ele>51</ele>
        <time>2022-07-13T08:52:34Z</time>
      </trkpt>
      <trkpt lat="47.13797003030777" lon="-0.16421003267169">
        <ele>51</ele>
        <time>2022-07-13T08:52:36Z</time>
      </trkpt>
      <trkpt lat="47.138000037521124" lon="-0.164250014349818">
        <ele>51</ele>
        <time>2022-07-13T08:52:38Z</time>
      </trkpt>
      <trkpt lat="47.138029960915446" lon="-0.164289996027946">
        <ele>50</ele>
        <time>2022-07-13T08:52:40Z</time>
      </trkpt>
      <trkpt lat="47.138070026412606" lon="-0.164329977706075">
        <ele>50</ele>
        <time>2022-07-13T08:52:42Z</time>
      </trkpt>
      <trkpt lat="47.13810003362596" lon="-0.164359984919429">
        <ele>50</ele>
        <time>2022-07-13T08:52:43Z</time>
      </trkpt>
      <trkpt lat="47.138140015304089" lon="-0.164399966597557">
        <ele>50</ele>
        <time>2022-07-13T08:52:45Z</time>
      </trkpt>
      <trkpt lat="47.138170022517443" lon="-0.164440032094717">
        <ele>49</ele>
        <time>2022-07-13T08:52:47Z</time>
      </trkpt>
      <trkpt lat="47.138210004195571" lon="-0.164470039308071">
        <ele>49</ele>
        <time>2022-07-13T08:52:49Z</time>
      </trkpt>
      <trkpt lat="47.138240011408925" lon="-0.164510020986199">
        <ele>49</ele>
        <time>2022-07-13T08:52:51Z</time>
      </trkpt>
      <trkpt lat="47.138279993087053" lon="-0.164550002664328">
        <ele>50</ele>
        <time>2022-07-13T08:52:53Z</time>
      </trkpt>
      <trkpt lat="47.138310000300407" lon="-0.164589984342456">
        <ele>50</ele>
        <time>2022-07-13T08:52:55Z</time>
      </trkpt>
      <trkpt lat="47.138349981978536" lon="-0.164629966020584">
        <ele>50</ele>
        <time>2022-07-13T08:52:57Z</time>
      </trkpt>
      <trkpt lat="47.13837998919189" lon="-0.164680005982518">
        <ele>50</ele>
        <time>2022-07-13T08:52:59Z</time>
      </trkpt>
      <trkpt lat="47.138419970870018" lon="-0.164719987660646">
        <ele>49</ele>
        <time>2022-07-13T08:53:01Z</time>
      </trkpt>
      <trkpt lat="47.138460036367178" lon="-0.164759969338775">
        <ele>49</ele>
        <time>2022-07-13T08:53:03Z</time>
      </trkpt>
      <trkpt lat="47.138500018045306" lon="-0.164800034835935">
        <ele>49</ele>
        <time>2022-07-13T08:53:05Z</time>
      </trkpt>
      <trkpt lat="47.13853002525866" lon="-0.164840016514063">
        <ele>50</ele>
        <time>2022-07-13T08:53:07Z</time>
      </trkpt>
      <trkpt lat="47.138560032472014" lon="-0.164870023727417">
        <ele>49</ele>
        <time>2022-07-13T08:53:09Z</time>
      </trkpt>
      <trkpt lat="47.138590039685369" lon="-0.164900030940771">
        <ele>49</ele>
        <time>2022-07-13T08:53:11Z</time>
      </trkpt>
      <trkpt lat="47.138609988614917" lon="-0.164930038154125">
        <ele>50</ele>
        <time>2022-07-13T08:53:14Z</time>
      </trkpt>
      <trkpt lat="47.138639995828271" lon="-0.164970019832253">
        <ele>51</ele>
        <time>2022-07-13T08:53:17Z</time>
      </trkpt>
      <trkpt lat="47.138670003041625" lon="-0.165000027045608">
        <ele>52</ele>
        <time>2022-07-13T08:53:20Z</time>
      </trkpt>
      <trkpt lat="47.138700010254979" lon="-0.165040008723736">
        <ele>52</ele>
        <time>2022-07-13T08:53:26Z</time>
      </trkpt>
      <trkpt lat="47.138709984719753" lon="-0.16507001593709">
        <ele>51</ele>
        <time>2022-07-13T08:53:34Z</time>
      </trkpt>
      <trkpt lat="47.138790031895041" lon="-0.165160037577152">
        <ele>63</ele>
        <time>2022-07-13T08:57:28Z</time>
      </trkpt>
      <trkpt lat="47.138769999146461" lon="-0.165130030363798">
        <ele>64</ele>
        <time>2022-07-13T08:57:30Z</time>
      </trkpt>
      <trkpt lat="47.138749966397882" lon="-0.165100023150444">
        <ele>64</ele>
        <time>2022-07-13T08:57:32Z</time>
      </trkpt>
      <trkpt lat="47.138730017468333" lon="-0.165060041472316">
        <ele>65</ele>
        <time>2022-07-13T08:57:34Z</time>
      </trkpt>
      <trkpt lat="47.138709984719753" lon="-0.165019975975156">
        <ele>65</ele>
        <time>2022-07-13T08:57:36Z</time>
      </trkpt>
      <trkpt lat="47.138700010254979" lon="-0.164970019832253">
        <ele>65</ele>
        <time>2022-07-13T08:57:38Z</time>
      </trkpt>
      <trkpt lat="47.138700010254979" lon="-0.164919979870319">
        <ele>65</ele>
        <time>2022-07-13T08:57:41Z</time>
      </trkpt>
      <trkpt lat="47.138709984719753" lon="-0.164879998192191">
        <ele>64</ele>
        <time>2022-07-13T08:57:43Z</time>
      </trkpt>
      <trkpt lat="47.138719959184527" lon="-0.164840016514063">
        <ele>64</ele>
        <time>2022-07-13T08:57:45Z</time>
      </trkpt>
      <trkpt lat="47.138730017468333" lon="-0.164789976552129">
        <ele>64</ele>
        <time>2022-07-13T08:57:47Z</time>
      </trkpt>
      <trkpt lat="47.138749966397882" lon="-0.164749994874001">
        <ele>64</ele>
        <time>2022-07-13T08:57:49Z</time>
      </trkpt>
      <trkpt lat="47.138760024681687" lon="-0.164700038731098">
        <ele>63</ele>
        <time>2022-07-13T08:57:51Z</time>
      </trkpt>
      <trkpt lat="47.138779973611236" lon="-0.164659973233938">
        <ele>62</ele>
        <time>2022-07-13T08:57:53Z</time>
      </trkpt>
      <trkpt lat="47.138800006359816" lon="-0.164629966020584">
        <ele>61</ele>
        <time>2022-07-13T08:57:55Z</time>
      </trkpt>
      <trkpt lat="47.138820039108396" lon="-0.164589984342456">
        <ele>61</ele>
        <time>2022-07-13T08:57:57Z</time>
      </trkpt>
      <trkpt lat="47.138839988037944" lon="-0.164550002664328">
        <ele>61</ele>
        <time>2022-07-13T08:57:59Z</time>
      </trkpt>
      <trkpt lat="47.138860020786524" lon="-0.164510020986199">
        <ele>61</ele>
        <time>2022-07-13T08:58:01Z</time>
      </trkpt>
      <trkpt lat="47.138879969716072" lon="-0.164470039308071">
        <ele>62</ele>
        <time>2022-07-13T08:58:03Z</time>
      </trkpt>
      <trkpt lat="47.138909976929426" lon="-0.164429973810911">
        <ele>62</ele>
        <time>2022-07-13T08:58:05Z</time>
      </trkpt>
      <trkpt lat="47.138930009678006" lon="-0.164399966597557">
        <ele>62</ele>
        <time>2022-07-13T08:58:07Z</time>
      </trkpt>
      <trkpt lat="47.138949958607554" lon="-0.164359984919429">
        <ele>63</ele>
        <time>2022-07-13T08:58:09Z</time>
      </trkpt>
      <trkpt lat="47.13896001689136" lon="-0.164329977706075">
        <ele>63</ele>
        <time>2022-07-13T08:58:12Z</time>
      </trkpt>
      <trkpt lat="47.138979965820909" lon="-0.164299970492721">
        <ele>63</ele>
        <time>2022-07-13T08:58:14Z</time>
      </trkpt>
      <trkpt lat="47.138999998569489" lon="-0.164269963279366">
        <ele>63</ele>
        <time>2022-07-13T08:58:16Z</time>
      </trkpt>
      <trkpt lat="47.139020031318069" lon="-0.164229981601238">
        <ele>62</ele>
        <time>2022-07-13T08:58:18Z</time>
      </trkpt>
      <trkpt lat="47.139039980247617" lon="-0.16418999992311">
        <ele>62</ele>
        <time>2022-07-13T08:58:20Z</time>
      </trkpt>
      <trkpt lat="47.139060012996197" lon="-0.164150018244982">
        <ele>62</ele>
        <time>2022-07-13T08:58:22Z</time>
      </trkpt>
      <trkpt lat="47.139090020209551" lon="-0.164120011031628">
        <ele>63</ele>
        <time>2022-07-13T08:58:24Z</time>
      </trkpt>
      <trkpt lat="47.139109969139099" lon="-0.164090003818274">
        <ele>63</ele>
        <time>2022-07-13T08:58:26Z</time>
      </trkpt>
      <trkpt lat="47.139130001887679" lon="-0.164050022140145">
        <ele>63</ele>
        <time>2022-07-13T08:58:28Z</time>
      </trkpt>
      <trkpt lat="47.139150034636259" lon="-0.164020014926791">
        <ele>63</ele>
        <time>2022-07-13T08:58:30Z</time>
      </trkpt>
      <trkpt lat="47.139169983565807" lon="-0.163980033248663">
        <ele>63</ele>
        <time>2022-07-13T08:58:32Z</time>
      </trkpt>
      <trkpt lat="47.139190016314387" lon="-0.163950026035309">
        <ele>63</ele>
        <time>2022-07-13T08:58:34Z</time>
      </trkpt>
      <trkpt lat="47.139209965243936" lon="-0.163920018821955">
        <ele>63</ele>
        <time>2022-07-13T08:58:36Z</time>
      </trkpt>
      <trkpt lat="47.13923997245729" lon="-0.163869978860021">
        <ele>64</ele>
        <time>2022-07-13T08:58:38Z</time>
      </trkpt>
      <trkpt lat="47.13926000520587" lon="-0.163839971646667">
        <ele>64</ele>
        <time>2022-07-13T08:58:40Z</time>
      </trkpt>
      <trkpt lat="47.139269979670644" lon="-0.163799989968538">
        <ele>64</ele>
        <time>2022-07-13T08:58:42Z</time>
      </trkpt>
      <trkpt lat="47.139290012419224" lon="-0.16376000829041">
        <ele>63</ele>
        <time>2022-07-13T08:58:44Z</time>
      </trkpt>
      <trkpt lat="47.139309961348772" lon="-0.163720026612282">
        <ele>63</ele>
        <time>2022-07-13T08:58:46Z</time>
      </trkpt>
      <trkpt lat="47.139329994097352" lon="-0.163669986650348">
        <ele>63</ele>
        <time>2022-07-13T08:58:48Z</time>
      </trkpt>
      <trkpt lat="47.139350026845932" lon="-0.163630004972219">
        <ele>63</ele>
        <time>2022-07-13T08:58:50Z</time>
      </trkpt>
      <trkpt lat="47.13936997577548" lon="-0.163590023294091">
        <ele>63</ele>
        <time>2022-07-13T08:58:52Z</time>
      </trkpt>
      <trkpt lat="47.13939000852406" lon="-0.163550041615963">
        <ele>63</ele>
        <time>2022-07-13T08:58:54Z</time>
      </trkpt>
      <trkpt lat="47.139420015737414" lon="-0.163509976118803">
        <ele>63</ele>
        <time>2022-07-13T08:58:56Z</time>
      </trkpt>
      <trkpt lat="47.139450022950768" lon="-0.163469994440675">
        <ele>63</ele>
        <time>2022-07-13T08:58:58Z</time>
      </trkpt>
      <trkpt lat="47.139480030164123" lon="-0.163430012762547">
        <ele>64</ele>
        <time>2022-07-13T08:59:00Z</time>
      </trkpt>
      <trkpt lat="47.139510037377477" lon="-0.163379972800612">
        <ele>64</ele>
        <time>2022-07-13T08:59:02Z</time>
      </trkpt>
      <trkpt lat="47.139529986307025" lon="-0.163339991122484">
        <ele>64</ele>
        <time>2022-07-13T08:59:04Z</time>
      </trkpt>
      <trkpt lat="47.139559993520379" lon="-0.163290034979582">
        <ele>64</ele>
        <time>2022-07-13T08:59:06Z</time>
      </trkpt>
      <trkpt lat="47.139590000733733" lon="-0.163239995017648">
        <ele>64</ele>
        <time>2022-07-13T08:59:08Z</time>
      </trkpt>
      <trkpt lat="47.139620007947087" lon="-0.16320001333952">
        <ele>64</ele>
        <time>2022-07-13T08:59:10Z</time>
      </trkpt>
      <trkpt lat="47.139650015160441" lon="-0.163149973377585">
        <ele>63</ele>
        <time>2022-07-13T08:59:12Z</time>
      </trkpt>
      <trkpt lat="47.139680022373796" lon="-0.163100017234683">
        <ele>63</ele>
        <time>2022-07-13T08:59:14Z</time>
      </trkpt>
      <trkpt lat="47.13971002958715" lon="-0.163060035556555">
        <ele>62</ele>
        <time>2022-07-13T08:59:16Z</time>
      </trkpt>
      <trkpt lat="47.139740036800504" lon="-0.163000021129847">
        <ele>61</ele>
        <time>2022-07-13T08:59:18Z</time>
      </trkpt>
      <trkpt lat="47.139759985730052" lon="-0.162949981167912">
        <ele>61</ele>
        <time>2022-07-13T08:59:20Z</time>
      </trkpt>
      <trkpt lat="47.139780018478632" lon="-0.162889966741204">
        <ele>60</ele>
        <time>2022-07-13T08:59:22Z</time>
      </trkpt>
      <trkpt lat="47.139810025691986" lon="-0.162840010598302">
        <ele>60</ele>
        <time>2022-07-13T08:59:24Z</time>
      </trkpt>
      <trkpt lat="47.139829974621534" lon="-0.162800028920174">
        <ele>60</ele>
        <time>2022-07-13T08:59:26Z</time>
      </trkpt>
      <trkpt lat="47.139859981834888" lon="-0.16274998895824">
        <ele>60</ele>
        <time>2022-07-13T08:59:28Z</time>
      </trkpt>
      <trkpt lat="47.139889989048243" lon="-0.162700032815337">
        <ele>60</ele>
        <time>2022-07-13T08:59:30Z</time>
      </trkpt>
      <trkpt lat="47.139910021796823" lon="-0.162649992853403">
        <ele>60</ele>
        <time>2022-07-13T08:59:32Z</time>
      </trkpt>
      <trkpt lat="47.139940029010177" lon="-0.162600036710501">
        <ele>59</ele>
        <time>2022-07-13T08:59:34Z</time>
      </trkpt>
      <trkpt lat="47.139970036223531" lon="-0.162559971213341">
        <ele>59</ele>
        <time>2022-07-13T08:59:36Z</time>
      </trkpt>
      <trkpt lat="47.139999959617853" lon="-0.162510015070438">
        <ele>59</ele>
        <time>2022-07-13T08:59:38Z</time>
      </trkpt>
      <trkpt lat="47.140029966831207" lon="-0.16247003339231">
        <ele>59</ele>
        <time>2022-07-13T08:59:40Z</time>
      </trkpt>
      <trkpt lat="47.140059974044561" lon="-0.162419993430376">
        <ele>59</ele>
        <time>2022-07-13T08:59:42Z</time>
      </trkpt>
      <trkpt lat="47.140089981257915" lon="-0.162359979003668">
        <ele>59</ele>
        <time>2022-07-13T08:59:44Z</time>
      </trkpt>
      <trkpt lat="47.14011998847127" lon="-0.162310022860765">
        <ele>59</ele>
        <time>2022-07-13T08:59:46Z</time>
      </trkpt>
      <trkpt lat="47.140149995684624" lon="-0.162259982898831">
        <ele>59</ele>
        <time>2022-07-13T08:59:48Z</time>
      </trkpt>
      <trkpt lat="47.140170028433204" lon="-0.162210026755929">
        <ele>58</ele>
        <time>2022-07-13T08:59:50Z</time>
      </trkpt>
      <trkpt lat="47.140200035646558" lon="-0.162159986793995">
        <ele>58</ele>
        <time>2022-07-13T08:59:52Z</time>
      </trkpt>
      <trkpt lat="47.140219984576106" lon="-0.162099972367287">
        <ele>59</ele>
        <time>2022-07-13T08:59:54Z</time>
      </trkpt>
      <trkpt lat="47.14024999178946" lon="-0.16204004175961">
        <ele>59</ele>
        <time>2022-07-13T08:59:56Z</time>
      </trkpt>
      <trkpt lat="47.140279999002814" lon="-0.161990001797676">
        <ele>59</ele>
        <time>2022-07-13T08:59:58Z</time>
      </trkpt>
      <trkpt lat="47.140300031751394" lon="-0.161950020119548">
        <ele>59</ele>
        <time>2022-07-13T09:00:00Z</time>
      </trkpt>
      <trkpt lat="47.140330038964748" lon="-0.161899980157614">
        <ele>60</ele>
        <time>2022-07-13T09:00:02Z</time>
      </trkpt>
      <trkpt lat="47.140359962359071" lon="-0.161839965730906">
        <ele>59</ele>
        <time>2022-07-13T09:00:04Z</time>
      </trkpt>
      <trkpt lat="47.140389969572425" lon="-0.161790009588003">
        <ele>59</ele>
        <time>2022-07-13T09:00:06Z</time>
      </trkpt>
      <trkpt lat="47.140419976785779" lon="-0.161750027909875">
        <ele>59</ele>
        <time>2022-07-13T09:00:08Z</time>
      </trkpt>
      <trkpt lat="47.140440009534359" lon="-0.161699987947941">
        <ele>59</ele>
        <time>2022-07-13T09:00:10Z</time>
      </trkpt>
      <trkpt lat="47.140470016747713" lon="-0.161650031805038">
        <ele>59</ele>
        <time>2022-07-13T09:00:12Z</time>
      </trkpt>
      <trkpt lat="47.140500023961067" lon="-0.161599991843104">
        <ele>59</ele>
        <time>2022-07-13T09:00:14Z</time>
      </trkpt>
      <trkpt lat="47.140519972890615" lon="-0.161550035700202">
        <ele>59</ele>
        <time>2022-07-13T09:00:16Z</time>
      </trkpt>
      <trkpt lat="47.14054998010397" lon="-0.161499995738268">
        <ele>58</ele>
        <time>2022-07-13T09:00:18Z</time>
      </trkpt>
      <trkpt lat="47.140579987317324" lon="-0.161450039595366">
        <ele>58</ele>
        <time>2022-07-13T09:00:20Z</time>
      </trkpt>
      <trkpt lat="47.140600020065904" lon="-0.161399999633431">
        <ele>58</ele>
        <time>2022-07-13T09:00:22Z</time>
      </trkpt>
      <trkpt lat="47.140630027279258" lon="-0.161360017955303">
        <ele>58</ele>
        <time>2022-07-13T09:00:24Z</time>
      </trkpt>
      <trkpt lat="47.140660034492612" lon="-0.161309977993369">
        <ele>59</ele>
        <time>2022-07-13T09:00:26Z</time>
      </trkpt>
      <trkpt lat="47.140690041705966" lon="-0.161269996315241">
        <ele>59</ele>
        <time>2022-07-13T09:00:28Z</time>
      </trkpt>
      <trkpt lat="47.140719965100288" lon="-0.161220040172338">
        <ele>59</ele>
        <time>2022-07-13T09:00:30Z</time>
      </trkpt>
      <trkpt lat="47.140749972313643" lon="-0.161170000210404">
        <ele>59</ele>
        <time>2022-07-13T09:00:32Z</time>
      </trkpt>
      <trkpt lat="47.140770005062222" lon="-0.16111996024847">
        <ele>59</ele>
        <time>2022-07-13T09:00:34Z</time>
      </trkpt>
      <trkpt lat="47.140790037810802" lon="-0.161079978570342">
        <ele>59</ele>
        <time>2022-07-13T09:00:36Z</time>
      </trkpt>
      <trkpt lat="47.140819961205125" lon="-0.161039996892214">
        <ele>59</ele>
        <time>2022-07-13T09:00:38Z</time>
      </trkpt>
      <trkpt lat="47.140849968418479" lon="-0.160990040749311">
        <ele>59</ele>
        <time>2022-07-13T09:00:40Z</time>
      </trkpt>
      <trkpt lat="47.140870001167059" lon="-0.160940000787377">
        <ele>59</ele>
        <time>2022-07-13T09:00:42Z</time>
      </trkpt>
      <trkpt lat="47.140890033915639" lon="-0.160900019109249">
        <ele>59</ele>
        <time>2022-07-13T09:00:44Z</time>
      </trkpt>
      <trkpt lat="47.140879975631833" lon="-0.160870011895895">
        <ele>59</ele>
        <time>2022-07-13T09:00:47Z</time>
      </trkpt>
      <trkpt lat="47.140900008380413" lon="-0.160830030217767">
        <ele>58</ele>
        <time>2022-07-13T09:01:17Z</time>
      </trkpt>
      <trkpt lat="47.140920041128993" lon="-0.160800023004413">
        <ele>57</ele>
        <time>2022-07-13T09:01:20Z</time>
      </trkpt>
      <trkpt lat="47.140939990058541" lon="-0.160760041326284">
        <ele>57</ele>
        <time>2022-07-13T09:01:23Z</time>
      </trkpt>
      <trkpt lat="47.140949964523315" lon="-0.160719975829124">
        <ele>56</ele>
        <time>2022-07-13T09:01:25Z</time>
      </trkpt>
      <trkpt lat="47.140949964523315" lon="-0.160670019686222">
        <ele>56</ele>
        <time>2022-07-13T09:01:27Z</time>
      </trkpt>
      <trkpt lat="47.140939990058541" lon="-0.160630038008094">
        <ele>56</ele>
        <time>2022-07-13T09:01:29Z</time>
      </trkpt>
      <trkpt lat="47.140920041128993" lon="-0.16060003079474">
        <ele>55</ele>
        <time>2022-07-13T09:01:31Z</time>
      </trkpt>
      <trkpt lat="47.140900008380413" lon="-0.160570023581386">
        <ele>56</ele>
        <time>2022-07-13T09:01:34Z</time>
      </trkpt>
      <trkpt lat="47.140870001167059" lon="-0.160530041903257">
        <ele>55</ele>
        <time>2022-07-13T09:01:37Z</time>
      </trkpt>
      <trkpt lat="47.140860026702285" lon="-0.160489976406097">
        <ele>55</ele>
        <time>2022-07-13T09:01:45Z</time>
      </trkpt>
      <trkpt lat="47.140860026702285" lon="-0.160449994727969">
        <ele>56</ele>
        <time>2022-07-13T09:01:47Z</time>
      </trkpt>
      <trkpt lat="47.140860026702285" lon="-0.160400038585067">
        <ele>56</ele>
        <time>2022-07-13T09:01:49Z</time>
      </trkpt>
      <trkpt lat="47.140860026702285" lon="-0.160359973087907">
        <ele>55</ele>
        <time>2022-07-13T09:01:51Z</time>
      </trkpt>
      <trkpt lat="47.140860026702285" lon="-0.160310016945004">
        <ele>55</ele>
        <time>2022-07-13T09:01:54Z</time>
      </trkpt>
      <trkpt lat="47.140849968418479" lon="-0.160270035266876">
        <ele>55</ele>
        <time>2022-07-13T09:01:56Z</time>
      </trkpt>
      <trkpt lat="47.140830019488931" lon="-0.160240028053522">
        <ele>55</ele>
        <time>2022-07-13T09:01:58Z</time>
      </trkpt>
      <trkpt lat="47.140800012275577" lon="-0.160189988091588">
        <ele>54</ele>
        <time>2022-07-13T09:02:01Z</time>
      </trkpt>
      <trkpt lat="47.140770005062222" lon="-0.160159980878234">
        <ele>54</ele>
        <time>2022-07-13T09:02:04Z</time>
      </trkpt>
      <trkpt lat="47.140749972313643" lon="-0.160119999200106">
        <ele>54</ele>
        <time>2022-07-13T09:02:07Z</time>
      </trkpt>
      <trkpt lat="47.140719965100288" lon="-0.160099966451526">
        <ele>55</ele>
        <time>2022-07-13T09:02:10Z</time>
      </trkpt>
      <trkpt lat="47.140690041705966" lon="-0.160069959238172">
        <ele>55</ele>
        <time>2022-07-13T09:02:12Z</time>
      </trkpt>
      <trkpt lat="47.140670008957386" lon="-0.160029977560043">
        <ele>55</ele>
        <time>2022-07-13T09:02:15Z</time>
      </trkpt>
      <trkpt lat="47.140640001744032" lon="-0.159989995881915">
        <ele>56</ele>
        <time>2022-07-13T09:02:18Z</time>
      </trkpt>
      <trkpt lat="47.140619968995452" lon="-0.159959988668561">
        <ele>56</ele>
        <time>2022-07-13T09:02:21Z</time>
      </trkpt>
      <trkpt lat="47.140589961782098" lon="-0.159929981455207">
        <ele>56</ele>
        <time>2022-07-13T09:02:24Z</time>
      </trkpt>
      <trkpt lat="47.140560038387775" lon="-0.159889999777079">
        <ele>56</ele>
        <time>2022-07-13T09:02:27Z</time>
      </trkpt>
      <trkpt lat="47.140530031174421" lon="-0.159859992563725">
        <ele>57</ele>
        <time>2022-07-13T09:02:33Z</time>
      </trkpt>
      <trkpt lat="47.140500023961067" lon="-0.15982998535037">
        <ele>58</ele>
        <time>2022-07-13T09:02:36Z</time>
      </trkpt>
      <trkpt lat="47.140479991212487" lon="-0.159790003672242">
        <ele>56</ele>
        <time>2022-07-13T09:02:39Z</time>
      </trkpt>
      <trkpt lat="47.140479991212487" lon="-0.159759996458888">
        <ele>56</ele>
        <time>2022-07-13T09:02:41Z</time>
      </trkpt>
      <trkpt lat="47.140489965677261" lon="-0.15972001478076">
        <ele>55</ele>
        <time>2022-07-13T09:02:43Z</time>
      </trkpt>
      <trkpt lat="47.140509998425841" lon="-0.159669974818826">
        <ele>55</ele>
        <time>2022-07-13T09:02:45Z</time>
      </trkpt>
      <trkpt lat="47.140540005639195" lon="-0.159629993140697">
        <ele>55</ele>
        <time>2022-07-13T09:02:47Z</time>
      </trkpt>
      <trkpt lat="47.140560038387775" lon="-0.159590011462569">
        <ele>54</ele>
        <time>2022-07-13T09:02:48Z</time>
      </trkpt>
      <trkpt lat="47.140579987317324" lon="-0.159560004249215">
        <ele>54</ele>
        <time>2022-07-13T09:02:49Z</time>
      </trkpt>
      <trkpt lat="47.140600020065904" lon="-0.159509964287281">
        <ele>53</ele>
        <time>2022-07-13T09:02:51Z</time>
      </trkpt>
      <trkpt lat="47.140630027279258" lon="-0.159450033679605">
        <ele>53</ele>
        <time>2022-07-13T09:02:53Z</time>
      </trkpt>
      <trkpt lat="47.140649976208806" lon="-0.159390019252896">
        <ele>53</ele>
        <time>2022-07-13T09:02:55Z</time>
      </trkpt>
      <trkpt lat="47.140670008957386" lon="-0.159330004826188">
        <ele>53</ele>
        <time>2022-07-13T09:02:57Z</time>
      </trkpt>
      <trkpt lat="47.140690041705966" lon="-0.15929002314806">
        <ele>53</ele>
        <time>2022-07-13T09:02:58Z</time>
      </trkpt>
      <trkpt lat="47.140709990635514" lon="-0.159239983186126">
        <ele>53</ele>
        <time>2022-07-13T09:03:00Z</time>
      </trkpt>
      <trkpt lat="47.140749972313643" lon="-0.159190027043223">
        <ele>52</ele>
        <time>2022-07-13T09:03:02Z</time>
      </trkpt>
      <trkpt lat="47.140779979526997" lon="-0.159139987081289">
        <ele>52</ele>
        <time>2022-07-13T09:03:04Z</time>
      </trkpt>
      <trkpt lat="47.140800012275577" lon="-0.159079972654581">
        <ele>52</ele>
        <time>2022-07-13T09:03:06Z</time>
      </trkpt>
      <trkpt lat="47.140830019488931" lon="-0.159030016511679">
        <ele>52</ele>
        <time>2022-07-13T09:03:08Z</time>
      </trkpt>
      <trkpt lat="47.140849968418479" lon="-0.158979976549745">
        <ele>51</ele>
        <time>2022-07-13T09:03:10Z</time>
      </trkpt>
      <trkpt lat="47.140870001167059" lon="-0.158939994871616">
        <ele>51</ele>
        <time>2022-07-13T09:03:12Z</time>
      </trkpt>
      <trkpt lat="47.140870001167059" lon="-0.158890038728714">
        <ele>51</ele>
        <time>2022-07-13T09:03:14Z</time>
      </trkpt>
      <trkpt lat="47.140870001167059" lon="-0.158849973231554">
        <ele>52</ele>
        <time>2022-07-13T09:03:16Z</time>
      </trkpt>
      <trkpt lat="47.140849968418479" lon="-0.158809991553426">
        <ele>52</ele>
        <time>2022-07-13T09:03:18Z</time>
      </trkpt>
      <trkpt lat="47.140839993953705" lon="-0.158760035410523">
        <ele>54</ele>
        <time>2022-07-13T09:03:22Z</time>
      </trkpt>
      <trkpt lat="47.140860026702285" lon="-0.158709995448589">
        <ele>55</ele>
        <time>2022-07-13T09:03:24Z</time>
      </trkpt>
      <trkpt lat="47.140879975631833" lon="-0.158670013770461">
        <ele>56</ele>
        <time>2022-07-13T09:03:26Z</time>
      </trkpt>
      <trkpt lat="47.140900008380413" lon="-0.158609999343753">
        <ele>57</ele>
        <time>2022-07-13T09:03:28Z</time>
      </trkpt>
      <trkpt lat="47.140939990058541" lon="-0.158559959381819">
        <ele>57</ele>
        <time>2022-07-13T09:03:30Z</time>
      </trkpt>
      <trkpt lat="47.140960022807121" lon="-0.158519977703691">
        <ele>58</ele>
        <time>2022-07-13T09:03:31Z</time>
      </trkpt>
      <trkpt lat="47.140990030020475" lon="-0.158470021560788">
        <ele>58</ele>
        <time>2022-07-13T09:03:33Z</time>
      </trkpt>
      <trkpt lat="47.141009978950024" lon="-0.15843003988266">
        <ele>58</ele>
        <time>2022-07-13T09:03:34Z</time>
      </trkpt>
      <trkpt lat="47.141030011698604" lon="-0.158379999920726">
        <ele>58</ele>
        <time>2022-07-13T09:03:36Z</time>
      </trkpt>
      <trkpt lat="47.141060018911958" lon="-0.158329959958792">
        <ele>58</ele>
        <time>2022-07-13T09:03:38Z</time>
      </trkpt>
      <trkpt lat="47.141079967841506" lon="-0.158270029351115">
        <ele>58</ele>
        <time>2022-07-13T09:03:40Z</time>
      </trkpt>
      <trkpt lat="47.14110997505486" lon="-0.158229963853955">
        <ele>58</ele>
        <time>2022-07-13T09:03:42Z</time>
      </trkpt>
      <trkpt lat="47.14113000780344" lon="-0.158180007711053">
        <ele>58</ele>
        <time>2022-07-13T09:03:44Z</time>
      </trkpt>
      <trkpt lat="47.14115004055202" lon="-0.158140026032925">
        <ele>58</ele>
        <time>2022-07-13T09:03:46Z</time>
      </trkpt>
      <trkpt lat="47.141179963946342" lon="-0.158110018819571">
        <ele>58</ele>
        <time>2022-07-13T09:03:49Z</time>
      </trkpt>
      <trkpt lat="47.141209971159697" lon="-0.158080011606216">
        <ele>59</ele>
        <time>2022-07-13T09:03:53Z</time>
      </trkpt>
      <trkpt lat="47.141220029443502" lon="-0.158029971644282">
        <ele>59</ele>
        <time>2022-07-13T09:04:06Z</time>
      </trkpt>
      <trkpt lat="47.141239978373051" lon="-0.157989989966154">
        <ele>59</ele>
        <time>2022-07-13T09:04:09Z</time>
      </trkpt>
      <trkpt lat="47.141260011121631" lon="-0.1579599827528">
        <ele>58</ele>
        <time>2022-07-13T09:04:11Z</time>
      </trkpt>
      <trkpt lat="47.141279960051179" lon="-0.157920001074672">
        <ele>57</ele>
        <time>2022-07-13T09:04:13Z</time>
      </trkpt>
      <trkpt lat="47.141299992799759" lon="-0.157889993861318">
        <ele>57</ele>
        <time>2022-07-13T09:04:15Z</time>
      </trkpt>
      <trkpt lat="47.141320025548339" lon="-0.157850012183189">
        <ele>57</ele>
        <time>2022-07-13T09:04:17Z</time>
      </trkpt>
      <trkpt lat="47.141330000013113" lon="-0.157820004969835">
        <ele>57</ele>
        <time>2022-07-13T09:04:19Z</time>
      </trkpt>
      <trkpt lat="47.141350032761693" lon="-0.157780023291707">
        <ele>56</ele>
        <time>2022-07-13T09:04:21Z</time>
      </trkpt>
      <trkpt lat="47.141380039975047" lon="-0.157740041613579">
        <ele>56</ele>
        <time>2022-07-13T09:04:24Z</time>
      </trkpt>
      <trkpt lat="47.141399988904595" lon="-0.157699976116419">
        <ele>56</ele>
        <time>2022-07-13T09:04:26Z</time>
      </trkpt>
      <trkpt lat="47.141420021653175" lon="-0.157659994438291">
        <ele>55</ele>
        <time>2022-07-13T09:04:28Z</time>
      </trkpt>
      <trkpt lat="47.141439970582724" lon="-0.157620012760162">
        <ele>55</ele>
        <time>2022-07-13T09:04:31Z</time>
      </trkpt>
      <trkpt lat="47.141469977796078" lon="-0.157580031082034">
        <ele>55</ele>
        <time>2022-07-13T09:04:33Z</time>
      </trkpt>
      <trkpt lat="47.141490010544658" lon="-0.1575299911201">
        <ele>55</ele>
        <time>2022-07-13T09:04:36Z</time>
      </trkpt>
      <trkpt lat="47.141490010544658" lon="-0.157480034977198">
        <ele>55</ele>
        <time>2022-07-13T09:04:38Z</time>
      </trkpt>
      <trkpt lat="47.141469977796078" lon="-0.157439969480038">
        <ele>54</ele>
        <time>2022-07-13T09:04:40Z</time>
      </trkpt>
      <trkpt lat="47.141450028866529" lon="-0.157409962266684">
        <ele>53</ele>
        <time>2022-07-13T09:04:42Z</time>
      </trkpt>
      <trkpt lat="47.141420021653175" lon="-0.157369980588555">
        <ele>53</ele>
        <time>2022-07-13T09:04:44Z</time>
      </trkpt>
      <trkpt lat="47.141399988904595" lon="-0.157339973375201">
        <ele>52</ele>
        <time>2022-07-13T09:04:47Z</time>
      </trkpt>
      <trkpt lat="47.141380039975047" lon="-0.157290017232299">
        <ele>52</ele>
        <time>2022-07-13T09:04:50Z</time>
      </trkpt>
      <trkpt lat="47.141369981691241" lon="-0.157250035554171">
        <ele>52</ele>
        <time>2022-07-13T09:04:53Z</time>
      </trkpt>
      <trkpt lat="47.141360007226467" lon="-0.157209970057011">
        <ele>52</ele>
        <time>2022-07-13T09:04:55Z</time>
      </trkpt>
      <trkpt lat="47.141339974477887" lon="-0.157150039449334">
        <ele>52</ele>
        <time>2022-07-13T09:04:58Z</time>
      </trkpt>
      <trkpt lat="47.141320025548339" lon="-0.157109973952174">
        <ele>51</ele>
        <time>2022-07-13T09:05:00Z</time>
      </trkpt>
      <trkpt lat="47.141309967264533" lon="-0.15707996673882">
        <ele>51</ele>
        <time>2022-07-13T09:05:02Z</time>
      </trkpt>
      <trkpt lat="47.141279960051179" lon="-0.157049959525466">
        <ele>52</ele>
        <time>2022-07-13T09:05:05Z</time>
      </trkpt>
      <trkpt lat="47.141290018334985" lon="-0.157030010595918">
        <ele>52</ele>
        <time>2022-07-13T09:05:15Z</time>
      </trkpt>
      <trkpt lat="47.141320025548339" lon="-0.157030010595918">
        <ele>53</ele>
        <time>2022-07-13T09:05:21Z</time>
      </trkpt>
      <trkpt lat="47.141339974477887" lon="-0.157060017809272">
        <ele>53</ele>
        <time>2022-07-13T09:05:23Z</time>
      </trkpt>
      <trkpt lat="47.141360007226467" lon="-0.157090025022626">
        <ele>53</ele>
        <time>2022-07-13T09:05:26Z</time>
      </trkpt>
      <trkpt lat="47.141380039975047" lon="-0.157130006700754">
        <ele>53</ele>
        <time>2022-07-13T09:05:29Z</time>
      </trkpt>
      <trkpt lat="47.14140996336937" lon="-0.157160013914108">
        <ele>53</ele>
        <time>2022-07-13T09:05:32Z</time>
      </trkpt>
      <trkpt lat="47.141429996117949" lon="-0.157160013914108">
        <ele>54</ele>
        <time>2022-07-13T09:05:44Z</time>
      </trkpt>
      <trkpt lat="47.141460003331304" lon="-0.157139981165528">
        <ele>54</ele>
        <time>2022-07-13T09:05:47Z</time>
      </trkpt>
      <trkpt lat="47.141490010544658" lon="-0.157130006700754">
        <ele>55</ele>
        <time>2022-07-13T09:05:50Z</time>
      </trkpt>
      <trkpt lat="47.141509959474206" lon="-0.157130006700754">
        <ele>55</ele>
        <time>2022-07-13T09:05:52Z</time>
      </trkpt>
      <trkpt lat="47.14153996668756" lon="-0.157160013914108">
        <ele>54</ele>
        <time>2022-07-13T09:05:54Z</time>
      </trkpt>
      <trkpt lat="47.14155999943614" lon="-0.157190021127462">
        <ele>54</ele>
        <time>2022-07-13T09:05:56Z</time>
      </trkpt>
      <trkpt lat="47.14158003218472" lon="-0.157230002805591">
        <ele>54</ele>
        <time>2022-07-13T09:05:59Z</time>
      </trkpt>
      <trkpt lat="47.141610039398074" lon="-0.157260010018945">
        <ele>54</ele>
        <time>2022-07-13T09:06:01Z</time>
      </trkpt>
      <trkpt lat="47.141629988327622" lon="-0.157290017232299">
        <ele>54</ele>
        <time>2022-07-13T09:06:03Z</time>
      </trkpt>
      <trkpt lat="47.141620013862848" lon="-0.157290017232299">
        <ele>55</ele>
        <time>2022-07-13T09:06:22Z</time>
      </trkpt>
      <trkpt lat="47.141599981114268" lon="-0.157260010018945">
        <ele>54</ele>
        <time>2022-07-13T09:06:25Z</time>
      </trkpt>
      <trkpt lat="47.141569973900914" lon="-0.157230002805591">
        <ele>54</ele>
        <time>2022-07-13T09:06:28Z</time>
      </trkpt>
      <trkpt lat="47.141550024971366" lon="-0.157190021127462">
        <ele>53</ele>
        <time>2022-07-13T09:06:30Z</time>
      </trkpt>
      <trkpt lat="47.141520017758012" lon="-0.157160013914108">
        <ele>53</ele>
        <time>2022-07-13T09:06:33Z</time>
      </trkpt>
      <trkpt lat="47.141490010544658" lon="-0.157160013914108">
        <ele>53</ele>
        <time>2022-07-13T09:06:37Z</time>
      </trkpt>
      <trkpt lat="47.141480036079884" lon="-0.157190021127462">
        <ele>53</ele>
        <time>2022-07-13T09:06:40Z</time>
      </trkpt>
      <trkpt lat="47.141480036079884" lon="-0.157230002805591">
        <ele>54</ele>
        <time>2022-07-13T09:06:44Z</time>
      </trkpt>
      <trkpt lat="47.141480036079884" lon="-0.157269984483719">
        <ele>55</ele>
        <time>2022-07-13T09:06:47Z</time>
      </trkpt>
      <trkpt lat="47.141480036079884" lon="-0.157309966161847">
        <ele>55</ele>
        <time>2022-07-13T09:06:49Z</time>
      </trkpt>
      <trkpt lat="47.141469977796078" lon="-0.157360006123781">
        <ele>55</ele>
        <time>2022-07-13T09:06:51Z</time>
      </trkpt>
      <trkpt lat="47.141690002754331" lon="-0.157460002228618">
        <ele>44</ele>
        <time>2022-07-13T09:07:19Z</time>
      </trkpt>
      <trkpt lat="47.141739958897233" lon="-0.157380038872361">
        <ele>43</ele>
        <time>2022-07-13T09:07:20Z</time>
      </trkpt>
      <trkpt lat="47.141690002754331" lon="-0.157369980588555">
        <ele>45</ele>
        <time>2022-07-13T09:07:21Z</time>
      </trkpt>
      <trkpt lat="47.141639962792397" lon="-0.157329998910427">
        <ele>46</ele>
        <time>2022-07-13T09:07:22Z</time>
      </trkpt>
      <trkpt lat="47.141610039398074" lon="-0.157299991697073">
        <ele>49</ele>
        <time>2022-07-13T09:07:23Z</time>
      </trkpt>
      <trkpt lat="47.141569973900914" lon="-0.157290017232299">
        <ele>52</ele>
        <time>2022-07-13T09:07:33Z</time>
      </trkpt>
      <trkpt lat="47.141550024971366" lon="-0.157320024445653">
        <ele>53</ele>
        <time>2022-07-13T09:07:37Z</time>
      </trkpt>
      <trkpt lat="47.141529992222786" lon="-0.157369980588555">
        <ele>58</ele>
        <time>2022-07-13T09:07:39Z</time>
      </trkpt>
      <trkpt lat="47.141509959474206" lon="-0.157420020550489">
        <ele>61</ele>
        <time>2022-07-13T09:07:40Z</time>
      </trkpt>
      <trkpt lat="47.141490010544658" lon="-0.157480034977198">
        <ele>65</ele>
        <time>2022-07-13T09:07:41Z</time>
      </trkpt>
      <trkpt lat="47.141480036079884" lon="-0.157539965584874">
        <ele>70</ele>
        <time>2022-07-13T09:07:42Z</time>
      </trkpt>
      <trkpt lat="47.141469977796078" lon="-0.157599980011582">
        <ele>76</ele>
        <time>2022-07-13T09:07:43Z</time>
      </trkpt>
      <trkpt lat="47.141480036079884" lon="-0.157659994438291">
        <ele>81</ele>
        <time>2022-07-13T09:07:44Z</time>
      </trkpt>
      <trkpt lat="47.141499985009432" lon="-0.157699976116419">
        <ele>85</ele>
        <time>2022-07-13T09:07:45Z</time>
      </trkpt>
      <trkpt lat="47.141520017758012" lon="-0.157740041613579">
        <ele>89</ele>
        <time>2022-07-13T09:07:46Z</time>
      </trkpt>
      <trkpt lat="47.141550024971366" lon="-0.157759990543127">
        <ele>91</ele>
        <time>2022-07-13T09:07:47Z</time>
      </trkpt>
      <trkpt lat="47.14158003218472" lon="-0.157759990543127">
        <ele>92</ele>
        <time>2022-07-13T09:07:48Z</time>
      </trkpt>
      <trkpt lat="47.141620013862848" lon="-0.157759990543127">
        <ele>89</ele>
        <time>2022-07-13T09:07:49Z</time>
      </trkpt>
      <trkpt lat="47.141659995540977" lon="-0.157769965007901">
        <ele>87</ele>
        <time>2022-07-13T09:07:50Z</time>
      </trkpt>
      <trkpt lat="47.141690002754331" lon="-0.157780023291707">
        <ele>86</ele>
        <time>2022-07-13T09:07:51Z</time>
      </trkpt>
      <trkpt lat="47.141720009967685" lon="-0.157769965007901">
        <ele>86</ele>
        <time>2022-07-13T09:07:53Z</time>
      </trkpt>
      <trkpt lat="47.141780024394393" lon="-0.157720008864999">
        <ele>86</ele>
        <time>2022-07-13T09:07:56Z</time>
      </trkpt>
      <trkpt lat="47.141829980537295" lon="-0.157710034400225">
        <ele>84</ele>
        <time>2022-07-13T09:07:59Z</time>
      </trkpt>
      <trkpt lat="47.141859987750649" lon="-0.157620012760162">
        <ele>77</ele>
        <time>2022-07-13T09:08:04Z</time>
      </trkpt>
      <trkpt lat="47.141840038821101" lon="-0.157580031082034">
        <ele>72</ele>
        <time>2022-07-13T09:08:05Z</time>
      </trkpt>
      <trkpt lat="47.141840038821101" lon="-0.1575299911201">
        <ele>74</ele>
        <time>2022-07-13T09:08:07Z</time>
      </trkpt>
      <trkpt lat="47.141810031607747" lon="-0.157460002228618">
        <ele>71</ele>
        <time>2022-07-13T09:08:08Z</time>
      </trkpt>
      <trkpt lat="47.141690002754331" lon="-0.157350031659007">
        <ele>65</ele>
        <time>2022-07-13T09:08:09Z</time>
      </trkpt>
      <trkpt lat="47.14158003218472" lon="-0.157320024445653">
        <ele>61</ele>
        <time>2022-07-13T09:08:10Z</time>
      </trkpt>
      <trkpt lat="47.141490010544658" lon="-0.157279958948493">
        <ele>58</ele>
        <time>2022-07-13T09:08:11Z</time>
      </trkpt>
      <trkpt lat="47.141429996117949" lon="-0.157239977270365">
        <ele>59</ele>
        <time>2022-07-13T09:08:12Z</time>
      </trkpt>
      <trkpt lat="47.141390014439821" lon="-0.157220028340817">
        <ele>59</ele>
        <time>2022-07-13T09:08:17Z</time>
      </trkpt>
      <trkpt lat="47.141369981691241" lon="-0.157239977270365">
        <ele>56</ele>
        <time>2022-07-13T09:08:20Z</time>
      </trkpt>
      <trkpt lat="47.141369981691241" lon="-0.157269984483719">
        <ele>53</ele>
        <time>2022-07-13T09:08:22Z</time>
      </trkpt>
      <trkpt lat="47.141380039975047" lon="-0.157309966161847">
        <ele>51</ele>
        <time>2022-07-13T09:08:24Z</time>
      </trkpt>
      <trkpt lat="47.141399988904595" lon="-0.157329998910427">
        <ele>50</ele>
        <time>2022-07-13T09:08:26Z</time>
      </trkpt>
      <trkpt lat="47.141429996117949" lon="-0.157360006123781">
        <ele>48</ele>
        <time>2022-07-13T09:08:28Z</time>
      </trkpt>
      <trkpt lat="47.141450028866529" lon="-0.157399987801909">
        <ele>47</ele>
        <time>2022-07-13T09:08:30Z</time>
      </trkpt>
      <trkpt lat="47.141480036079884" lon="-0.157429995015264">
        <ele>47</ele>
        <time>2022-07-13T09:08:33Z</time>
      </trkpt>
      <trkpt lat="47.141509959474206" lon="-0.157429995015264">
        <ele>47</ele>
        <time>2022-07-13T09:08:35Z</time>
      </trkpt>
      <trkpt lat="47.14153996668756" lon="-0.157409962266684">
        <ele>47</ele>
        <time>2022-07-13T09:08:37Z</time>
      </trkpt>
      <trkpt lat="47.14155999943614" lon="-0.157380038872361">
        <ele>47</ele>
        <time>2022-07-13T09:08:39Z</time>
      </trkpt>
      <trkpt lat="47.141590006649494" lon="-0.157360006123781">
        <ele>47</ele>
        <time>2022-07-13T09:08:41Z</time>
      </trkpt>
      <trkpt lat="47.141610039398074" lon="-0.157329998910427">
        <ele>47</ele>
        <time>2022-07-13T09:08:43Z</time>
      </trkpt>
      <trkpt lat="47.141639962792397" lon="-0.157320024445653">
        <ele>47</ele>
        <time>2022-07-13T09:08:45Z</time>
      </trkpt>
      <trkpt lat="47.141669970005751" lon="-0.157329998910427">
        <ele>47</ele>
        <time>2022-07-13T09:08:48Z</time>
      </trkpt>
      <trkpt lat="47.141699977219105" lon="-0.157360006123781">
        <ele>47</ele>
        <time>2022-07-13T09:08:50Z</time>
      </trkpt>
      <trkpt lat="47.141720009967685" lon="-0.157399987801909">
        <ele>47</ele>
        <time>2022-07-13T09:08:52Z</time>
      </trkpt>
      <trkpt lat="47.141750017181039" lon="-0.157429995015264">
        <ele>46</ele>
        <time>2022-07-13T09:08:55Z</time>
      </trkpt>
      <trkpt lat="47.141780024394393" lon="-0.157460002228618">
        <ele>47</ele>
        <time>2022-07-13T09:08:58Z</time>
      </trkpt>
      <trkpt lat="47.141799973323941" lon="-0.157490009441972">
        <ele>46</ele>
        <time>2022-07-13T09:09:00Z</time>
      </trkpt>
      <trkpt lat="47.141829980537295" lon="-0.157520016655326">
        <ele>46</ele>
        <time>2022-07-13T09:09:03Z</time>
      </trkpt>
      <trkpt lat="47.141850013285875" lon="-0.157559998333454">
        <ele>46</ele>
        <time>2022-07-13T09:09:05Z</time>
      </trkpt>
      <trkpt lat="47.141869962215424" lon="-0.157590005546808">
        <ele>46</ele>
        <time>2022-07-13T09:09:07Z</time>
      </trkpt>
      <trkpt lat="47.141899969428778" lon="-0.157620012760162">
        <ele>47</ele>
        <time>2022-07-13T09:09:09Z</time>
      </trkpt>
      <trkpt lat="47.141920002177358" lon="-0.157650019973516">
        <ele>47</ele>
        <time>2022-07-13T09:09:11Z</time>
      </trkpt>
      <trkpt lat="47.141940034925938" lon="-0.157680027186871">
        <ele>47</ele>
        <time>2022-07-13T09:09:13Z</time>
      </trkpt>
      <trkpt lat="47.14196995832026" lon="-0.157710034400225">
        <ele>47</ele>
        <time>2022-07-13T09:09:15Z</time>
      </trkpt>
      <trkpt lat="47.141999965533614" lon="-0.157729983329773">
        <ele>47</ele>
        <time>2022-07-13T09:09:17Z</time>
      </trkpt>
      <trkpt lat="47.142019998282194" lon="-0.157759990543127">
        <ele>48</ele>
        <time>2022-07-13T09:09:19Z</time>
      </trkpt>
      <trkpt lat="47.142050005495548" lon="-0.157789997756481">
        <ele>48</ele>
        <time>2022-07-13T09:09:21Z</time>
      </trkpt>
      <trkpt lat="47.142070038244128" lon="-0.157810030505061">
        <ele>48</ele>
        <time>2022-07-13T09:09:23Z</time>
      </trkpt>
      <trkpt lat="47.142099961638451" lon="-0.157829979434609">
        <ele>48</ele>
        <time>2022-07-13T09:09:25Z</time>
      </trkpt>
      <trkpt lat="47.142129968851805" lon="-0.157859986647964">
        <ele>48</ele>
        <time>2022-07-13T09:09:28Z</time>
      </trkpt>
      <trkpt lat="47.142150001600385" lon="-0.157880019396544">
        <ele>48</ele>
        <time>2022-07-13T09:09:30Z</time>
      </trkpt>
      <trkpt lat="47.142180008813739" lon="-0.157910026609898">
        <ele>48</ele>
        <time>2022-07-13T09:09:32Z</time>
      </trkpt>
      <trkpt lat="47.142200041562319" lon="-0.157940033823252">
        <ele>48</ele>
        <time>2022-07-13T09:09:34Z</time>
      </trkpt>
      <trkpt lat="47.142229964956641" lon="-0.15798001550138">
        <ele>48</ele>
        <time>2022-07-13T09:09:36Z</time>
      </trkpt>
      <trkpt lat="47.142249997705221" lon="-0.158010022714734">
        <ele>48</ele>
        <time>2022-07-13T09:09:38Z</time>
      </trkpt>
      <trkpt lat="47.142280004918575" lon="-0.158040029928088">
        <ele>48</ele>
        <time>2022-07-13T09:09:40Z</time>
      </trkpt>
      <trkpt lat="47.142300037667155" lon="-0.158070037141442">
        <ele>49</ele>
        <time>2022-07-13T09:09:42Z</time>
      </trkpt>
      <trkpt lat="47.142329961061478" lon="-0.158099960535765">
        <ele>49</ele>
        <time>2022-07-13T09:09:44Z</time>
      </trkpt>
      <trkpt lat="47.142349993810058" lon="-0.158129967749119">
        <ele>49</ele>
        <time>2022-07-13T09:09:46Z</time>
      </trkpt>
      <trkpt lat="47.142370026558638" lon="-0.158150000497699">
        <ele>49</ele>
        <time>2022-07-13T09:09:48Z</time>
      </trkpt>
      <trkpt lat="47.142400033771992" lon="-0.158180007711053">
        <ele>49</ele>
        <time>2022-07-13T09:09:50Z</time>
      </trkpt>
      <trkpt lat="47.14241998270154" lon="-0.158219989389181">
        <ele>48</ele>
        <time>2022-07-13T09:09:52Z</time>
      </trkpt>
      <trkpt lat="47.14244001545012" lon="-0.158240022137761">
        <ele>48</ele>
        <time>2022-07-13T09:09:54Z</time>
      </trkpt>
      <trkpt lat="47.142459964379668" lon="-0.158270029351115">
        <ele>47</ele>
        <time>2022-07-13T09:09:56Z</time>
      </trkpt>
      <trkpt lat="47.142489971593022" lon="-0.158289978280663">
        <ele>47</ele>
        <time>2022-07-13T09:09:58Z</time>
      </trkpt>
      <trkpt lat="47.142510004341602" lon="-0.158319985494018">
        <ele>47</ele>
        <time>2022-07-13T09:10:00Z</time>
      </trkpt>
      <trkpt lat="47.142540011554956" lon="-0.158349992707372">
        <ele>47</ele>
        <time>2022-07-13T09:10:02Z</time>
      </trkpt>
      <trkpt lat="47.142559960484505" lon="-0.1583899743855">
        <ele>47</ele>
        <time>2022-07-13T09:10:04Z</time>
      </trkpt>
      <trkpt lat="47.142579993233085" lon="-0.15841000713408">
        <ele>47</ele>
        <time>2022-07-13T09:10:06Z</time>
      </trkpt>
      <trkpt lat="47.142610000446439" lon="-0.15843003988266">
        <ele>47</ele>
        <time>2022-07-13T09:10:08Z</time>
      </trkpt>
      <trkpt lat="47.142630033195019" lon="-0.158459963276982">
        <ele>47</ele>
        <time>2022-07-13T09:10:10Z</time>
      </trkpt>
      <trkpt lat="47.142660040408373" lon="-0.158489970490336">
        <ele>47</ele>
        <time>2022-07-13T09:10:12Z</time>
      </trkpt>
      <trkpt lat="47.142679989337921" lon="-0.158519977703691">
        <ele>48</ele>
        <time>2022-07-13T09:10:14Z</time>
      </trkpt>
      <trkpt lat="47.142700022086501" lon="-0.158549984917045">
        <ele>48</ele>
        <time>2022-07-13T09:10:16Z</time>
      </trkpt>
      <trkpt lat="47.142730029299855" lon="-0.158579992130399">
        <ele>49</ele>
        <time>2022-07-13T09:10:18Z</time>
      </trkpt>
      <trkpt lat="47.142749978229403" lon="-0.158609999343753">
        <ele>49</ele>
        <time>2022-07-13T09:10:20Z</time>
      </trkpt>
      <trkpt lat="47.142779985442758" lon="-0.158630032092333">
        <ele>49</ele>
        <time>2022-07-13T09:10:23Z</time>
      </trkpt>
      <trkpt lat="47.142800018191338" lon="-0.158660039305687">
        <ele>49</ele>
        <time>2022-07-13T09:10:25Z</time>
      </trkpt>
      <trkpt lat="47.142830025404692" lon="-0.158679988235235">
        <ele>49</ele>
        <time>2022-07-13T09:10:27Z</time>
      </trkpt>
      <trkpt lat="47.142860032618046" lon="-0.158709995448589">
        <ele>50</ele>
        <time>2022-07-13T09:10:30Z</time>
      </trkpt>
      <trkpt lat="47.1428900398314" lon="-0.158730028197169">
        <ele>50</ele>
        <time>2022-07-13T09:10:33Z</time>
      </trkpt>
      <trkpt lat="47.142919963225722" lon="-0.158760035410523">
        <ele>51</ele>
        <time>2022-07-13T09:10:35Z</time>
      </trkpt>
      <trkpt lat="47.142949970439076" lon="-0.158779984340072">
        <ele>52</ele>
        <time>2022-07-13T09:10:37Z</time>
      </trkpt>
      <trkpt lat="47.142990035936236" lon="-0.158800017088652">
        <ele>52</ele>
        <time>2022-07-13T09:10:39Z</time>
      </trkpt>
      <trkpt lat="47.143030017614365" lon="-0.158830024302006">
        <ele>52</ele>
        <time>2022-07-13T09:10:41Z</time>
      </trkpt>
      <trkpt lat="47.143079973757267" lon="-0.158849973231554">
        <ele>52</ele>
        <time>2022-07-13T09:10:43Z</time>
      </trkpt>
      <trkpt lat="47.143120039254427" lon="-0.158870005980134">
        <ele>52</ele>
        <time>2022-07-13T09:10:45Z</time>
      </trkpt>
      <trkpt lat="47.143160020932555" lon="-0.158890038728714">
        <ele>52</ele>
        <time>2022-07-13T09:10:47Z</time>
      </trkpt>
      <trkpt lat="47.143200002610683" lon="-0.158909987658262">
        <ele>51</ele>
        <time>2022-07-13T09:10:49Z</time>
      </trkpt>
      <trkpt lat="47.143239984288812" lon="-0.158930020406842">
        <ele>51</ele>
        <time>2022-07-13T09:10:51Z</time>
      </trkpt>
      <trkpt lat="47.143290024250746" lon="-0.158949969336391">
        <ele>51</ele>
        <time>2022-07-13T09:10:53Z</time>
      </trkpt>
      <trkpt lat="47.143330005928874" lon="-0.158960027620196">
        <ele>51</ele>
        <time>2022-07-13T09:10:55Z</time>
      </trkpt>
      <trkpt lat="47.143379962071776" lon="-0.15897000208497">
        <ele>51</ele>
        <time>2022-07-13T09:10:57Z</time>
      </trkpt>
      <trkpt lat="47.14343000203371" lon="-0.15899003483355">
        <ele>51</ele>
        <time>2022-07-13T09:10:59Z</time>
      </trkpt>
      <trkpt lat="47.143479958176613" lon="-0.159000009298325">
        <ele>51</ele>
        <time>2022-07-13T09:11:01Z</time>
      </trkpt>
      <trkpt lat="47.143520023673773" lon="-0.159019958227873">
        <ele>51</ele>
        <time>2022-07-13T09:11:03Z</time>
      </trkpt>
      <trkpt lat="47.143550030887127" lon="-0.159019958227873">
        <ele>51</ele>
        <time>2022-07-13T09:11:05Z</time>
      </trkpt>
      <trkpt lat="47.143580038100481" lon="-0.159039990976453">
        <ele>51</ele>
        <time>2022-07-13T09:11:08Z</time>
      </trkpt>
      <trkpt lat="47.143609961494803" lon="-0.159049965441227">
        <ele>51</ele>
        <time>2022-07-13T09:11:10Z</time>
      </trkpt>
      <trkpt lat="47.143639968708158" lon="-0.159060023725033">
        <ele>51</ele>
        <time>2022-07-13T09:11:12Z</time>
      </trkpt>
      <trkpt lat="47.143669975921512" lon="-0.159060023725033">
        <ele>51</ele>
        <time>2022-07-13T09:11:14Z</time>
      </trkpt>
      <trkpt lat="47.143699983134866" lon="-0.159049965441227">
        <ele>51</ele>
        <time>2022-07-13T09:11:16Z</time>
      </trkpt>
      <trkpt lat="47.14372999034822" lon="-0.159030016511679">
        <ele>52</ele>
        <time>2022-07-13T09:11:18Z</time>
      </trkpt>
      <trkpt lat="47.1437500230968" lon="-0.159000009298325">
        <ele>53</ele>
        <time>2022-07-13T09:11:20Z</time>
      </trkpt>
      <trkpt lat="47.143780030310154" lon="-0.158960027620196">
        <ele>53</ele>
        <time>2022-07-13T09:11:23Z</time>
      </trkpt>
      <trkpt lat="47.143799979239702" lon="-0.158919962123036">
        <ele>53</ele>
        <time>2022-07-13T09:11:25Z</time>
      </trkpt>
      <trkpt lat="47.143820011988282" lon="-0.158879980444908">
        <ele>53</ele>
        <time>2022-07-13T09:11:27Z</time>
      </trkpt>
      <trkpt lat="47.14383996091783" lon="-0.15883999876678">
        <ele>54</ele>
        <time>2022-07-13T09:11:29Z</time>
      </trkpt>
      <trkpt lat="47.14385999366641" lon="-0.158809991553426">
        <ele>54</ele>
        <time>2022-07-13T09:11:31Z</time>
      </trkpt>
      <trkpt lat="47.14388002641499" lon="-0.158770009875298">
        <ele>54</ele>
        <time>2022-07-13T09:11:34Z</time>
      </trkpt>
      <trkpt lat="47.143910033628345" lon="-0.158730028197169">
        <ele>55</ele>
        <time>2022-07-13T09:11:36Z</time>
      </trkpt>
      <trkpt lat="47.143940040841699" lon="-0.158689962700009">
        <ele>55</ele>
        <time>2022-07-13T09:11:38Z</time>
      </trkpt>
      <trkpt lat="47.143969964236021" lon="-0.158649981021881">
        <ele>55</ele>
        <time>2022-07-13T09:11:40Z</time>
      </trkpt>
      <trkpt lat="47.143999971449375" lon="-0.158609999343753">
        <ele>55</ele>
        <time>2022-07-13T09:11:42Z</time>
      </trkpt>
      <trkpt lat="47.144029978662729" lon="-0.158549984917045">
        <ele>55</ele>
        <time>2022-07-13T09:11:44Z</time>
      </trkpt>
      <trkpt lat="47.144069960340858" lon="-0.158500028774142">
        <ele>55</ele>
        <time>2022-07-13T09:11:46Z</time>
      </trkpt>
      <trkpt lat="47.144099967554212" lon="-0.158449988812208">
        <ele>56</ele>
        <time>2022-07-13T09:11:48Z</time>
      </trkpt>
      <trkpt lat="47.144129974767566" lon="-0.15841000713408">
        <ele>56</ele>
        <time>2022-07-13T09:11:49Z</time>
      </trkpt>
      <trkpt lat="47.144150007516146" lon="-0.158370025455952">
        <ele>56</ele>
        <time>2022-07-13T09:11:50Z</time>
      </trkpt>
      <trkpt lat="47.1441800147295" lon="-0.158329959958792">
        <ele>56</ele>
        <time>2022-07-13T09:11:52Z</time>
      </trkpt>
      <trkpt lat="47.144210021942854" lon="-0.158289978280663">
        <ele>56</ele>
        <time>2022-07-13T09:11:53Z</time>
      </trkpt>
      <trkpt lat="47.144240029156208" lon="-0.158249996602535">
        <ele>56</ele>
        <time>2022-07-13T09:11:55Z</time>
      </trkpt>
      <trkpt lat="47.144270036369562" lon="-0.158200040459633">
        <ele>56</ele>
        <time>2022-07-13T09:11:57Z</time>
      </trkpt>
      <trkpt lat="47.144299959763885" lon="-0.158150000497699">
        <ele>56</ele>
        <time>2022-07-13T09:11:59Z</time>
      </trkpt>
      <trkpt lat="47.144329966977239" lon="-0.158099960535765">
        <ele>57</ele>
        <time>2022-07-13T09:12:01Z</time>
      </trkpt>
      <trkpt lat="47.144359974190593" lon="-0.158059978857636">
        <ele>58</ele>
        <time>2022-07-13T09:12:03Z</time>
      </trkpt>
      <trkpt lat="47.144389981403947" lon="-0.158019997179508">
        <ele>58</ele>
        <time>2022-07-13T09:12:05Z</time>
      </trkpt>
      <trkpt lat="47.144419988617301" lon="-0.15798001550138">
        <ele>58</ele>
        <time>2022-07-13T09:12:07Z</time>
      </trkpt>
      <trkpt lat="47.144459970295429" lon="-0.157950008288026">
        <ele>58</ele>
        <time>2022-07-13T09:12:09Z</time>
      </trkpt>
      <trkpt lat="47.144489977508783" lon="-0.157910026609898">
        <ele>59</ele>
        <time>2022-07-13T09:12:11Z</time>
      </trkpt>
      <trkpt lat="47.144519984722137" lon="-0.157859986647964">
        <ele>58</ele>
        <time>2022-07-13T09:12:13Z</time>
      </trkpt>
      <trkpt lat="47.144549991935492" lon="-0.157820004969835">
        <ele>58</ele>
        <time>2022-07-13T09:12:15Z</time>
      </trkpt>
      <trkpt lat="47.14458997361362" lon="-0.157769965007901">
        <ele>58</ele>
        <time>2022-07-13T09:12:17Z</time>
      </trkpt>
      <trkpt lat="47.144619980826974" lon="-0.157720008864999">
        <ele>58</ele>
        <time>2022-07-13T09:12:19Z</time>
      </trkpt>
      <trkpt lat="47.144659962505102" lon="-0.157669968903065">
        <ele>58</ele>
        <time>2022-07-13T09:12:21Z</time>
      </trkpt>
      <trkpt lat="47.144689969718456" lon="-0.157610038295388">
        <ele>57</ele>
        <time>2022-07-13T09:12:23Z</time>
      </trkpt>
      <trkpt lat="47.14471997693181" lon="-0.157569972798228">
        <ele>57</ele>
        <time>2022-07-13T09:12:25Z</time>
      </trkpt>
      <trkpt lat="47.144749984145164" lon="-0.157520016655326">
        <ele>56</ele>
        <time>2022-07-13T09:12:27Z</time>
      </trkpt>
      <trkpt lat="47.144789965823293" lon="-0.157460002228618">
        <ele>56</ele>
        <time>2022-07-13T09:12:29Z</time>
      </trkpt>
      <trkpt lat="47.144830031320453" lon="-0.157420020550489">
        <ele>56</ele>
        <time>2022-07-13T09:12:31Z</time>
      </trkpt>
      <trkpt lat="47.144860038533807" lon="-0.157369980588555">
        <ele>56</ele>
        <time>2022-07-13T09:12:33Z</time>
      </trkpt>
      <trkpt lat="47.144889961928129" lon="-0.157309966161847">
        <ele>56</ele>
        <time>2022-07-13T09:12:35Z</time>
      </trkpt>
      <trkpt lat="47.144930027425289" lon="-0.157269984483719">
        <ele>57</ele>
        <time>2022-07-13T09:12:37Z</time>
      </trkpt>
      <trkpt lat="47.144960034638643" lon="-0.157220028340817">
        <ele>57</ele>
        <time>2022-07-13T09:12:39Z</time>
      </trkpt>
      <trkpt lat="47.144990041851997" lon="-0.157179962843657">
        <ele>58</ele>
        <time>2022-07-13T09:12:40Z</time>
      </trkpt>
      <trkpt lat="47.14501996524632" lon="-0.157139981165528">
        <ele>58</ele>
        <time>2022-07-13T09:12:42Z</time>
      </trkpt>
      <trkpt lat="47.145049972459674" lon="-0.1570999994874">
        <ele>58</ele>
        <time>2022-07-13T09:12:44Z</time>
      </trkpt>
      <trkpt lat="47.145079979673028" lon="-0.157060017809272">
        <ele>59</ele>
        <time>2022-07-13T09:12:46Z</time>
      </trkpt>
      <trkpt lat="47.145119961351156" lon="-0.157009977847338">
        <ele>59</ele>
        <time>2022-07-13T09:12:48Z</time>
      </trkpt>
      <trkpt lat="47.14514996856451" lon="-0.15694996342063">
        <ele>59</ele>
        <time>2022-07-13T09:12:50Z</time>
      </trkpt>
      <trkpt lat="47.145179975777864" lon="-0.156900007277727">
        <ele>59</ele>
        <time>2022-07-13T09:12:52Z</time>
      </trkpt>
      <trkpt lat="47.145209982991219" lon="-0.156860025599599">
        <ele>59</ele>
        <time>2022-07-13T09:12:54Z</time>
      </trkpt>
      <trkpt lat="47.145230015739799" lon="-0.156819960102439">
        <ele>59</ele>
        <time>2022-07-13T09:12:56Z</time>
      </trkpt>
      <trkpt lat="47.145260022953153" lon="-0.156779978424311">
        <ele>59</ele>
        <time>2022-07-13T09:12:58Z</time>
      </trkpt>
      <trkpt lat="47.145300004631281" lon="-0.156739996746182">
        <ele>58</ele>
        <time>2022-07-13T09:13:00Z</time>
      </trkpt>
      <trkpt lat="47.145330011844635" lon="-0.156700015068054">
        <ele>58</ele>
        <time>2022-07-13T09:13:02Z</time>
      </trkpt>
      <trkpt lat="47.145349960774183" lon="-0.15664997510612">
        <ele>57</ele>
        <time>2022-07-13T09:13:04Z</time>
      </trkpt>
      <trkpt lat="47.145379967987537" lon="-0.156609993427992">
        <ele>56</ele>
        <time>2022-07-13T09:13:06Z</time>
      </trkpt>
      <trkpt lat="47.145409975200891" lon="-0.156560037285089">
        <ele>55</ele>
        <time>2022-07-13T09:13:08Z</time>
      </trkpt>
      <trkpt lat="47.145430007949471" lon="-0.156509997323155">
        <ele>54</ele>
        <time>2022-07-13T09:13:10Z</time>
      </trkpt>
      <trkpt lat="47.145460015162826" lon="-0.156460041180253">
        <ele>53</ele>
        <time>2022-07-13T09:13:12Z</time>
      </trkpt>
      <trkpt lat="47.14549002237618" lon="-0.156410001218319">
        <ele>53</ele>
        <time>2022-07-13T09:13:14Z</time>
      </trkpt>
      <trkpt lat="47.145509971305728" lon="-0.156359961256385">
        <ele>52</ele>
        <time>2022-07-13T09:13:16Z</time>
      </trkpt>
      <trkpt lat="47.145550036802888" lon="-0.156310005113482">
        <ele>51</ele>
        <time>2022-07-13T09:13:18Z</time>
      </trkpt>
      <trkpt lat="47.145569985732436" lon="-0.156259965151548">
        <ele>51</ele>
        <time>2022-07-13T09:13:20Z</time>
      </trkpt>
      <trkpt lat="47.145609967410564" lon="-0.156210009008646">
        <ele>51</ele>
        <time>2022-07-13T09:13:22Z</time>
      </trkpt>
      <trkpt lat="47.145639974623919" lon="-0.156170027330518">
        <ele>50</ele>
        <time>2022-07-13T09:13:24Z</time>
      </trkpt>
      <trkpt lat="47.145680040121078" lon="-0.156119987368584">
        <ele>50</ele>
        <time>2022-07-13T09:13:26Z</time>
      </trkpt>
      <trkpt lat="47.145709963515401" lon="-0.156070031225681">
        <ele>50</ele>
        <time>2022-07-13T09:13:28Z</time>
      </trkpt>
      <trkpt lat="47.145739970728755" lon="-0.156029965728521">
        <ele>49</ele>
        <time>2022-07-13T09:13:30Z</time>
      </trkpt>
      <trkpt lat="47.145769977942109" lon="-0.155980009585619">
        <ele>49</ele>
        <time>2022-07-13T09:13:32Z</time>
      </trkpt>
      <trkpt lat="47.145799985155463" lon="-0.155940027907491">
        <ele>49</ele>
        <time>2022-07-13T09:13:34Z</time>
      </trkpt>
      <trkpt lat="47.145839966833591" lon="-0.155889987945557">
        <ele>49</ele>
        <time>2022-07-13T09:13:36Z</time>
      </trkpt>
      <trkpt lat="47.145869974046946" lon="-0.155840031802654">
        <ele>49</ele>
        <time>2022-07-13T09:13:38Z</time>
      </trkpt>
      <trkpt lat="47.145910039544106" lon="-0.155799966305494">
        <ele>50</ele>
        <time>2022-07-13T09:13:40Z</time>
      </trkpt>
      <trkpt lat="47.145939962938428" lon="-0.155750010162592">
        <ele>50</ele>
        <time>2022-07-13T09:13:42Z</time>
      </trkpt>
      <trkpt lat="47.145969970151782" lon="-0.155699970200658">
        <ele>49</ele>
        <time>2022-07-13T09:13:44Z</time>
      </trkpt>
      <trkpt lat="47.145999977365136" lon="-0.155650014057755">
        <ele>50</ele>
        <time>2022-07-13T09:13:46Z</time>
      </trkpt>
      <trkpt lat="47.14602998457849" lon="-0.155610032379627">
        <ele>50</ele>
        <time>2022-07-13T09:13:48Z</time>
      </trkpt>
      <trkpt lat="47.14605001732707" lon="-0.155569966882467">
        <ele>50</ele>
        <time>2022-07-13T09:13:49Z</time>
      </trkpt>
      <trkpt lat="47.146080024540424" lon="-0.155520010739565">
        <ele>50</ele>
        <time>2022-07-13T09:13:51Z</time>
      </trkpt>
      <trkpt lat="47.146110031753778" lon="-0.155480029061437">
        <ele>51</ele>
        <time>2022-07-13T09:13:53Z</time>
      </trkpt>
      <trkpt lat="47.146140038967133" lon="-0.155439963564277">
        <ele>51</ele>
        <time>2022-07-13T09:13:55Z</time>
      </trkpt>
      <trkpt lat="47.146169962361455" lon="-0.155399981886148">
        <ele>50</ele>
        <time>2022-07-13T09:13:57Z</time>
      </trkpt>
      <trkpt lat="47.146210027858615" lon="-0.15536000020802">
        <ele>50</ele>
        <time>2022-07-13T09:13:59Z</time>
      </trkpt>
      <trkpt lat="47.146240035071969" lon="-0.155329992994666">
        <ele>49</ele>
        <time>2022-07-13T09:14:00Z</time>
      </trkpt>
      <trkpt lat="47.146269958466291" lon="-0.155290011316538">
        <ele>49</ele>
        <time>2022-07-13T09:14:02Z</time>
      </trkpt>
      <trkpt lat="47.146299965679646" lon="-0.155239971354604">
        <ele>49</ele>
        <time>2022-07-13T09:14:04Z</time>
      </trkpt>
      <trkpt lat="47.146329972893" lon="-0.155190015211701">
        <ele>49</ele>
        <time>2022-07-13T09:14:06Z</time>
      </trkpt>
      <trkpt lat="47.14637003839016" lon="-0.155139975249767">
        <ele>49</ele>
        <time>2022-07-13T09:14:08Z</time>
      </trkpt>
      <trkpt lat="47.146399961784482" lon="-0.155079960823059">
        <ele>50</ele>
        <time>2022-07-13T09:14:10Z</time>
      </trkpt>
      <trkpt lat="47.146429968997836" lon="-0.155030004680157">
        <ele>50</ele>
        <time>2022-07-13T09:14:12Z</time>
      </trkpt>
      <trkpt lat="47.14645997621119" lon="-0.154990023002028">
        <ele>50</ele>
        <time>2022-07-13T09:14:13Z</time>
      </trkpt>
      <trkpt lat="47.146489983424544" lon="-0.154939983040094">
        <ele>50</ele>
        <time>2022-07-13T09:14:15Z</time>
      </trkpt>
      <trkpt lat="47.146519990637898" lon="-0.154890026897192">
        <ele>49</ele>
        <time>2022-07-13T09:14:17Z</time>
      </trkpt>
      <trkpt lat="47.146559972316027" lon="-0.154839986935258">
        <ele>49</ele>
        <time>2022-07-13T09:14:19Z</time>
      </trkpt>
      <trkpt lat="47.146589979529381" lon="-0.15480000525713">
        <ele>49</ele>
        <time>2022-07-13T09:14:21Z</time>
      </trkpt>
      <trkpt lat="47.146619986742735" lon="-0.154749965295196">
        <ele>49</ele>
        <time>2022-07-13T09:14:23Z</time>
      </trkpt>
      <trkpt lat="47.146649993956089" lon="-0.154709983617067">
        <ele>49</ele>
        <time>2022-07-13T09:14:25Z</time>
      </trkpt>
      <trkpt lat="47.146680001169443" lon="-0.154670001938939">
        <ele>50</ele>
        <time>2022-07-13T09:14:27Z</time>
      </trkpt>
      <trkpt lat="47.146689975634217" lon="-0.154619961977005">
        <ele>50</ele>
        <time>2022-07-13T09:14:30Z</time>
      </trkpt>
      <trkpt lat="47.146700033918023" lon="-0.154570005834103">
        <ele>50</ele>
        <time>2022-07-13T09:14:32Z</time>
      </trkpt>
      <trkpt lat="47.146700033918023" lon="-0.154519965872169">
        <ele>50</ele>
        <time>2022-07-13T09:14:35Z</time>
      </trkpt>
      <trkpt lat="47.146689975634217" lon="-0.15447998419404">
        <ele>50</ele>
        <time>2022-07-13T09:14:38Z</time>
      </trkpt>
      <trkpt lat="47.146670026704669" lon="-0.154440002515912">
        <ele>50</ele>
        <time>2022-07-13T09:14:40Z</time>
      </trkpt>
      <trkpt lat="47.146640019491315" lon="-0.154409995302558">
        <ele>50</ele>
        <time>2022-07-13T09:14:42Z</time>
      </trkpt>
      <trkpt lat="47.146619986742735" lon="-0.154379988089204">
        <ele>51</ele>
        <time>2022-07-13T09:14:44Z</time>
      </trkpt>
      <trkpt lat="47.146600037813187" lon="-0.154340006411076">
        <ele>51</ele>
        <time>2022-07-13T09:14:46Z</time>
      </trkpt>
      <trkpt lat="47.146580005064607" lon="-0.154309999197721">
        <ele>52</ele>
        <time>2022-07-13T09:14:48Z</time>
      </trkpt>
      <trkpt lat="47.146549997851253" lon="-0.154270017519593">
        <ele>53</ele>
        <time>2022-07-13T09:14:50Z</time>
      </trkpt>
      <trkpt lat="47.146529965102673" lon="-0.154240010306239">
        <ele>53</ele>
        <time>2022-07-13T09:14:52Z</time>
      </trkpt>
      <trkpt lat="47.146510016173124" lon="-0.154200028628111">
        <ele>53</ele>
        <time>2022-07-13T09:14:54Z</time>
      </trkpt>
      <trkpt lat="47.14648000895977" lon="-0.154159963130951">
        <ele>52</ele>
        <time>2022-07-13T09:14:57Z</time>
      </trkpt>
      <trkpt lat="47.14645997621119" lon="-0.154119981452823">
        <ele>52</ele>
        <time>2022-07-13T09:14:59Z</time>
      </trkpt>
      <trkpt lat="47.146440027281642" lon="-0.154079999774694">
        <ele>52</ele>
        <time>2022-07-13T09:15:01Z</time>
      </trkpt>
      <trkpt lat="47.146419994533062" lon="-0.15402995981276">
        <ele>51</ele>
        <time>2022-07-13T09:15:03Z</time>
      </trkpt>
      <trkpt lat="47.146410020068288" lon="-0.153989978134632">
        <ele>51</ele>
        <time>2022-07-13T09:15:05Z</time>
      </trkpt>
      <trkpt lat="47.146410020068288" lon="-0.153949996456504">
        <ele>52</ele>
        <time>2022-07-13T09:15:07Z</time>
      </trkpt>
      <trkpt lat="47.146410020068288" lon="-0.153900040313601">
        <ele>52</ele>
        <time>2022-07-13T09:15:09Z</time>
      </trkpt>
      <trkpt lat="47.146419994533062" lon="-0.153859974816442">
        <ele>51</ele>
        <time>2022-07-13T09:15:11Z</time>
      </trkpt>
      <trkpt lat="47.146440027281642" lon="-0.153829967603087">
        <ele>51</ele>
        <time>2022-07-13T09:15:13Z</time>
      </trkpt>
      <trkpt lat="47.146470034494996" lon="-0.153810018673539">
        <ele>50</ele>
        <time>2022-07-13T09:15:15Z</time>
      </trkpt>
      <trkpt lat="47.146489983424544" lon="-0.153780011460185">
        <ele>50</ele>
        <time>2022-07-13T09:15:17Z</time>
      </trkpt>
      <trkpt lat="47.146519990637898" lon="-0.153750004246831">
        <ele>49</ele>
        <time>2022-07-13T09:15:19Z</time>
      </trkpt>
      <trkpt lat="47.146540023386478" lon="-0.153719997033477">
        <ele>49</ele>
        <time>2022-07-13T09:15:21Z</time>
      </trkpt>
      <trkpt lat="47.146570030599833" lon="-0.153699964284897">
        <ele>50</ele>
        <time>2022-07-13T09:15:33Z</time>
      </trkpt>
      <trkpt lat="47.146600037813187" lon="-0.153670040890574">
        <ele>50</ele>
        <time>2022-07-13T09:15:35Z</time>
      </trkpt>
      <trkpt lat="47.146629961207509" lon="-0.153650008141994">
        <ele>50</ele>
        <time>2022-07-13T09:15:37Z</time>
      </trkpt>
      <trkpt lat="47.146659968420863" lon="-0.153629975393415">
        <ele>50</ele>
        <time>2022-07-13T09:15:39Z</time>
      </trkpt>
      <trkpt lat="47.146680001169443" lon="-0.15359996818006">
        <ele>49</ele>
        <time>2022-07-13T09:15:55Z</time>
      </trkpt>
      <trkpt lat="47.146689975634217" lon="-0.153559986501932">
        <ele>49</ele>
        <time>2022-07-13T09:15:57Z</time>
      </trkpt>
      <trkpt lat="47.146719982847571" lon="-0.153529979288578">
        <ele>48</ele>
        <time>2022-07-13T09:15:59Z</time>
      </trkpt>
      <trkpt lat="47.146740015596151" lon="-0.153499972075224">
        <ele>48</ele>
        <time>2022-07-13T09:16:01Z</time>
      </trkpt>
      <trkpt lat="47.14677999727428" lon="-0.15346996486187">
        <ele>47</ele>
        <time>2022-07-13T09:16:03Z</time>
      </trkpt>
      <trkpt lat="47.14680003002286" lon="-0.153440041467547">
        <ele>47</ele>
        <time>2022-07-13T09:16:05Z</time>
      </trkpt>
      <trkpt lat="47.146830037236214" lon="-0.153420008718967">
        <ele>47</ele>
        <time>2022-07-13T09:16:07Z</time>
      </trkpt>
      <trkpt lat="47.146859960630536" lon="-0.153390001505613">
        <ele>47</ele>
        <time>2022-07-13T09:16:09Z</time>
      </trkpt>
      <trkpt lat="47.14688996784389" lon="-0.153359994292259">
        <ele>48</ele>
        <time>2022-07-13T09:16:11Z</time>
      </trkpt>
      <trkpt lat="47.14691000059247" lon="-0.153339961543679">
        <ele>48</ele>
        <time>2022-07-13T09:16:13Z</time>
      </trkpt>
      <trkpt lat="47.14693003334105" lon="-0.153310038149357">
        <ele>48</ele>
        <time>2022-07-13T09:16:15Z</time>
      </trkpt>
      <trkpt lat="47.146960040554404" lon="-0.153280030936003">
        <ele>48</ele>
        <time>2022-07-13T09:16:17Z</time>
      </trkpt>
      <trkpt lat="47.146979989483953" lon="-0.153250023722649">
        <ele>48</ele>
        <time>2022-07-13T09:16:19Z</time>
      </trkpt>
      <trkpt lat="47.147009996697307" lon="-0.153220016509295">
        <ele>48</ele>
        <time>2022-07-13T09:16:21Z</time>
      </trkpt>
      <trkpt lat="47.147040003910661" lon="-0.153199983760715">
        <ele>48</ele>
        <time>2022-07-13T09:16:23Z</time>
      </trkpt>
      <trkpt lat="47.147070011124015" lon="-0.153180034831166">
        <ele>47</ele>
        <time>2022-07-13T09:16:25Z</time>
      </trkpt>
      <trkpt lat="47.147079985588789" lon="-0.153139969334006">
        <ele>47</ele>
        <time>2022-07-13T09:16:27Z</time>
      </trkpt>
      <trkpt lat="47.147079985588789" lon="-0.153099987655878">
        <ele>47</ele>
        <time>2022-07-13T09:16:30Z</time>
      </trkpt>
      <trkpt lat="47.147060036659241" lon="-0.153050031512976">
        <ele>47</ele>
        <time>2022-07-13T09:16:33Z</time>
      </trkpt>
      <trkpt lat="47.147040003910661" lon="-0.153009966015816">
        <ele>47</ele>
        <time>2022-07-13T09:16:35Z</time>
      </trkpt>
      <trkpt lat="47.147009996697307" lon="-0.152969984337687">
        <ele>48</ele>
        <time>2022-07-13T09:16:37Z</time>
      </trkpt>
      <trkpt lat="47.146989963948727" lon="-0.152939977124333">
        <ele>48</ele>
        <time>2022-07-13T09:16:39Z</time>
      </trkpt>
      <trkpt lat="47.146970015019178" lon="-0.152899995446205">
        <ele>49</ele>
        <time>2022-07-13T09:16:41Z</time>
      </trkpt>
      <trkpt lat="47.146949982270598" lon="-0.152860013768077">
        <ele>49</ele>
        <time>2022-07-13T09:16:43Z</time>
      </trkpt>
      <trkpt lat="47.14693003334105" lon="-0.152830006554723">
        <ele>49</ele>
        <time>2022-07-13T09:16:45Z</time>
      </trkpt>
      <trkpt lat="47.14691000059247" lon="-0.152790024876595">
        <ele>50</ele>
        <time>2022-07-13T09:16:47Z</time>
      </trkpt>
      <trkpt lat="47.14688996784389" lon="-0.152749959379435">
        <ele>50</ele>
        <time>2022-07-13T09:16:49Z</time>
      </trkpt>
      <trkpt lat="47.146879993379116" lon="-0.152720035985112">
        <ele>50</ele>
        <time>2022-07-13T09:16:51Z</time>
      </trkpt>
      <trkpt lat="47.146859960630536" lon="-0.152669996023178">
        <ele>50</ele>
        <time>2022-07-13T09:16:54Z</time>
      </trkpt>
      <trkpt lat="47.146830037236214" lon="-0.15263001434505">
        <ele>50</ele>
        <time>2022-07-13T09:16:56Z</time>
      </trkpt>
      <trkpt lat="47.146810004487634" lon="-0.152590032666922">
        <ele>50</ele>
        <time>2022-07-13T09:16:58Z</time>
      </trkpt>
      <trkpt lat="47.146789971739054" lon="-0.152560025453568">
        <ele>50</ele>
        <time>2022-07-13T09:17:00Z</time>
      </trkpt>
      <trkpt lat="47.146770022809505" lon="-0.152519959956408">
        <ele>51</ele>
        <time>2022-07-13T09:17:02Z</time>
      </trkpt>
      <trkpt lat="47.146749990060925" lon="-0.152490036562085">
        <ele>51</ele>
        <time>2022-07-13T09:17:04Z</time>
      </trkpt>
      <trkpt lat="47.146719982847571" lon="-0.152449971064925">
        <ele>51</ele>
        <time>2022-07-13T09:17:06Z</time>
      </trkpt>
      <trkpt lat="47.146700033918023" lon="-0.152419963851571">
        <ele>50</ele>
        <time>2022-07-13T09:17:08Z</time>
      </trkpt>
      <trkpt lat="47.146680001169443" lon="-0.152379982173443">
        <ele>50</ele>
        <time>2022-07-13T09:17:10Z</time>
      </trkpt>
      <trkpt lat="47.146659968420863" lon="-0.152340000495315">
        <ele>49</ele>
        <time>2022-07-13T09:17:12Z</time>
      </trkpt>
      <trkpt lat="47.146640019491315" lon="-0.152300018817186">
        <ele>48</ele>
        <time>2022-07-13T09:17:15Z</time>
      </trkpt>
      <trkpt lat="47.146619986742735" lon="-0.152270011603832">
        <ele>48</ele>
        <time>2022-07-13T09:17:17Z</time>
      </trkpt>
      <trkpt lat="47.146600037813187" lon="-0.152230029925704">
        <ele>47</ele>
        <time>2022-07-13T09:17:19Z</time>
      </trkpt>
      <trkpt lat="47.146580005064607" lon="-0.152189964428544">
        <ele>47</ele>
        <time>2022-07-13T09:17:21Z</time>
      </trkpt>
      <trkpt lat="47.146570030599833" lon="-0.152140008285642">
        <ele>46</ele>
        <time>2022-07-13T09:17:23Z</time>
      </trkpt>
      <trkpt lat="47.146549997851253" lon="-0.152100026607513">
        <ele>46</ele>
        <time>2022-07-13T09:17:25Z</time>
      </trkpt>
      <trkpt lat="47.146529965102673" lon="-0.152049986645579">
        <ele>46</ele>
        <time>2022-07-13T09:17:27Z</time>
      </trkpt>
      <trkpt lat="47.146510016173124" lon="-0.152010004967451">
        <ele>46</ele>
        <time>2022-07-13T09:17:29Z</time>
      </trkpt>
      <trkpt lat="47.146489983424544" lon="-0.151970023289323">
        <ele>47</ele>
        <time>2022-07-13T09:17:31Z</time>
      </trkpt>
      <trkpt lat="47.14648000895977" lon="-0.151919983327389">
        <ele>48</ele>
        <time>2022-07-13T09:17:33Z</time>
      </trkpt>
      <trkpt lat="47.14645997621119" lon="-0.151880001649261">
        <ele>48</ele>
        <time>2022-07-13T09:17:35Z</time>
      </trkpt>
      <trkpt lat="47.146440027281642" lon="-0.151849994435906">
        <ele>48</ele>
        <time>2022-07-13T09:17:37Z</time>
      </trkpt>
      <trkpt lat="47.146410020068288" lon="-0.151810012757778">
        <ele>48</ele>
        <time>2022-07-13T09:17:40Z</time>
      </trkpt>
      <trkpt lat="47.146389987319708" lon="-0.151759972795844">
        <ele>48</ele>
        <time>2022-07-13T09:17:43Z</time>
      </trkpt>
      <trkpt lat="47.14637003839016" lon="-0.151719991117716">
        <ele>48</ele>
        <time>2022-07-13T09:17:45Z</time>
      </trkpt>
      <trkpt lat="47.146359980106354" lon="-0.151680009439588">
        <ele>48</ele>
        <time>2022-07-13T09:17:47Z</time>
      </trkpt>
      <trkpt lat="47.146329972893" lon="-0.151640027761459">
        <ele>47</ele>
        <time>2022-07-13T09:17:50Z</time>
      </trkpt>
      <trkpt lat="47.146319998428226" lon="-0.151599962264299">
        <ele>47</ele>
        <time>2022-07-13T09:17:52Z</time>
      </trkpt>
      <trkpt lat="47.146299965679646" lon="-0.151559980586171">
        <ele>47</ele>
        <time>2022-07-13T09:17:54Z</time>
      </trkpt>
      <trkpt lat="47.146289991214871" lon="-0.151519998908043">
        <ele>47</ele>
        <time>2022-07-13T09:17:56Z</time>
      </trkpt>
      <trkpt lat="47.146280016750097" lon="-0.151469958946109">
        <ele>47</ele>
        <time>2022-07-13T09:17:59Z</time>
      </trkpt>
      <trkpt lat="47.146289991214871" lon="-0.151429977267981">
        <ele>46</ele>
        <time>2022-07-13T09:18:02Z</time>
      </trkpt>
      <trkpt lat="47.146310023963451" lon="-0.151399970054626">
        <ele>45</ele>
        <time>2022-07-13T09:18:05Z</time>
      </trkpt>
      <trkpt lat="47.146340031176805" lon="-0.151380021125078">
        <ele>45</ele>
        <time>2022-07-13T09:18:07Z</time>
      </trkpt>
      <trkpt lat="47.14637003839016" lon="-0.151359988376498">
        <ele>45</ele>
        <time>2022-07-13T09:18:09Z</time>
      </trkpt>
      <trkpt lat="47.146399961784482" lon="-0.151350013911724">
        <ele>45</ele>
        <time>2022-07-13T09:18:11Z</time>
      </trkpt>
      <trkpt lat="47.146429968997836" lon="-0.151329981163144">
        <ele>45</ele>
        <time>2022-07-13T09:18:15Z</time>
      </trkpt>
      <trkpt lat="47.146429968997836" lon="-0.151289999485016">
        <ele>45</ele>
        <time>2022-07-13T09:18:18Z</time>
      </trkpt>
      <trkpt lat="47.146419994533062" lon="-0.151250017806888">
        <ele>45</ele>
        <time>2022-07-13T09:18:20Z</time>
      </trkpt>
      <trkpt lat="47.146410020068288" lon="-0.151210036128759">
        <ele>45</ele>
        <time>2022-07-13T09:18:22Z</time>
      </trkpt>
      <trkpt lat="47.146399961784482" lon="-0.151169970631599">
        <ele>45</ele>
        <time>2022-07-13T09:18:24Z</time>
      </trkpt>
      <trkpt lat="47.146389987319708" lon="-0.151129988953471">
        <ele>44</ele>
        <time>2022-07-13T09:18:27Z</time>
      </trkpt>
      <trkpt lat="47.146389987319708" lon="-0.151090007275343">
        <ele>44</ele>
        <time>2022-07-13T09:18:51Z</time>
      </trkpt>
      <trkpt lat="47.146389987319708" lon="-0.151050025597215">
        <ele>44</ele>
        <time>2022-07-13T09:18:53Z</time>
      </trkpt>
      <trkpt lat="47.14637003839016" lon="-0.151009960100055">
        <ele>45</ele>
        <time>2022-07-13T09:18:55Z</time>
      </trkpt>
      <trkpt lat="47.14635000564158" lon="-0.150980036705732">
        <ele>44</ele>
        <time>2022-07-13T09:18:57Z</time>
      </trkpt>
      <trkpt lat="47.146329972893" lon="-0.150939971208572">
        <ele>44</ele>
        <time>2022-07-13T09:18:59Z</time>
      </trkpt>
      <trkpt lat="47.146310023963451" lon="-0.150899989530444">
        <ele>45</ele>
        <time>2022-07-13T09:19:01Z</time>
      </trkpt>
      <trkpt lat="47.146289991214871" lon="-0.150860007852316">
        <ele>45</ele>
        <time>2022-07-13T09:19:03Z</time>
      </trkpt>
      <trkpt lat="47.146280016750097" lon="-0.150809967890382">
        <ele>44</ele>
        <time>2022-07-13T09:19:05Z</time>
      </trkpt>
      <trkpt lat="47.146259984001517" lon="-0.150769986212254">
        <ele>44</ele>
        <time>2022-07-13T09:19:07Z</time>
      </trkpt>
      <trkpt lat="47.146240035071969" lon="-0.150730004534125">
        <ele>44</ele>
        <time>2022-07-13T09:19:09Z</time>
      </trkpt>
      <trkpt lat="47.146229976788163" lon="-0.150699997320771">
        <ele>44</ele>
        <time>2022-07-13T09:19:11Z</time>
      </trkpt>
      <trkpt lat="47.146210027858615" lon="-0.150660015642643">
        <ele>44</ele>
        <time>2022-07-13T09:19:13Z</time>
      </trkpt>
      <trkpt lat="47.146199969574809" lon="-0.150620033964515">
        <ele>44</ele>
        <time>2022-07-13T09:19:15Z</time>
      </trkpt>
      <trkpt lat="47.146189995110035" lon="-0.150569994002581">
        <ele>44</ele>
        <time>2022-07-13T09:19:17Z</time>
      </trkpt>
      <trkpt lat="47.146169962361455" lon="-0.150520037859678">
        <ele>44</ele>
        <time>2022-07-13T09:19:19Z</time>
      </trkpt>
      <trkpt lat="47.146159987896681" lon="-0.150469997897744">
        <ele>45</ele>
        <time>2022-07-13T09:19:21Z</time>
      </trkpt>
      <trkpt lat="47.146140038967133" lon="-0.150430016219616">
        <ele>45</ele>
        <time>2022-07-13T09:19:23Z</time>
      </trkpt>
      <trkpt lat="47.146120006218553" lon="-0.150400009006262">
        <ele>45</ele>
        <time>2022-07-13T09:19:25Z</time>
      </trkpt>
      <trkpt lat="47.146089999005198" lon="-0.150370001792908">
        <ele>45</ele>
        <time>2022-07-13T09:19:27Z</time>
      </trkpt>
      <trkpt lat="47.146069966256618" lon="-0.150339994579554">
        <ele>45</ele>
        <time>2022-07-13T09:19:29Z</time>
      </trkpt>
      <trkpt lat="47.146039959043264" lon="-0.150300012901425">
        <ele>44</ele>
        <time>2022-07-13T09:19:31Z</time>
      </trkpt>
      <trkpt lat="47.146020010113716" lon="-0.150260031223297">
        <ele>44</ele>
        <time>2022-07-13T09:19:33Z</time>
      </trkpt>
      <trkpt lat="47.146010035648942" lon="-0.150219965726137">
        <ele>43</ele>
        <time>2022-07-13T09:19:35Z</time>
      </trkpt>
      <trkpt lat="47.145990002900362" lon="-0.150179984048009">
        <ele>43</ele>
        <time>2022-07-13T09:19:37Z</time>
      </trkpt>
      <trkpt lat="47.145959995687008" lon="-0.150140002369881">
        <ele>43</ele>
        <time>2022-07-13T09:19:39Z</time>
      </trkpt>
      <trkpt lat="47.145939962938428" lon="-0.150109995156527">
        <ele>42</ele>
        <time>2022-07-13T09:19:41Z</time>
      </trkpt>
      <trkpt lat="47.145910039544106" lon="-0.150070013478398">
        <ele>43</ele>
        <time>2022-07-13T09:19:43Z</time>
      </trkpt>
      <trkpt lat="47.145890006795526" lon="-0.15003003180027">
        <ele>43</ele>
        <time>2022-07-13T09:19:45Z</time>
      </trkpt>
      <trkpt lat="47.145859999582171" lon="-0.149979991838336">
        <ele>43</ele>
        <time>2022-07-13T09:19:48Z</time>
      </trkpt>
      <trkpt lat="47.145839966833591" lon="-0.149949984624982">
        <ele>43</ele>
        <time>2022-07-13T09:19:50Z</time>
      </trkpt>
      <trkpt lat="47.145820017904043" lon="-0.149910002946854">
        <ele>44</ele>
        <time>2022-07-13T09:19:52Z</time>
      </trkpt>
      <trkpt lat="47.145799985155463" lon="-0.149870021268725">
        <ele>44</ele>
        <time>2022-07-13T09:19:55Z</time>
      </trkpt>
      <trkpt lat="47.145769977942109" lon="-0.149830039590597">
        <ele>45</ele>
        <time>2022-07-13T09:19:57Z</time>
      </trkpt>
      <trkpt lat="47.145739970728755" lon="-0.149789974093437">
        <ele>45</ele>
        <time>2022-07-13T09:19:59Z</time>
      </trkpt>
      <trkpt lat="47.145720021799207" lon="-0.149740017950535">
        <ele>45</ele>
        <time>2022-07-13T09:20:01Z</time>
      </trkpt>
      <trkpt lat="47.145699989050627" lon="-0.149700036272407">
        <ele>45</ele>
        <time>2022-07-13T09:20:03Z</time>
      </trkpt>
      <trkpt lat="47.145669981837273" lon="-0.149659970775247">
        <ele>44</ele>
        <time>2022-07-13T09:20:05Z</time>
      </trkpt>
      <trkpt lat="47.145650032907724" lon="-0.149619989097118">
        <ele>44</ele>
        <time>2022-07-13T09:20:07Z</time>
      </trkpt>
      <trkpt lat="47.145630000159144" lon="-0.149589981883764">
        <ele>43</ele>
        <time>2022-07-13T09:20:09Z</time>
      </trkpt>
      <trkpt lat="47.145609967410564" lon="-0.149540025740862">
        <ele>43</ele>
        <time>2022-07-13T09:20:11Z</time>
      </trkpt>
      <trkpt lat="47.14557996019721" lon="-0.149499960243702">
        <ele>43</ele>
        <time>2022-07-13T09:20:13Z</time>
      </trkpt>
      <trkpt lat="47.145560011267662" lon="-0.149459978565574">
        <ele>44</ele>
        <time>2022-07-13T09:20:15Z</time>
      </trkpt>
      <trkpt lat="47.145539978519082" lon="-0.149410022422671">
        <ele>44</ele>
        <time>2022-07-13T09:20:17Z</time>
      </trkpt>
      <trkpt lat="47.145530004054308" lon="-0.149370040744543">
        <ele>44</ele>
        <time>2022-07-13T09:20:19Z</time>
      </trkpt>
      <trkpt lat="47.145509971305728" lon="-0.149340033531189">
        <ele>44</ele>
        <time>2022-07-13T09:20:21Z</time>
      </trkpt>
      <trkpt lat="47.145479964092374" lon="-0.149299968034029">
        <ele>45</ele>
        <time>2022-07-13T09:20:23Z</time>
      </trkpt>
      <trkpt lat="47.145460015162826" lon="-0.149269960820675">
        <ele>45</ele>
        <time>2022-07-13T09:20:25Z</time>
      </trkpt>
      <trkpt lat="47.145439982414246" lon="-0.149240037426353">
        <ele>46</ele>
        <time>2022-07-13T09:20:27Z</time>
      </trkpt>
      <trkpt lat="47.145420033484697" lon="-0.149199971929193">
        <ele>45</ele>
        <time>2022-07-13T09:20:30Z</time>
      </trkpt>
      <trkpt lat="47.145400000736117" lon="-0.149169964715838">
        <ele>45</ele>
        <time>2022-07-13T09:20:32Z</time>
      </trkpt>
      <trkpt lat="47.145369993522763" lon="-0.14912998303771">
        <ele>45</ele>
        <time>2022-07-13T09:20:34Z</time>
      </trkpt>
      <trkpt lat="47.145349960774183" lon="-0.149090001359582">
        <ele>45</ele>
        <time>2022-07-13T09:20:36Z</time>
      </trkpt>
      <trkpt lat="47.145330011844635" lon="-0.149050019681454">
        <ele>45</ele>
        <time>2022-07-13T09:20:38Z</time>
      </trkpt>
      <trkpt lat="47.145300004631281" lon="-0.1490200124681">
        <ele>45</ele>
        <time>2022-07-13T09:20:40Z</time>
      </trkpt>
      <trkpt lat="47.145279971882701" lon="-0.148980030789971">
        <ele>45</ele>
        <time>2022-07-13T09:20:42Z</time>
      </trkpt>
      <trkpt lat="47.145269997417927" lon="-0.148939965292811">
        <ele>45</ele>
        <time>2022-07-13T09:20:44Z</time>
      </trkpt>
      <trkpt lat="47.145239990204573" lon="-0.148899983614683">
        <ele>45</ele>
        <time>2022-07-13T09:20:46Z</time>
      </trkpt>
      <trkpt lat="47.145220041275024" lon="-0.148869976401329">
        <ele>45</ele>
        <time>2022-07-13T09:20:48Z</time>
      </trkpt>
      <trkpt lat="47.14519003406167" lon="-0.148839969187975">
        <ele>44</ele>
        <time>2022-07-13T09:20:50Z</time>
      </trkpt>
      <trkpt lat="47.145160026848316" lon="-0.148809961974621">
        <ele>45</ele>
        <time>2022-07-13T09:20:52Z</time>
      </trkpt>
      <trkpt lat="47.145130019634962" lon="-0.148780038580298">
        <ele>44</ele>
        <time>2022-07-13T09:20:54Z</time>
      </trkpt>
      <trkpt lat="47.145109986886382" lon="-0.148750031366944">
        <ele>44</ele>
        <time>2022-07-13T09:20:56Z</time>
      </trkpt>
      <trkpt lat="47.145090037956834" lon="-0.148709965869784">
        <ele>45</ele>
        <time>2022-07-13T09:20:58Z</time>
      </trkpt>
      <trkpt lat="47.145070005208254" lon="-0.148669984191656">
        <ele>45</ele>
        <time>2022-07-13T09:21:00Z</time>
      </trkpt>
      <trkpt lat="47.145049972459674" lon="-0.148630002513528">
        <ele>45</ele>
        <time>2022-07-13T09:21:02Z</time>
      </trkpt>
      <trkpt lat="47.14501996524632" lon="-0.148599995300174">
        <ele>45</ele>
        <time>2022-07-13T09:21:04Z</time>
      </trkpt>
      <trkpt lat="47.145000016316772" lon="-0.148560013622046">
        <ele>44</ele>
        <time>2022-07-13T09:21:06Z</time>
      </trkpt>
      <trkpt lat="47.144979983568192" lon="-0.148530006408691">
        <ele>44</ele>
        <time>2022-07-13T09:21:08Z</time>
      </trkpt>
      <trkpt lat="47.144960034638643" lon="-0.148509973660111">
        <ele>44</ele>
        <time>2022-07-13T09:21:10Z</time>
      </trkpt>
      <trkpt lat="47.144930027425289" lon="-0.148479966446757">
        <ele>44</ele>
        <time>2022-07-13T09:21:12Z</time>
      </trkpt>
      <trkpt lat="47.144900020211935" lon="-0.148449959233403">
        <ele>44</ele>
        <time>2022-07-13T09:21:14Z</time>
      </trkpt>
      <trkpt lat="47.144879987463355" lon="-0.148409977555275">
        <ele>44</ele>
        <time>2022-07-13T09:21:16Z</time>
      </trkpt>
      <trkpt lat="47.144860038533807" lon="-0.148379970341921">
        <ele>44</ele>
        <time>2022-07-13T09:21:18Z</time>
      </trkpt>
      <trkpt lat="47.144840005785227" lon="-0.148349963128567">
        <ele>44</ele>
        <time>2022-07-13T09:21:20Z</time>
      </trkpt>
      <trkpt lat="47.144819973036647" lon="-0.148320039734244">
        <ele>45</ele>
        <time>2022-07-13T09:21:22Z</time>
      </trkpt>
      <trkpt lat="47.144789965823293" lon="-0.14829003252089">
        <ele>45</ele>
        <time>2022-07-13T09:21:24Z</time>
      </trkpt>
      <trkpt lat="47.144759958609939" lon="-0.14824996702373">
        <ele>45</ele>
        <time>2022-07-13T09:21:26Z</time>
      </trkpt>
      <trkpt lat="47.14474000968039" lon="-0.148219959810376">
        <ele>44</ele>
        <time>2022-07-13T09:21:28Z</time>
      </trkpt>
      <trkpt lat="47.144710002467036" lon="-0.148179978132248">
        <ele>44</ele>
        <time>2022-07-13T09:21:31Z</time>
      </trkpt>
      <trkpt lat="47.144679995253682" lon="-0.148149970918894">
        <ele>43</ele>
        <time>2022-07-13T09:21:34Z</time>
      </trkpt>
      <trkpt lat="47.144659962505102" lon="-0.14811996370554">
        <ele>43</ele>
        <time>2022-07-13T09:21:36Z</time>
      </trkpt>
      <trkpt lat="47.14463003911078" lon="-0.148090040311217">
        <ele>43</ele>
        <time>2022-07-13T09:21:38Z</time>
      </trkpt>
      <trkpt lat="47.144619980826974" lon="-0.148049974814057">
        <ele>42</ele>
        <time>2022-07-13T09:21:45Z</time>
      </trkpt>
      <trkpt lat="47.14458997361362" lon="-0.148019967600703">
        <ele>41</ele>
        <time>2022-07-13T09:21:47Z</time>
      </trkpt>
      <trkpt lat="47.144559966400266" lon="-0.147979985922575">
        <ele>40</ele>
        <time>2022-07-13T09:21:49Z</time>
      </trkpt>
      <trkpt lat="47.144529959186912" lon="-0.147949978709221">
        <ele>40</ele>
        <time>2022-07-13T09:21:51Z</time>
      </trkpt>
      <trkpt lat="47.144510010257363" lon="-0.147919971495867">
        <ele>40</ele>
        <time>2022-07-13T09:21:53Z</time>
      </trkpt>
      <trkpt lat="47.144480003044009" lon="-0.147889964282513">
        <ele>40</ele>
        <time>2022-07-13T09:21:55Z</time>
      </trkpt>
      <trkpt lat="47.144459970295429" lon="-0.147849982604384">
        <ele>41</ele>
        <time>2022-07-13T09:21:58Z</time>
      </trkpt>
      <trkpt lat="47.144440021365881" lon="-0.147810000926256">
        <ele>42</ele>
        <time>2022-07-13T09:22:01Z</time>
      </trkpt>
      <trkpt lat="47.144419988617301" lon="-0.147770019248128">
        <ele>43</ele>
        <time>2022-07-13T09:22:05Z</time>
      </trkpt>
      <trkpt lat="47.144410014152527" lon="-0.14773003757">
        <ele>43</ele>
        <time>2022-07-13T09:22:07Z</time>
      </trkpt>
      <trkpt lat="47.144380006939173" lon="-0.147700030356646">
        <ele>43</ele>
        <time>2022-07-13T09:22:09Z</time>
      </trkpt>
      <trkpt lat="47.144349999725819" lon="-0.147670023143291">
        <ele>43</ele>
        <time>2022-07-13T09:22:11Z</time>
      </trkpt>
      <trkpt lat="47.144319992512465" lon="-0.147649990394711">
        <ele>43</ele>
        <time>2022-07-13T09:22:13Z</time>
      </trkpt>
      <trkpt lat="47.14428998529911" lon="-0.147619983181357">
        <ele>42</ele>
        <time>2022-07-13T09:22:15Z</time>
      </trkpt>
      <trkpt lat="47.144270036369562" lon="-0.147589975968003">
        <ele>42</ele>
        <time>2022-07-13T09:22:17Z</time>
      </trkpt>
      <trkpt lat="47.144250003620982" lon="-0.147559968754649">
        <ele>42</ele>
        <time>2022-07-13T09:22:19Z</time>
      </trkpt>
      <trkpt lat="47.144219996407628" lon="-0.147519987076521">
        <ele>43</ele>
        <time>2022-07-13T09:22:21Z</time>
      </trkpt>
      <trkpt lat="47.144210021942854" lon="-0.147480005398393">
        <ele>43</ele>
        <time>2022-07-13T09:22:23Z</time>
      </trkpt>
      <trkpt lat="47.144189989194274" lon="-0.147449998185039">
        <ele>43</ele>
        <time>2022-07-13T09:22:25Z</time>
      </trkpt>
      <trkpt lat="47.14415998198092" lon="-0.147419990971684">
        <ele>43</ele>
        <time>2022-07-13T09:22:27Z</time>
      </trkpt>
      <trkpt lat="47.144140033051372" lon="-0.147380009293556">
        <ele>43</ele>
        <time>2022-07-13T09:22:29Z</time>
      </trkpt>
      <trkpt lat="47.144120000302792" lon="-0.147359976544976">
        <ele>44</ele>
        <time>2022-07-13T09:22:31Z</time>
      </trkpt>
      <trkpt lat="47.144110025838017" lon="-0.147319994866848">
        <ele>43</ele>
        <time>2022-07-13T09:22:34Z</time>
      </trkpt>
      <trkpt lat="47.144099967554212" lon="-0.147270038723946">
        <ele>42</ele>
        <time>2022-07-13T09:22:36Z</time>
      </trkpt>
      <trkpt lat="47.144120000302792" lon="-0.147219998762012">
        <ele>42</ele>
        <time>2022-07-13T09:22:39Z</time>
      </trkpt>
      <trkpt lat="47.144129974767566" lon="-0.147189991548657">
        <ele>42</ele>
        <time>2022-07-13T09:22:41Z</time>
      </trkpt>
      <trkpt lat="47.144150007516146" lon="-0.147150009870529">
        <ele>42</ele>
        <time>2022-07-13T09:22:43Z</time>
      </trkpt>
      <trkpt lat="47.144170040264726" lon="-0.147120002657175">
        <ele>42</ele>
        <time>2022-07-13T09:22:45Z</time>
      </trkpt>
      <trkpt lat="47.144189989194274" lon="-0.147089995443821">
        <ele>42</ele>
        <time>2022-07-13T09:22:47Z</time>
      </trkpt>
      <trkpt lat="47.144210021942854" lon="-0.147050013765693">
        <ele>43</ele>
        <time>2022-07-13T09:22:53Z</time>
      </trkpt>
      <trkpt lat="47.144219996407628" lon="-0.147010032087564">
        <ele>44</ele>
        <time>2022-07-13T09:22:57Z</time>
      </trkpt>
      <trkpt lat="47.144240029156208" lon="-0.14698002487421">
        <ele>45</ele>
        <time>2022-07-13T09:22:59Z</time>
      </trkpt>
      <trkpt lat="47.144270036369562" lon="-0.146950017660856">
        <ele>44</ele>
        <time>2022-07-13T09:23:02Z</time>
      </trkpt>
      <trkpt lat="47.14428998529911" lon="-0.146910035982728">
        <ele>44</ele>
        <time>2022-07-13T09:23:04Z</time>
      </trkpt>
      <trkpt lat="47.14431001804769" lon="-0.146869970485568">
        <ele>44</ele>
        <time>2022-07-13T09:23:09Z</time>
      </trkpt>
      <trkpt lat="47.144340025261045" lon="-0.14682998880744">
        <ele>43</ele>
        <time>2022-07-13T09:23:11Z</time>
      </trkpt>
      <trkpt lat="47.144359974190593" lon="-0.146799981594086">
        <ele>43</ele>
        <time>2022-07-13T09:23:13Z</time>
      </trkpt>
      <trkpt lat="47.144380006939173" lon="-0.146759999915957">
        <ele>43</ele>
        <time>2022-07-13T09:23:15Z</time>
      </trkpt>
      <trkpt lat="47.144400039687753" lon="-0.146729992702603">
        <ele>42</ele>
        <time>2022-07-13T09:23:17Z</time>
      </trkpt>
      <trkpt lat="47.144419988617301" lon="-0.146690011024475">
        <ele>42</ele>
        <time>2022-07-13T09:23:19Z</time>
      </trkpt>
      <trkpt lat="47.144440021365881" lon="-0.146660003811121">
        <ele>43</ele>
        <time>2022-07-13T09:23:21Z</time>
      </trkpt>
      <trkpt lat="47.144470028579235" lon="-0.146629996597767">
        <ele>44</ele>
        <time>2022-07-13T09:23:23Z</time>
      </trkpt>
      <trkpt lat="47.144489977508783" lon="-0.146599989384413">
        <ele>44</ele>
        <time>2022-07-13T09:23:25Z</time>
      </trkpt>
      <trkpt lat="47.144519984722137" lon="-0.146580040454865">
        <ele>44</ele>
        <time>2022-07-13T09:23:27Z</time>
      </trkpt>
      <trkpt lat="47.144540017470717" lon="-0.146560007706285">
        <ele>45</ele>
        <time>2022-07-13T09:23:29Z</time>
      </trkpt>
      <trkpt lat="47.144570024684072" lon="-0.14653000049293">
        <ele>45</ele>
        <time>2022-07-13T09:23:31Z</time>
      </trkpt>
      <trkpt lat="47.14458997361362" lon="-0.14650996774435">
        <ele>44</ele>
        <time>2022-07-13T09:23:33Z</time>
      </trkpt>
      <trkpt lat="47.144619980826974" lon="-0.146469986066222">
        <ele>43</ele>
        <time>2022-07-13T09:23:36Z</time>
      </trkpt>
      <trkpt lat="47.144640013575554" lon="-0.146430004388094">
        <ele>42</ele>
        <time>2022-07-13T09:23:38Z</time>
      </trkpt>
      <trkpt lat="47.144659962505102" lon="-0.146390022709966">
        <ele>40</ele>
        <time>2022-07-13T09:23:41Z</time>
      </trkpt>
      <trkpt lat="47.144679995253682" lon="-0.146350041031837">
        <ele>40</ele>
        <time>2022-07-13T09:23:44Z</time>
      </trkpt>
      <trkpt lat="47.144710002467036" lon="-0.146309975534678">
        <ele>40</ele>
        <time>2022-07-13T09:23:46Z</time>
      </trkpt>
      <trkpt lat="47.144730035215616" lon="-0.146279968321323">
        <ele>40</ele>
        <time>2022-07-13T09:23:48Z</time>
      </trkpt>
      <trkpt lat="47.14474000968039" lon="-0.146239986643195">
        <ele>41</ele>
        <time>2022-07-13T09:23:51Z</time>
      </trkpt>
      <trkpt lat="47.144759958609939" lon="-0.146200004965067">
        <ele>41</ele>
        <time>2022-07-13T09:23:53Z</time>
      </trkpt>
      <trkpt lat="47.144779991358519" lon="-0.146149965003133">
        <ele>42</ele>
        <time>2022-07-13T09:23:55Z</time>
      </trkpt>
      <trkpt lat="47.144800024107099" lon="-0.14610000886023">
        <ele>42</ele>
        <time>2022-07-13T09:23:57Z</time>
      </trkpt>
      <trkpt lat="47.144830031320453" lon="-0.146039994433522">
        <ele>42</ele>
        <time>2022-07-13T09:23:59Z</time>
      </trkpt>
      <trkpt lat="47.144870012998581" lon="-0.146000012755394">
        <ele>42</ele>
        <time>2022-07-13T09:24:01Z</time>
      </trkpt>
      <trkpt lat="47.144900020211935" lon="-0.14594997279346">
        <ele>42</ele>
        <time>2022-07-13T09:24:03Z</time>
      </trkpt>
      <trkpt lat="47.144940001890063" lon="-0.145900016650558">
        <ele>41</ele>
        <time>2022-07-13T09:24:05Z</time>
      </trkpt>
      <trkpt lat="47.144979983568192" lon="-0.145849976688623">
        <ele>40</ele>
        <time>2022-07-13T09:24:07Z</time>
      </trkpt>
      <trkpt lat="47.145009990781546" lon="-0.145809995010495">
        <ele>40</ele>
        <time>2022-07-13T09:24:09Z</time>
      </trkpt>
      <trkpt lat="47.1450399979949" lon="-0.145760038867593">
        <ele>40</ele>
        <time>2022-07-13T09:24:11Z</time>
      </trkpt>
      <trkpt lat="47.145079979673028" lon="-0.145719973370433">
        <ele>40</ele>
        <time>2022-07-13T09:24:13Z</time>
      </trkpt>
      <trkpt lat="47.145109986886382" lon="-0.145679991692305">
        <ele>40</ele>
        <time>2022-07-13T09:24:15Z</time>
      </trkpt>
      <trkpt lat="47.14514996856451" lon="-0.145640010014176">
        <ele>40</ele>
        <time>2022-07-13T09:24:17Z</time>
      </trkpt>
      <trkpt lat="47.14519003406167" lon="-0.145610002800822">
        <ele>41</ele>
        <time>2022-07-13T09:24:19Z</time>
      </trkpt>
      <trkpt lat="47.145230015739799" lon="-0.145579995587468">
        <ele>41</ele>
        <time>2022-07-13T09:24:21Z</time>
      </trkpt>
      <trkpt lat="47.145269997417927" lon="-0.14554001390934">
        <ele>41</ele>
        <time>2022-07-13T09:24:23Z</time>
      </trkpt>
      <trkpt lat="47.145309979096055" lon="-0.145510006695986">
        <ele>42</ele>
        <time>2022-07-13T09:24:25Z</time>
      </trkpt>
      <trkpt lat="47.145349960774183" lon="-0.145479999482632">
        <ele>43</ele>
        <time>2022-07-13T09:24:27Z</time>
      </trkpt>
      <trkpt lat="47.145379967987537" lon="-0.145459966734052">
        <ele>43</ele>
        <time>2022-07-13T09:24:29Z</time>
      </trkpt>
      <trkpt lat="47.145430007949471" lon="-0.145440017804503">
        <ele>43</ele>
        <time>2022-07-13T09:24:31Z</time>
      </trkpt>
      <trkpt lat="47.145479964092374" lon="-0.145429959520698">
        <ele>43</ele>
        <time>2022-07-13T09:24:33Z</time>
      </trkpt>
      <trkpt lat="47.145520029589534" lon="-0.145429959520698">
        <ele>42</ele>
        <time>2022-07-13T09:24:34Z</time>
      </trkpt>
      <trkpt lat="47.145550036802888" lon="-0.145429959520698">
        <ele>41</ele>
        <time>2022-07-13T09:24:35Z</time>
      </trkpt>
      <trkpt lat="47.14557996019721" lon="-0.145429959520698">
        <ele>40</ele>
        <time>2022-07-13T09:24:36Z</time>
      </trkpt>
      <trkpt lat="47.14562002569437" lon="-0.145429959520698">
        <ele>38</ele>
        <time>2022-07-13T09:24:38Z</time>
      </trkpt>
      <trkpt lat="47.145669981837273" lon="-0.145440017804503">
        <ele>37</ele>
        <time>2022-07-13T09:24:40Z</time>
      </trkpt>
      <trkpt lat="47.145699989050627" lon="-0.145440017804503">
        <ele>37</ele>
        <time>2022-07-13T09:24:41Z</time>
      </trkpt>
      <trkpt lat="47.145750029012561" lon="-0.145449992269278">
        <ele>36</ele>
        <time>2022-07-13T09:24:43Z</time>
      </trkpt>
      <trkpt lat="47.145790010690689" lon="-0.145449992269278">
        <ele>36</ele>
        <time>2022-07-13T09:24:45Z</time>
      </trkpt>
      <trkpt lat="47.145829992368817" lon="-0.145449992269278">
        <ele>36</ele>
        <time>2022-07-13T09:24:47Z</time>
      </trkpt>
      <trkpt lat="47.145880032330751" lon="-0.145449992269278">
        <ele>36</ele>
        <time>2022-07-13T09:24:49Z</time>
      </trkpt>
      <trkpt lat="47.145929988473654" lon="-0.145449992269278">
        <ele>36</ele>
        <time>2022-07-13T09:24:51Z</time>
      </trkpt>
      <trkpt lat="47.145980028435588" lon="-0.145440017804503">
        <ele>36</ele>
        <time>2022-07-13T09:24:53Z</time>
      </trkpt>
      <trkpt lat="47.14602998457849" lon="-0.145419985055923">
        <ele>36</ele>
        <time>2022-07-13T09:24:55Z</time>
      </trkpt>
      <trkpt lat="47.146080024540424" lon="-0.145410010591149">
        <ele>36</ele>
        <time>2022-07-13T09:24:57Z</time>
      </trkpt>
      <trkpt lat="47.146120006218553" lon="-0.145389977842569">
        <ele>36</ele>
        <time>2022-07-13T09:24:59Z</time>
      </trkpt>
      <trkpt lat="47.146169962361455" lon="-0.145380003377795">
        <ele>36</ele>
        <time>2022-07-13T09:25:01Z</time>
      </trkpt>
      <trkpt lat="47.146220002323389" lon="-0.145359970629215">
        <ele>36</ele>
        <time>2022-07-13T09:25:03Z</time>
      </trkpt>
      <trkpt lat="47.146250009536743" lon="-0.145329963415861">
        <ele>36</ele>
        <time>2022-07-13T09:25:05Z</time>
      </trkpt>
      <trkpt lat="47.146289991214871" lon="-0.145300040021539">
        <ele>36</ele>
        <time>2022-07-13T09:25:07Z</time>
      </trkpt>
      <trkpt lat="47.146319998428226" lon="-0.145289981737733">
        <ele>36</ele>
        <time>2022-07-13T09:25:10Z</time>
      </trkpt>
      <trkpt lat="47.14635000564158" lon="-0.145280007272959">
        <ele>36</ele>
        <time>2022-07-13T09:25:12Z</time>
      </trkpt>
      <trkpt lat="47.146389987319708" lon="-0.145270032808185">
        <ele>36</ele>
        <time>2022-07-13T09:25:14Z</time>
      </trkpt>
      <trkpt lat="47.146419994533062" lon="-0.145270032808185">
        <ele>36</ele>
        <time>2022-07-13T09:25:16Z</time>
      </trkpt>
      <trkpt lat="47.146450001746416" lon="-0.145259974524379">
        <ele>36</ele>
        <time>2022-07-13T09:25:18Z</time>
      </trkpt>
      <trkpt lat="47.14648000895977" lon="-0.145250000059605">
        <ele>36</ele>
        <time>2022-07-13T09:25:20Z</time>
      </trkpt>
      <trkpt lat="47.146519990637898" lon="-0.145240025594831">
        <ele>36</ele>
        <time>2022-07-13T09:25:23Z</time>
      </trkpt>
      <trkpt lat="47.146559972316027" lon="-0.145229967311025">
        <ele>35</ele>
        <time>2022-07-13T09:25:25Z</time>
      </trkpt>
      <trkpt lat="47.146600037813187" lon="-0.145229967311025">
        <ele>35</ele>
        <time>2022-07-13T09:25:27Z</time>
      </trkpt>
      <trkpt lat="47.146640019491315" lon="-0.145229967311025">
        <ele>35</ele>
        <time>2022-07-13T09:25:29Z</time>
      </trkpt>
      <trkpt lat="47.146680001169443" lon="-0.145219992846251">
        <ele>36</ele>
        <time>2022-07-13T09:25:31Z</time>
      </trkpt>
      <trkpt lat="47.146710008382797" lon="-0.145210018381476">
        <ele>36</ele>
        <time>2022-07-13T09:25:33Z</time>
      </trkpt>
      <trkpt lat="47.146740015596151" lon="-0.145189985632896">
        <ele>36</ele>
        <time>2022-07-13T09:25:35Z</time>
      </trkpt>
      <trkpt lat="47.146770022809505" lon="-0.145170036703348">
        <ele>37</ele>
        <time>2022-07-13T09:25:37Z</time>
      </trkpt>
      <trkpt lat="47.14680003002286" lon="-0.145159978419542">
        <ele>37</ele>
        <time>2022-07-13T09:25:39Z</time>
      </trkpt>
      <trkpt lat="47.146830037236214" lon="-0.145150003954768">
        <ele>37</ele>
        <time>2022-07-13T09:25:41Z</time>
      </trkpt>
      <trkpt lat="47.146859960630536" lon="-0.145129971206188">
        <ele>37</ele>
        <time>2022-07-13T09:25:44Z</time>
      </trkpt>
      <trkpt lat="47.14688996784389" lon="-0.145119996741414">
        <ele>37</ele>
        <time>2022-07-13T09:25:46Z</time>
      </trkpt>
      <trkpt lat="47.146919975057244" lon="-0.145099963992834">
        <ele>36</ele>
        <time>2022-07-13T09:25:48Z</time>
      </trkpt>
      <trkpt lat="47.146940007805824" lon="-0.145080015063286">
        <ele>36</ele>
        <time>2022-07-13T09:25:50Z</time>
      </trkpt>
      <trkpt lat="47.146970015019178" lon="-0.145059982314706">
        <ele>37</ele>
        <time>2022-07-13T09:25:52Z</time>
      </trkpt>
      <trkpt lat="47.147000022232533" lon="-0.145040033385158">
        <ele>37</ele>
        <time>2022-07-13T09:25:54Z</time>
      </trkpt>
      <trkpt lat="47.147030029445887" lon="-0.145020000636578">
        <ele>37</ele>
        <time>2022-07-13T09:25:56Z</time>
      </trkpt>
      <trkpt lat="47.147060036659241" lon="-0.144999967887998">
        <ele>38</ele>
        <time>2022-07-13T09:25:58Z</time>
      </trkpt>
      <trkpt lat="47.147089960053563" lon="-0.144989993423224">
        <ele>39</ele>
        <time>2022-07-13T09:26:00Z</time>
      </trkpt>
      <trkpt lat="47.147119967266917" lon="-0.144969960674644">
        <ele>39</ele>
        <time>2022-07-13T09:26:03Z</time>
      </trkpt>
      <trkpt lat="47.147140000015497" lon="-0.144929978996515">
        <ele>39</ele>
        <time>2022-07-13T09:26:06Z</time>
      </trkpt>
      <trkpt lat="47.147160032764077" lon="-0.144910030066967">
        <ele>39</ele>
        <time>2022-07-13T09:26:09Z</time>
      </trkpt>
      <trkpt lat="47.147190039977431" lon="-0.144899971783161">
        <ele>38</ele>
        <time>2022-07-13T09:26:11Z</time>
      </trkpt>
      <trkpt lat="47.147219963371754" lon="-0.144889997318387">
        <ele>38</ele>
        <time>2022-07-13T09:26:13Z</time>
      </trkpt>
      <trkpt lat="47.147249970585108" lon="-0.144869964569807">
        <ele>39</ele>
        <time>2022-07-13T09:26:15Z</time>
      </trkpt>
      <trkpt lat="47.147279977798462" lon="-0.144850015640259">
        <ele>39</ele>
        <time>2022-07-13T09:26:17Z</time>
      </trkpt>
      <trkpt lat="47.147309985011816" lon="-0.144829982891679">
        <ele>39</ele>
        <time>2022-07-13T09:26:19Z</time>
      </trkpt>
      <trkpt lat="47.14733999222517" lon="-0.144820008426905">
        <ele>40</ele>
        <time>2022-07-13T09:26:20Z</time>
      </trkpt>
      <trkpt lat="47.147379973903298" lon="-0.144810033962131">
        <ele>40</ele>
        <time>2022-07-13T09:26:22Z</time>
      </trkpt>
      <trkpt lat="47.147409981116652" lon="-0.144780026748776">
        <ele>40</ele>
        <time>2022-07-13T09:26:24Z</time>
      </trkpt>
      <trkpt lat="47.147439988330007" lon="-0.144750019535422">
        <ele>40</ele>
        <time>2022-07-13T09:26:25Z</time>
      </trkpt>
      <trkpt lat="47.147449962794781" lon="-0.144690005108714">
        <ele>41</ele>
        <time>2022-07-13T09:26:27Z</time>
      </trkpt>
      <trkpt lat="47.147439988330007" lon="-0.144629990682006">
        <ele>41</ele>
        <time>2022-07-13T09:26:29Z</time>
      </trkpt>
      <trkpt lat="47.147420039400458" lon="-0.144569976255298">
        <ele>42</ele>
        <time>2022-07-13T09:26:31Z</time>
      </trkpt>
      <trkpt lat="47.147400006651878" lon="-0.144499987363815">
        <ele>42</ele>
        <time>2022-07-13T09:26:33Z</time>
      </trkpt>
      <trkpt lat="47.147390032187104" lon="-0.144460005685687">
        <ele>42</ele>
        <time>2022-07-13T09:26:34Z</time>
      </trkpt>
      <trkpt lat="47.147369999438524" lon="-0.144399991258979">
        <ele>42</ele>
        <time>2022-07-13T09:26:36Z</time>
      </trkpt>
      <trkpt lat="47.147349966689944" lon="-0.144339976832271">
        <ele>42</ele>
        <time>2022-07-13T09:26:38Z</time>
      </trkpt>
      <trkpt lat="47.147330017760396" lon="-0.144279962405562">
        <ele>42</ele>
        <time>2022-07-13T09:26:40Z</time>
      </trkpt>
      <trkpt lat="47.147309985011816" lon="-0.14420997351408">
        <ele>41</ele>
        <time>2022-07-13T09:26:42Z</time>
      </trkpt>
      <trkpt lat="47.147290036082268" lon="-0.144149959087372">
        <ele>41</ele>
        <time>2022-07-13T09:26:44Z</time>
      </trkpt>
      <trkpt lat="47.147279977798462" lon="-0.144090028479695">
        <ele>41</ele>
        <time>2022-07-13T09:26:46Z</time>
      </trkpt>
      <trkpt lat="47.147260028868914" lon="-0.144020039588213">
        <ele>40</ele>
        <time>2022-07-13T09:26:48Z</time>
      </trkpt>
      <trkpt lat="47.147239996120334" lon="-0.143969999626279">
        <ele>40</ele>
        <time>2022-07-13T09:26:49Z</time>
      </trkpt>
      <trkpt lat="47.147219963371754" lon="-0.143919959664345">
        <ele>41</ele>
        <time>2022-07-13T09:26:51Z</time>
      </trkpt>
      <trkpt lat="47.14720998890698" lon="-0.143870003521442">
        <ele>42</ele>
        <time>2022-07-13T09:27:21Z</time>
      </trkpt>
      <trkpt lat="47.147200014442205" lon="-0.143819963559508">
        <ele>43</ele>
        <time>2022-07-13T09:27:23Z</time>
      </trkpt>
      <trkpt lat="47.147190039977431" lon="-0.14377998188138">
        <ele>44</ele>
        <time>2022-07-13T09:27:25Z</time>
      </trkpt>
      <trkpt lat="47.147170007228851" lon="-0.143740000203252">
        <ele>44</ele>
        <time>2022-07-13T09:27:27Z</time>
      </trkpt>
      <trkpt lat="47.147149974480271" lon="-0.143700018525124">
        <ele>44</ele>
        <time>2022-07-13T09:27:30Z</time>
      </trkpt>
      <trkpt lat="47.147130025550723" lon="-0.143660036846995">
        <ele>43</ele>
        <time>2022-07-13T09:27:32Z</time>
      </trkpt>
      <trkpt lat="47.147109992802143" lon="-0.143619971349835">
        <ele>43</ele>
        <time>2022-07-13T09:27:34Z</time>
      </trkpt>
      <trkpt lat="47.147089960053563" lon="-0.143579989671707">
        <ele>43</ele>
        <time>2022-07-13T09:27:36Z</time>
      </trkpt>
      <trkpt lat="47.147060036659241" lon="-0.143540007993579">
        <ele>44</ele>
        <time>2022-07-13T09:27:38Z</time>
      </trkpt>
      <trkpt lat="47.147030029445887" lon="-0.143510000780225">
        <ele>44</ele>
        <time>2022-07-13T09:27:40Z</time>
      </trkpt>
      <trkpt lat="47.147000022232533" lon="-0.143489968031645">
        <ele>45</ele>
        <time>2022-07-13T09:27:42Z</time>
      </trkpt>
      <trkpt lat="47.146970015019178" lon="-0.143459960818291">
        <ele>44</ele>
        <time>2022-07-13T09:27:44Z</time>
      </trkpt>
      <trkpt lat="47.14693003334105" lon="-0.143449986353517">
        <ele>44</ele>
        <time>2022-07-13T09:27:46Z</time>
      </trkpt>
      <trkpt lat="47.146900026127696" lon="-0.143430037423968">
        <ele>43</ele>
        <time>2022-07-13T09:27:48Z</time>
      </trkpt>
      <trkpt lat="47.146870018914342" lon="-0.143419979140162">
        <ele>43</ele>
        <time>2022-07-13T09:27:50Z</time>
      </trkpt>
      <trkpt lat="47.146830037236214" lon="-0.143410004675388">
        <ele>44</ele>
        <time>2022-07-13T09:27:53Z</time>
      </trkpt>
      <trkpt lat="47.14680003002286" lon="-0.143410004675388">
        <ele>44</ele>
        <time>2022-07-13T09:27:55Z</time>
      </trkpt>
      <trkpt lat="47.146770022809505" lon="-0.143419979140162">
        <ele>44</ele>
        <time>2022-07-13T09:27:57Z</time>
      </trkpt>
      <trkpt lat="47.146770022809505" lon="-0.143419979140162">
        <ele>45</ele>
        <time>2022-07-13T09:28:02Z</time>
      </trkpt>
      <trkpt lat="47.146789971739054" lon="-0.143410004675388">
        <ele>44</ele>
        <time>2022-07-13T09:28:04Z</time>
      </trkpt>
      <trkpt lat="47.146819978952408" lon="-0.143400030210614">
        <ele>44</ele>
        <time>2022-07-13T09:28:06Z</time>
      </trkpt>
      <trkpt lat="47.146859960630536" lon="-0.143389971926808">
        <ele>45</ele>
        <time>2022-07-13T09:28:08Z</time>
      </trkpt>
      <trkpt lat="47.14688996784389" lon="-0.143379997462034">
        <ele>46</ele>
        <time>2022-07-13T09:28:10Z</time>
      </trkpt>
      <trkpt lat="47.14691000059247" lon="-0.14334999024868">
        <ele>46</ele>
        <time>2022-07-13T09:28:12Z</time>
      </trkpt>
      <trkpt lat="47.14693003334105" lon="-0.143300034105778">
        <ele>45</ele>
        <time>2022-07-13T09:28:15Z</time>
      </trkpt>
      <trkpt lat="47.146949982270598" lon="-0.143259968608618">
        <ele>44</ele>
        <time>2022-07-13T09:28:17Z</time>
      </trkpt>
      <trkpt lat="47.146970015019178" lon="-0.143270026892424">
        <ele>43</ele>
        <time>2022-07-13T09:28:21Z</time>
      </trkpt>
      <trkpt lat="47.146979989483953" lon="-0.143310008570552">
        <ele>42</ele>
        <time>2022-07-13T09:28:23Z</time>
      </trkpt>
      <trkpt lat="47.146989963948727" lon="-0.14334999024868">
        <ele>42</ele>
        <time>2022-07-13T09:28:25Z</time>
      </trkpt>
      <trkpt lat="47.147009996697307" lon="-0.143400030210614">
        <ele>42</ele>
        <time>2022-07-13T09:28:27Z</time>
      </trkpt>
      <trkpt lat="47.147040003910661" lon="-0.143459960818291">
        <ele>42</ele>
        <time>2022-07-13T09:28:29Z</time>
      </trkpt>
      <trkpt lat="47.147070011124015" lon="-0.143510000780225">
        <ele>41</ele>
        <time>2022-07-13T09:28:31Z</time>
      </trkpt>
      <trkpt lat="47.147100018337369" lon="-0.143560040742159">
        <ele>41</ele>
        <time>2022-07-13T09:28:33Z</time>
      </trkpt>
      <trkpt lat="47.147130025550723" lon="-0.143609996885061">
        <ele>41</ele>
        <time>2022-07-13T09:28:35Z</time>
      </trkpt>
      <trkpt lat="47.147149974480271" lon="-0.143670011311769">
        <ele>40</ele>
        <time>2022-07-13T09:28:37Z</time>
      </trkpt>
      <trkpt lat="47.147179981693625" lon="-0.143730025738478">
        <ele>40</ele>
        <time>2022-07-13T09:28:39Z</time>
      </trkpt>
      <trkpt lat="47.147200014442205" lon="-0.143770007416606">
        <ele>40</ele>
        <time>2022-07-13T09:28:40Z</time>
      </trkpt>
      <trkpt lat="47.14723002165556" lon="-0.143830021843314">
        <ele>40</ele>
        <time>2022-07-13T09:28:42Z</time>
      </trkpt>
      <trkpt lat="47.147239996120334" lon="-0.143870003521442">
        <ele>40</ele>
        <time>2022-07-13T09:28:43Z</time>
      </trkpt>
      <trkpt lat="47.147270003333688" lon="-0.143930017948151">
        <ele>40</ele>
        <time>2022-07-13T09:28:45Z</time>
      </trkpt>
      <trkpt lat="47.147290036082268" lon="-0.143990032374859">
        <ele>40</ele>
        <time>2022-07-13T09:28:47Z</time>
      </trkpt>
      <trkpt lat="47.147309985011816" lon="-0.144049962982535">
        <ele>39</ele>
        <time>2022-07-13T09:28:49Z</time>
      </trkpt>
      <trkpt lat="47.147330017760396" lon="-0.144120035693049">
        <ele>39</ele>
        <time>2022-07-13T09:28:51Z</time>
      </trkpt>
      <trkpt lat="47.147349966689944" lon="-0.144190024584532">
        <ele>38</ele>
        <time>2022-07-13T09:28:53Z</time>
      </trkpt>
      <trkpt lat="47.147369999438524" lon="-0.144279962405562">
        <ele>38</ele>
        <time>2022-07-13T09:28:55Z</time>
      </trkpt>
      <trkpt lat="47.147390032187104" lon="-0.144330002367496">
        <ele>39</ele>
        <time>2022-07-13T09:28:56Z</time>
      </trkpt>
      <trkpt lat="47.147400006651878" lon="-0.144399991258979">
        <ele>39</ele>
        <time>2022-07-13T09:28:58Z</time>
      </trkpt>
      <trkpt lat="47.147420039400458" lon="-0.144460005685687">
        <ele>39</ele>
        <time>2022-07-13T09:29:00Z</time>
      </trkpt>
      <trkpt lat="47.147430013865232" lon="-0.144520020112395">
        <ele>38</ele>
        <time>2022-07-13T09:29:02Z</time>
      </trkpt>
      <trkpt lat="47.147439988330007" lon="-0.144580034539104">
        <ele>38</ele>
        <time>2022-07-13T09:29:04Z</time>
      </trkpt>
      <trkpt lat="47.147460021078587" lon="-0.14463996514678">
        <ele>38</ele>
        <time>2022-07-13T09:29:06Z</time>
      </trkpt>
      <trkpt lat="47.147469995543361" lon="-0.144710037857294">
        <ele>38</ele>
        <time>2022-07-13T09:29:08Z</time>
      </trkpt>
      <trkpt lat="47.147460021078587" lon="-0.144759994000196">
        <ele>37</ele>
        <time>2022-07-13T09:29:10Z</time>
      </trkpt>
      <trkpt lat="47.147439988330007" lon="-0.144799975678325">
        <ele>36</ele>
        <time>2022-07-13T09:29:11Z</time>
      </trkpt>
      <trkpt lat="47.147409981116652" lon="-0.144820008426905">
        <ele>35</ele>
        <time>2022-07-13T09:29:12Z</time>
      </trkpt>
      <trkpt lat="47.147369999438524" lon="-0.144840041175485">
        <ele>35</ele>
        <time>2022-07-13T09:29:14Z</time>
      </trkpt>
      <trkpt lat="47.147330017760396" lon="-0.144850015640259">
        <ele>36</ele>
        <time>2022-07-13T09:29:16Z</time>
      </trkpt>
      <trkpt lat="47.147279977798462" lon="-0.144869964569807">
        <ele>37</ele>
        <time>2022-07-13T09:29:18Z</time>
      </trkpt>
      <trkpt lat="47.14723002165556" lon="-0.144889997318387">
        <ele>38</ele>
        <time>2022-07-13T09:29:20Z</time>
      </trkpt>
      <trkpt lat="47.147179981693625" lon="-0.144910030066967">
        <ele>39</ele>
        <time>2022-07-13T09:29:22Z</time>
      </trkpt>
      <trkpt lat="47.147130025550723" lon="-0.144940037280321">
        <ele>39</ele>
        <time>2022-07-13T09:29:24Z</time>
      </trkpt>
      <trkpt lat="47.147079985588789" lon="-0.144950011745095">
        <ele>40</ele>
        <time>2022-07-13T09:29:26Z</time>
      </trkpt>
      <trkpt lat="47.147030029445887" lon="-0.144969960674644">
        <ele>41</ele>
        <time>2022-07-13T09:29:28Z</time>
      </trkpt>
      <trkpt lat="47.146989963948727" lon="-0.144989993423224">
        <ele>42</ele>
        <time>2022-07-13T09:29:30Z</time>
      </trkpt>
      <trkpt lat="47.146940007805824" lon="-0.145010026171803">
        <ele>42</ele>
        <time>2022-07-13T09:29:32Z</time>
      </trkpt>
      <trkpt lat="47.146900026127696" lon="-0.145029975101352">
        <ele>42</ele>
        <time>2022-07-13T09:29:34Z</time>
      </trkpt>
      <trkpt lat="47.146870018914342" lon="-0.145059982314706">
        <ele>42</ele>
        <time>2022-07-13T09:29:36Z</time>
      </trkpt>
      <trkpt lat="47.146830037236214" lon="-0.14508998952806">
        <ele>43</ele>
        <time>2022-07-13T09:29:38Z</time>
      </trkpt>
      <trkpt lat="47.14677999727428" lon="-0.14511002227664">
        <ele>42</ele>
        <time>2022-07-13T09:29:40Z</time>
      </trkpt>
      <trkpt lat="47.146740015596151" lon="-0.145129971206188">
        <ele>42</ele>
        <time>2022-07-13T09:29:42Z</time>
      </trkpt>
      <trkpt lat="47.146689975634217" lon="-0.145159978419542">
        <ele>42</ele>
        <time>2022-07-13T09:29:44Z</time>
      </trkpt>
      <trkpt lat="47.146649993956089" lon="-0.145189985632896">
        <ele>42</ele>
        <time>2022-07-13T09:29:46Z</time>
      </trkpt>
      <trkpt lat="47.146610012277961" lon="-0.145210018381476">
        <ele>42</ele>
        <time>2022-07-13T09:29:47Z</time>
      </trkpt>
      <trkpt lat="47.146570030599833" lon="-0.145219992846251">
        <ele>42</ele>
        <time>2022-07-13T09:29:49Z</time>
      </trkpt>
      <trkpt lat="47.146519990637898" lon="-0.145240025594831">
        <ele>43</ele>
        <time>2022-07-13T09:29:51Z</time>
      </trkpt>
      <trkpt lat="47.146470034494996" lon="-0.145250000059605">
        <ele>43</ele>
        <time>2022-07-13T09:29:53Z</time>
      </trkpt>
      <trkpt lat="47.146419994533062" lon="-0.145270032808185">
        <ele>43</ele>
        <time>2022-07-13T09:29:55Z</time>
      </trkpt>
      <trkpt lat="47.146380012854934" lon="-0.145280007272959">
        <ele>44</ele>
        <time>2022-07-13T09:29:57Z</time>
      </trkpt>
      <trkpt lat="47.146329972893" lon="-0.145289981737733">
        <ele>44</ele>
        <time>2022-07-13T09:29:59Z</time>
      </trkpt>
      <trkpt lat="47.146280016750097" lon="-0.145310014486313">
        <ele>44</ele>
        <time>2022-07-13T09:30:01Z</time>
      </trkpt>
      <trkpt lat="47.146229976788163" lon="-0.145319988951087">
        <ele>45</ele>
        <time>2022-07-13T09:30:03Z</time>
      </trkpt>
      <trkpt lat="47.146189995110035" lon="-0.145340021699667">
        <ele>44</ele>
        <time>2022-07-13T09:30:05Z</time>
      </trkpt>
      <trkpt lat="47.146150013431907" lon="-0.145349996164441">
        <ele>44</ele>
        <time>2022-07-13T09:30:06Z</time>
      </trkpt>
      <trkpt lat="47.146120006218553" lon="-0.145359970629215">
        <ele>44</ele>
        <time>2022-07-13T09:30:07Z</time>
      </trkpt>
      <trkpt lat="47.146080024540424" lon="-0.145370028913021">
        <ele>43</ele>
        <time>2022-07-13T09:30:09Z</time>
      </trkpt>
      <trkpt lat="47.146039959043264" lon="-0.145380003377795">
        <ele>43</ele>
        <time>2022-07-13T09:30:11Z</time>
      </trkpt>
      <trkpt lat="47.145990002900362" lon="-0.145389977842569">
        <ele>44</ele>
        <time>2022-07-13T09:30:13Z</time>
      </trkpt>
      <trkpt lat="47.145939962938428" lon="-0.145410010591149">
        <ele>44</ele>
        <time>2022-07-13T09:30:15Z</time>
      </trkpt>
      <trkpt lat="47.1458999812603" lon="-0.145419985055923">
        <ele>43</ele>
        <time>2022-07-13T09:30:16Z</time>
      </trkpt>
      <trkpt lat="47.145869974046946" lon="-0.145429959520698">
        <ele>43</ele>
        <time>2022-07-13T09:30:17Z</time>
      </trkpt>
      <trkpt lat="47.145839966833591" lon="-0.145429959520698">
        <ele>43</ele>
        <time>2022-07-13T09:30:18Z</time>
      </trkpt>
      <trkpt lat="47.145809959620237" lon="-0.145440017804503">
        <ele>43</ele>
        <time>2022-07-13T09:30:19Z</time>
      </trkpt>
      <trkpt lat="47.145780036225915" lon="-0.145440017804503">
        <ele>42</ele>
        <time>2022-07-13T09:30:20Z</time>
      </trkpt>
      <trkpt lat="47.145760003477335" lon="-0.145440017804503">
        <ele>43</ele>
        <time>2022-07-13T09:30:21Z</time>
      </trkpt>
      <trkpt lat="47.145729996263981" lon="-0.145429959520698">
        <ele>43</ele>
        <time>2022-07-13T09:30:22Z</time>
      </trkpt>
      <trkpt lat="47.145680040121078" lon="-0.145429959520698">
        <ele>42</ele>
        <time>2022-07-13T09:30:24Z</time>
      </trkpt>
      <trkpt lat="47.145650032907724" lon="-0.145419985055923">
        <ele>42</ele>
        <time>2022-07-13T09:30:25Z</time>
      </trkpt>
      <trkpt lat="47.145609967410564" lon="-0.145419985055923">
        <ele>42</ele>
        <time>2022-07-13T09:30:27Z</time>
      </trkpt>
      <trkpt lat="47.145569985732436" lon="-0.145419985055923">
        <ele>42</ele>
        <time>2022-07-13T09:30:28Z</time>
      </trkpt>
      <trkpt lat="47.145530004054308" lon="-0.145419985055923">
        <ele>41</ele>
        <time>2022-07-13T09:30:30Z</time>
      </trkpt>
      <trkpt lat="47.14549002237618" lon="-0.145410010591149">
        <ele>41</ele>
        <time>2022-07-13T09:30:32Z</time>
      </trkpt>
      <trkpt lat="47.145450040698051" lon="-0.145410010591149">
        <ele>40</ele>
        <time>2022-07-13T09:30:33Z</time>
      </trkpt>
      <trkpt lat="47.145409975200891" lon="-0.145410010591149">
        <ele>40</ele>
        <time>2022-07-13T09:30:35Z</time>
      </trkpt>
      <trkpt lat="47.145369993522763" lon="-0.145419985055923">
        <ele>40</ele>
        <time>2022-07-13T09:30:36Z</time>
      </trkpt>
      <trkpt lat="47.145339986309409" lon="-0.145440017804503">
        <ele>40</ele>
        <time>2022-07-13T09:30:37Z</time>
      </trkpt>
      <trkpt lat="47.145309979096055" lon="-0.145459966734052">
        <ele>40</ele>
        <time>2022-07-13T09:30:38Z</time>
      </trkpt>
      <trkpt lat="47.145290030166507" lon="-0.145479999482632">
        <ele>40</ele>
        <time>2022-07-13T09:30:39Z</time>
      </trkpt>
      <trkpt lat="47.145260022953153" lon="-0.14551998116076">
        <ele>40</ele>
        <time>2022-07-13T09:30:41Z</time>
      </trkpt>
      <trkpt lat="47.145230015739799" lon="-0.145559962838888">
        <ele>40</ele>
        <time>2022-07-13T09:30:42Z</time>
      </trkpt>
      <trkpt lat="47.14519003406167" lon="-0.145589970052242">
        <ele>39</ele>
        <time>2022-07-13T09:30:44Z</time>
      </trkpt>
      <trkpt lat="47.14514996856451" lon="-0.145630035549402">
        <ele>39</ele>
        <time>2022-07-13T09:30:46Z</time>
      </trkpt>
      <trkpt lat="47.145109986886382" lon="-0.14567001722753">
        <ele>38</ele>
        <time>2022-07-13T09:30:48Z</time>
      </trkpt>
      <trkpt lat="47.145070005208254" lon="-0.145719973370433">
        <ele>38</ele>
        <time>2022-07-13T09:30:50Z</time>
      </trkpt>
      <trkpt lat="47.145030023530126" lon="-0.145770013332367">
        <ele>38</ele>
        <time>2022-07-13T09:30:52Z</time>
      </trkpt>
      <trkpt lat="47.145000016316772" lon="-0.145809995010495">
        <ele>38</ele>
        <time>2022-07-13T09:30:54Z</time>
      </trkpt>
      <trkpt lat="47.144960034638643" lon="-0.145849976688623">
        <ele>38</ele>
        <time>2022-07-13T09:30:56Z</time>
      </trkpt>
      <trkpt lat="47.144909994676709" lon="-0.145889958366752">
        <ele>39</ele>
        <time>2022-07-13T09:30:58Z</time>
      </trkpt>
      <trkpt lat="47.144889961928129" lon="-0.145930023863912">
        <ele>39</ele>
        <time>2022-07-13T09:30:59Z</time>
      </trkpt>
      <trkpt lat="47.144860038533807" lon="-0.145979980006814">
        <ele>39</ele>
        <time>2022-07-13T09:31:01Z</time>
      </trkpt>
      <trkpt lat="47.144830031320453" lon="-0.146039994433522">
        <ele>39</ele>
        <time>2022-07-13T09:31:03Z</time>
      </trkpt>
      <trkpt lat="47.144789965823293" lon="-0.146090034395456">
        <ele>39</ele>
        <time>2022-07-13T09:31:05Z</time>
      </trkpt>
      <trkpt lat="47.144770016893744" lon="-0.146139990538359">
        <ele>39</ele>
        <time>2022-07-13T09:31:06Z</time>
      </trkpt>
      <trkpt lat="47.14474000968039" lon="-0.146169997751713">
        <ele>39</ele>
        <time>2022-07-13T09:31:07Z</time>
      </trkpt>
      <trkpt lat="47.144710002467036" lon="-0.146209979429841">
        <ele>39</ele>
        <time>2022-07-13T09:31:09Z</time>
      </trkpt>
      <trkpt lat="47.144679995253682" lon="-0.146260019391775">
        <ele>40</ele>
        <time>2022-07-13T09:31:11Z</time>
      </trkpt>
      <trkpt lat="47.144649988040328" lon="-0.146290026605129">
        <ele>40</ele>
        <time>2022-07-13T09:31:12Z</time>
      </trkpt>
      <trkpt lat="47.144619980826974" lon="-0.146320033818483">
        <ele>40</ele>
        <time>2022-07-13T09:31:13Z</time>
      </trkpt>
      <trkpt lat="47.144600031897426" lon="-0.146350041031837">
        <ele>40</ele>
        <time>2022-07-13T09:31:14Z</time>
      </trkpt>
      <trkpt lat="47.144570024684072" lon="-0.146369989961386">
        <ele>41</ele>
        <time>2022-07-13T09:31:15Z</time>
      </trkpt>
      <trkpt lat="47.144549991935492" lon="-0.14639999717474">
        <ele>41</ele>
        <time>2022-07-13T09:31:16Z</time>
      </trkpt>
      <trkpt lat="47.144529959186912" lon="-0.146430004388094">
        <ele>41</ele>
        <time>2022-07-13T09:31:17Z</time>
      </trkpt>
      <trkpt lat="47.144510010257363" lon="-0.146469986066222">
        <ele>41</ele>
        <time>2022-07-13T09:31:18Z</time>
      </trkpt>
      <trkpt lat="47.144480003044009" lon="-0.146520026028156">
        <ele>42</ele>
        <time>2022-07-13T09:31:20Z</time>
      </trkpt>
      <trkpt lat="47.144459970295429" lon="-0.146560007706285">
        <ele>42</ele>
        <time>2022-07-13T09:31:21Z</time>
      </trkpt>
      <trkpt lat="47.144419988617301" lon="-0.146599989384413">
        <ele>43</ele>
        <time>2022-07-13T09:31:23Z</time>
      </trkpt>
      <trkpt lat="47.144400039687753" lon="-0.146639971062541">
        <ele>43</ele>
        <time>2022-07-13T09:31:24Z</time>
      </trkpt>
      <trkpt lat="47.144370032474399" lon="-0.146690011024475">
        <ele>42</ele>
        <time>2022-07-13T09:31:26Z</time>
      </trkpt>
      <trkpt lat="47.144349999725819" lon="-0.146739967167377">
        <ele>42</ele>
        <time>2022-07-13T09:31:28Z</time>
      </trkpt>
      <trkpt lat="47.144319992512465" lon="-0.146780032664537">
        <ele>43</ele>
        <time>2022-07-13T09:31:30Z</time>
      </trkpt>
      <trkpt lat="47.14428998529911" lon="-0.14682998880744">
        <ele>43</ele>
        <time>2022-07-13T09:31:32Z</time>
      </trkpt>
      <trkpt lat="47.144259978085756" lon="-0.146869970485568">
        <ele>44</ele>
        <time>2022-07-13T09:31:34Z</time>
      </trkpt>
      <trkpt lat="47.144229970872402" lon="-0.146920010447502">
        <ele>44</ele>
        <time>2022-07-13T09:31:36Z</time>
      </trkpt>
      <trkpt lat="47.144189989194274" lon="-0.146969966590405">
        <ele>44</ele>
        <time>2022-07-13T09:31:38Z</time>
      </trkpt>
      <trkpt lat="47.144170040264726" lon="-0.146999973803759">
        <ele>43</ele>
        <time>2022-07-13T09:31:39Z</time>
      </trkpt>
      <trkpt lat="47.144140033051372" lon="-0.147050013765693">
        <ele>43</ele>
        <time>2022-07-13T09:31:41Z</time>
      </trkpt>
      <trkpt lat="47.144120000302792" lon="-0.147080020979047">
        <ele>43</ele>
        <time>2022-07-13T09:31:43Z</time>
      </trkpt>
      <trkpt lat="47.144099967554212" lon="-0.147120002657175">
        <ele>43</ele>
        <time>2022-07-13T09:31:45Z</time>
      </trkpt>
      <trkpt lat="47.144069960340858" lon="-0.147159984335303">
        <ele>43</ele>
        <time>2022-07-13T09:31:48Z</time>
      </trkpt>
      <trkpt lat="47.144050011411309" lon="-0.147189991548657">
        <ele>44</ele>
        <time>2022-07-13T09:31:50Z</time>
      </trkpt>
      <trkpt lat="47.144020004197955" lon="-0.147210024297237">
        <ele>44</ele>
        <time>2022-07-13T09:31:52Z</time>
      </trkpt>
      <trkpt lat="47.143989996984601" lon="-0.147210024297237">
        <ele>44</ele>
        <time>2022-07-13T09:31:54Z</time>
      </trkpt>
      <trkpt lat="47.143959989771247" lon="-0.147199966013432">
        <ele>43</ele>
        <time>2022-07-13T09:31:56Z</time>
      </trkpt>
      <trkpt lat="47.143940040841699" lon="-0.147169958800077">
        <ele>44</ele>
        <time>2022-07-13T09:31:59Z</time>
      </trkpt>
      <trkpt lat="47.143910033628345" lon="-0.147140035405755">
        <ele>44</ele>
        <time>2022-07-13T09:32:01Z</time>
      </trkpt>
      <trkpt lat="47.14388002641499" lon="-0.147120002657175">
        <ele>45</ele>
        <time>2022-07-13T09:32:03Z</time>
      </trkpt>
      <trkpt lat="47.143850019201636" lon="-0.147089995443821">
        <ele>46</ele>
        <time>2022-07-13T09:32:05Z</time>
      </trkpt>
      <trkpt lat="47.143820011988282" lon="-0.147059988230467">
        <ele>46</ele>
        <time>2022-07-13T09:32:07Z</time>
      </trkpt>
      <trkpt lat="47.143799979239702" lon="-0.147029981017113">
        <ele>46</ele>
        <time>2022-07-13T09:32:09Z</time>
      </trkpt>
      <trkpt lat="47.143780030310154" lon="-0.146999973803759">
        <ele>46</ele>
        <time>2022-07-13T09:32:11Z</time>
      </trkpt>
      <trkpt lat="47.1437500230968" lon="-0.14695999212563">
        <ele>46</ele>
        <time>2022-07-13T09:32:13Z</time>
      </trkpt>
      <trkpt lat="47.14372999034822" lon="-0.146920010447502">
        <ele>46</ele>
        <time>2022-07-13T09:32:15Z</time>
      </trkpt>
      <trkpt lat="47.143710041418672" lon="-0.146890003234148">
        <ele>45</ele>
        <time>2022-07-13T09:32:17Z</time>
      </trkpt>
      <trkpt lat="47.143690008670092" lon="-0.14685002155602">
        <ele>45</ele>
        <time>2022-07-13T09:32:19Z</time>
      </trkpt>
      <trkpt lat="47.143669975921512" lon="-0.146810039877892">
        <ele>45</ele>
        <time>2022-07-13T09:32:21Z</time>
      </trkpt>
      <trkpt lat="47.143650026991963" lon="-0.146769974380732">
        <ele>45</ele>
        <time>2022-07-13T09:32:23Z</time>
      </trkpt>
      <trkpt lat="47.143629994243383" lon="-0.146729992702603">
        <ele>44</ele>
        <time>2022-07-13T09:32:25Z</time>
      </trkpt>
      <trkpt lat="47.143609961494803" lon="-0.146690011024475">
        <ele>44</ele>
        <time>2022-07-13T09:32:27Z</time>
      </trkpt>
      <trkpt lat="47.143599987030029" lon="-0.146660003811121">
        <ele>44</ele>
        <time>2022-07-13T09:32:29Z</time>
      </trkpt>
      <trkpt lat="47.143580038100481" lon="-0.146620022132993">
        <ele>44</ele>
        <time>2022-07-13T09:32:31Z</time>
      </trkpt>
      <trkpt lat="47.143550030887127" lon="-0.146590014919639">
        <ele>43</ele>
        <time>2022-07-13T09:32:33Z</time>
      </trkpt>
      <trkpt lat="47.143529998138547" lon="-0.146560007706285">
        <ele>43</ele>
        <time>2022-07-13T09:32:35Z</time>
      </trkpt>
      <trkpt lat="47.143509965389967" lon="-0.14653000049293">
        <ele>42</ele>
        <time>2022-07-13T09:32:37Z</time>
      </trkpt>
      <trkpt lat="47.143479958176613" lon="-0.146490018814802">
        <ele>42</ele>
        <time>2022-07-13T09:32:39Z</time>
      </trkpt>
      <trkpt lat="47.14345003478229" lon="-0.146460011601448">
        <ele>41</ele>
        <time>2022-07-13T09:32:41Z</time>
      </trkpt>
      <trkpt lat="47.14343000203371" lon="-0.146430004388094">
        <ele>41</ele>
        <time>2022-07-13T09:32:43Z</time>
      </trkpt>
      <trkpt lat="47.143399994820356" lon="-0.146390022709966">
        <ele>41</ele>
        <time>2022-07-13T09:32:45Z</time>
      </trkpt>
      <trkpt lat="47.143379962071776" lon="-0.146360015496612">
        <ele>41</ele>
        <time>2022-07-13T09:32:47Z</time>
      </trkpt>
      <trkpt lat="47.143350038677454" lon="-0.146330008283257">
        <ele>40</ele>
        <time>2022-07-13T09:32:49Z</time>
      </trkpt>
      <trkpt lat="47.1433200314641" lon="-0.146309975534678">
        <ele>40</ele>
        <time>2022-07-13T09:32:51Z</time>
      </trkpt>
      <trkpt lat="47.143290024250746" lon="-0.146290026605129">
        <ele>40</ele>
        <time>2022-07-13T09:32:53Z</time>
      </trkpt>
      <trkpt lat="47.143260017037392" lon="-0.146269993856549">
        <ele>40</ele>
        <time>2022-07-13T09:32:55Z</time>
      </trkpt>
      <trkpt lat="47.143239984288812" lon="-0.146260019391775">
        <ele>39</ele>
        <time>2022-07-13T09:32:57Z</time>
      </trkpt>
      <trkpt lat="47.143209977075458" lon="-0.146230012178421">
        <ele>37</ele>
        <time>2022-07-13T09:32:59Z</time>
      </trkpt>
      <trkpt lat="47.143190028145909" lon="-0.146200004965067">
        <ele>36</ele>
        <time>2022-07-13T09:33:02Z</time>
      </trkpt>
      <trkpt lat="47.143179969862103" lon="-0.146169997751713">
        <ele>33</ele>
        <time>2022-07-13T09:33:08Z</time>
      </trkpt>
      <trkpt lat="47.143179969862103" lon="-0.146179972216487">
        <ele>32</ele>
        <time>2022-07-13T09:33:28Z</time>
      </trkpt>
      <trkpt lat="47.143169995397329" lon="-0.146209979429841">
        <ele>31</ele>
        <time>2022-07-13T09:33:31Z</time>
      </trkpt>
      <trkpt lat="47.143169995397329" lon="-0.146249961107969">
        <ele>30</ele>
        <time>2022-07-13T09:33:33Z</time>
      </trkpt>
      <trkpt lat="47.143149962648749" lon="-0.146300001069903">
        <ele>29</ele>
        <time>2022-07-13T09:33:35Z</time>
      </trkpt>
      <trkpt lat="47.143109980970621" lon="-0.146330008283257">
        <ele>29</ele>
        <time>2022-07-13T09:33:37Z</time>
      </trkpt>
      <trkpt lat="47.143069999292493" lon="-0.146369989961386">
        <ele>29</ele>
        <time>2022-07-13T09:33:39Z</time>
      </trkpt>
      <trkpt lat="47.143030017614365" lon="-0.14639999717474">
        <ele>29</ele>
        <time>2022-07-13T09:33:41Z</time>
      </trkpt>
      <trkpt lat="47.143000010401011" lon="-0.146439978852868">
        <ele>29</ele>
        <time>2022-07-13T09:33:43Z</time>
      </trkpt>
      <trkpt lat="47.142949970439076" lon="-0.146490018814802">
        <ele>29</ele>
        <time>2022-07-13T09:33:45Z</time>
      </trkpt>
      <trkpt lat="47.142919963225722" lon="-0.146520026028156">
        <ele>29</ele>
        <time>2022-07-13T09:33:46Z</time>
      </trkpt>
      <trkpt lat="47.1428900398314" lon="-0.14655003324151">
        <ele>29</ele>
        <time>2022-07-13T09:33:47Z</time>
      </trkpt>
      <trkpt lat="47.14287000708282" lon="-0.146580040454865">
        <ele>29</ele>
        <time>2022-07-13T09:33:48Z</time>
      </trkpt>
      <trkpt lat="47.14284997433424" lon="-0.146609963849187">
        <ele>29</ele>
        <time>2022-07-13T09:33:49Z</time>
      </trkpt>
      <trkpt lat="47.142819967120886" lon="-0.146650029346347">
        <ele>29</ele>
        <time>2022-07-13T09:33:51Z</time>
      </trkpt>
      <trkpt lat="47.142779985442758" lon="-0.146690011024475">
        <ele>29</ele>
        <time>2022-07-13T09:33:53Z</time>
      </trkpt>
      <trkpt lat="47.142740003764629" lon="-0.146729992702603">
        <ele>29</ele>
        <time>2022-07-13T09:33:55Z</time>
      </trkpt>
      <trkpt lat="47.142700022086501" lon="-0.146759999915957">
        <ele>29</ele>
        <time>2022-07-13T09:33:57Z</time>
      </trkpt>
      <trkpt lat="47.142660040408373" lon="-0.146780032664537">
        <ele>28</ele>
        <time>2022-07-13T09:33:59Z</time>
      </trkpt>
      <trkpt lat="47.142619974911213" lon="-0.146799981594086">
        <ele>28</ele>
        <time>2022-07-13T09:34:01Z</time>
      </trkpt>
      <trkpt lat="47.142579993233085" lon="-0.146810039877892">
        <ele>28</ele>
        <time>2022-07-13T09:34:03Z</time>
      </trkpt>
      <trkpt lat="47.142540011554956" lon="-0.146820014342666">
        <ele>28</ele>
        <time>2022-07-13T09:34:05Z</time>
      </trkpt>
      <trkpt lat="47.142510004341602" lon="-0.146839963272214">
        <ele>27</ele>
        <time>2022-07-13T09:34:07Z</time>
      </trkpt>
      <trkpt lat="47.142470022663474" lon="-0.146890003234148">
        <ele>27</ele>
        <time>2022-07-13T09:34:09Z</time>
      </trkpt>
      <trkpt lat="47.142430040985346" lon="-0.146929984912276">
        <ele>27</ele>
        <time>2022-07-13T09:34:11Z</time>
      </trkpt>
      <trkpt lat="47.142389975488186" lon="-0.14698002487421">
        <ele>27</ele>
        <time>2022-07-13T09:34:13Z</time>
      </trkpt>
      <trkpt lat="47.142349993810058" lon="-0.147020006552339">
        <ele>26</ele>
        <time>2022-07-13T09:34:15Z</time>
      </trkpt>
      <trkpt lat="47.142319986596704" lon="-0.147050013765693">
        <ele>26</ele>
        <time>2022-07-13T09:34:16Z</time>
      </trkpt>
      <trkpt lat="47.142300037667155" lon="-0.147080020979047">
        <ele>26</ele>
        <time>2022-07-13T09:34:17Z</time>
      </trkpt>
      <trkpt lat="47.142259972169995" lon="-0.147110028192401">
        <ele>25</ele>
        <time>2022-07-13T09:34:19Z</time>
      </trkpt>
      <trkpt lat="47.142219990491867" lon="-0.147159984335303">
        <ele>25</ele>
        <time>2022-07-13T09:34:21Z</time>
      </trkpt>
      <trkpt lat="47.142200041562319" lon="-0.147189991548657">
        <ele>24</ele>
        <time>2022-07-13T09:34:22Z</time>
      </trkpt>
      <trkpt lat="47.142170034348965" lon="-0.147240031510592">
        <ele>24</ele>
        <time>2022-07-13T09:34:24Z</time>
      </trkpt>
      <trkpt lat="47.142129968851805" lon="-0.147289987653494">
        <ele>24</ele>
        <time>2022-07-13T09:34:26Z</time>
      </trkpt>
      <trkpt lat="47.142099961638451" lon="-0.147340027615428">
        <ele>24</ele>
        <time>2022-07-13T09:34:28Z</time>
      </trkpt>
      <trkpt lat="47.142070038244128" lon="-0.147399958223104">
        <ele>24</ele>
        <time>2022-07-13T09:34:30Z</time>
      </trkpt>
      <trkpt lat="47.142040031030774" lon="-0.147449998185039">
        <ele>24</ele>
        <time>2022-07-13T09:34:32Z</time>
      </trkpt>
      <trkpt lat="47.14201002381742" lon="-0.147489979863167">
        <ele>23</ele>
        <time>2022-07-13T09:34:34Z</time>
      </trkpt>
      <trkpt lat="47.141980016604066" lon="-0.147540019825101">
        <ele>22</ele>
        <time>2022-07-13T09:34:36Z</time>
      </trkpt>
      <trkpt lat="47.141950009390712" lon="-0.147580001503229">
        <ele>22</ele>
        <time>2022-07-13T09:34:38Z</time>
      </trkpt>
      <trkpt lat="47.141920002177358" lon="-0.147619983181357">
        <ele>21</ele>
        <time>2022-07-13T09:34:40Z</time>
      </trkpt>
      <trkpt lat="47.141889994964004" lon="-0.147659964859486">
        <ele>20</ele>
        <time>2022-07-13T09:34:42Z</time>
      </trkpt>
      <trkpt lat="47.141859987750649" lon="-0.147700030356646">
        <ele>20</ele>
        <time>2022-07-13T09:34:44Z</time>
      </trkpt>
      <trkpt lat="47.141829980537295" lon="-0.14773003757">
        <ele>21</ele>
        <time>2022-07-13T09:34:46Z</time>
      </trkpt>
      <trkpt lat="47.141799973323941" lon="-0.147770019248128">
        <ele>21</ele>
        <time>2022-07-13T09:34:48Z</time>
      </trkpt>
      <trkpt lat="47.141769966110587" lon="-0.147800026461482">
        <ele>21</ele>
        <time>2022-07-13T09:34:50Z</time>
      </trkpt>
      <trkpt lat="47.141739958897233" lon="-0.14784000813961">
        <ele>21</ele>
        <time>2022-07-13T09:34:52Z</time>
      </trkpt>
      <trkpt lat="47.141699977219105" lon="-0.147879989817739">
        <ele>22</ele>
        <time>2022-07-13T09:34:54Z</time>
      </trkpt>
      <trkpt lat="47.141669970005751" lon="-0.147909997031093">
        <ele>22</ele>
        <time>2022-07-13T09:34:56Z</time>
      </trkpt>
      <trkpt lat="47.141650021076202" lon="-0.147949978709221">
        <ele>22</ele>
        <time>2022-07-13T09:34:58Z</time>
      </trkpt>
      <trkpt lat="47.141620013862848" lon="-0.147979985922575">
        <ele>23</ele>
        <time>2022-07-13T09:35:00Z</time>
      </trkpt>
      <trkpt lat="47.141599981114268" lon="-0.148019967600703">
        <ele>23</ele>
        <time>2022-07-13T09:35:02Z</time>
      </trkpt>
      <trkpt lat="47.141569973900914" lon="-0.148049974814057">
        <ele>24</ele>
        <time>2022-07-13T09:35:04Z</time>
      </trkpt>
      <trkpt lat="47.14153996668756" lon="-0.148079982027411">
        <ele>24</ele>
        <time>2022-07-13T09:35:06Z</time>
      </trkpt>
      <trkpt lat="47.141520017758012" lon="-0.14811996370554">
        <ele>25</ele>
        <time>2022-07-13T09:35:08Z</time>
      </trkpt>
      <trkpt lat="47.141480036079884" lon="-0.148149970918894">
        <ele>25</ele>
        <time>2022-07-13T09:35:10Z</time>
      </trkpt>
      <trkpt lat="47.141460003331304" lon="-0.148190036416054">
        <ele>25</ele>
        <time>2022-07-13T09:35:12Z</time>
      </trkpt>
      <trkpt lat="47.141429996117949" lon="-0.148230018094182">
        <ele>26</ele>
        <time>2022-07-13T09:35:14Z</time>
      </trkpt>
      <trkpt lat="47.141399988904595" lon="-0.14826999977231">
        <ele>26</ele>
        <time>2022-07-13T09:35:16Z</time>
      </trkpt>
      <trkpt lat="47.141380039975047" lon="-0.148309981450439">
        <ele>26</ele>
        <time>2022-07-13T09:35:18Z</time>
      </trkpt>
      <trkpt lat="47.141350032761693" lon="-0.148339988663793">
        <ele>27</ele>
        <time>2022-07-13T09:35:20Z</time>
      </trkpt>
      <trkpt lat="47.141320025548339" lon="-0.148369995877147">
        <ele>28</ele>
        <time>2022-07-13T09:35:22Z</time>
      </trkpt>
      <trkpt lat="47.141290018334985" lon="-0.148400003090501">
        <ele>28</ele>
        <time>2022-07-13T09:35:24Z</time>
      </trkpt>
      <trkpt lat="47.141269985586405" lon="-0.148430010303855">
        <ele>29</ele>
        <time>2022-07-13T09:35:26Z</time>
      </trkpt>
      <trkpt lat="47.141250036656857" lon="-0.148460017517209">
        <ele>29</ele>
        <time>2022-07-13T09:35:28Z</time>
      </trkpt>
      <trkpt lat="47.141220029443502" lon="-0.148490024730563">
        <ele>30</ele>
        <time>2022-07-13T09:35:30Z</time>
      </trkpt>
      <trkpt lat="47.141199996694922" lon="-0.148509973660111">
        <ele>31</ele>
        <time>2022-07-13T09:35:32Z</time>
      </trkpt>
      <trkpt lat="47.141169989481568" lon="-0.148550039157271">
        <ele>31</ele>
        <time>2022-07-13T09:35:35Z</time>
      </trkpt>
      <trkpt lat="47.141139982268214" lon="-0.148579962551594">
        <ele>32</ele>
        <time>2022-07-13T09:35:37Z</time>
      </trkpt>
      <trkpt lat="47.141120033338666" lon="-0.148609969764948">
        <ele>32</ele>
        <time>2022-07-13T09:35:39Z</time>
      </trkpt>
      <trkpt lat="47.141090026125312" lon="-0.148630002513528">
        <ele>33</ele>
        <time>2022-07-13T09:35:41Z</time>
      </trkpt>
      <trkpt lat="47.141049960628152" lon="-0.148669984191656">
        <ele>33</ele>
        <time>2022-07-13T09:35:43Z</time>
      </trkpt>
      <trkpt lat="47.141020037233829" lon="-0.14869999140501">
        <ele>33</ele>
        <time>2022-07-13T09:35:44Z</time>
      </trkpt>
      <trkpt lat="47.140990030020475" lon="-0.148729998618364">
        <ele>33</ele>
        <time>2022-07-13T09:35:45Z</time>
      </trkpt>
      <trkpt lat="47.140960022807121" lon="-0.148760005831718">
        <ele>33</ele>
        <time>2022-07-13T09:35:47Z</time>
      </trkpt>
      <trkpt lat="47.140920041128993" lon="-0.148799987509847">
        <ele>33</ele>
        <time>2022-07-13T09:35:49Z</time>
      </trkpt>
      <trkpt lat="47.140890033915639" lon="-0.148839969187975">
        <ele>33</ele>
        <time>2022-07-13T09:35:50Z</time>
      </trkpt>
      <trkpt lat="47.140849968418479" lon="-0.148880034685135">
        <ele>33</ele>
        <time>2022-07-13T09:35:52Z</time>
      </trkpt>
      <trkpt lat="47.140819961205125" lon="-0.148920016363263">
        <ele>32</ele>
        <time>2022-07-13T09:35:54Z</time>
      </trkpt>
      <trkpt lat="47.140779979526997" lon="-0.148959998041391">
        <ele>32</ele>
        <time>2022-07-13T09:35:56Z</time>
      </trkpt>
      <trkpt lat="47.140749972313643" lon="-0.148980030789971">
        <ele>31</ele>
        <time>2022-07-13T09:35:59Z</time>
      </trkpt>
      <trkpt lat="47.140719965100288" lon="-0.148980030789971">
        <ele>30</ele>
        <time>2022-07-13T09:36:19Z</time>
      </trkpt>
      <trkpt lat="47.140690041705966" lon="-0.148969972506166">
        <ele>29</ele>
        <time>2022-07-13T09:36:25Z</time>
      </trkpt>
      <trkpt lat="47.140660034492612" lon="-0.148950023576617">
        <ele>29</ele>
        <time>2022-07-13T09:36:28Z</time>
      </trkpt>
      <trkpt lat="47.140630027279258" lon="-0.148920016363263">
        <ele>28</ele>
        <time>2022-07-13T09:36:30Z</time>
      </trkpt>
      <trkpt lat="47.140609994530678" lon="-0.148890009149909">
        <ele>28</ele>
        <time>2022-07-13T09:36:31Z</time>
      </trkpt>
      <trkpt lat="47.140579987317324" lon="-0.148839969187975">
        <ele>28</ele>
        <time>2022-07-13T09:36:33Z</time>
      </trkpt>
      <trkpt lat="47.140560038387775" lon="-0.148809961974621">
        <ele>28</ele>
        <time>2022-07-13T09:36:34Z</time>
      </trkpt>
      <trkpt lat="47.140530031174421" lon="-0.148780038580298">
        <ele>28</ele>
        <time>2022-07-13T09:36:35Z</time>
      </trkpt>
      <trkpt lat="47.140509998425841" lon="-0.148750031366944">
        <ele>28</ele>
        <time>2022-07-13T09:36:36Z</time>
      </trkpt>
      <trkpt lat="47.140479991212487" lon="-0.148729998618364">
        <ele>28</ele>
        <time>2022-07-13T09:36:37Z</time>
      </trkpt>
      <trkpt lat="47.140459958463907" lon="-0.14869999140501">
        <ele>29</ele>
        <time>2022-07-13T09:36:38Z</time>
      </trkpt>
      <trkpt lat="47.140430035069585" lon="-0.148660009726882">
        <ele>28</ele>
        <time>2022-07-13T09:36:40Z</time>
      </trkpt>
      <trkpt lat="47.140400027856231" lon="-0.148630002513528">
        <ele>28</ele>
        <time>2022-07-13T09:36:41Z</time>
      </trkpt>
      <trkpt lat="47.140370020642877" lon="-0.148579962551594">
        <ele>28</ele>
        <time>2022-07-13T09:36:43Z</time>
      </trkpt>
      <trkpt lat="47.140330038964748" lon="-0.148530006408691">
        <ele>28</ele>
        <time>2022-07-13T09:36:45Z</time>
      </trkpt>
      <trkpt lat="47.140300031751394" lon="-0.148490024730563">
        <ele>28</ele>
        <time>2022-07-13T09:36:46Z</time>
      </trkpt>
      <trkpt lat="47.14027002453804" lon="-0.148439984768629">
        <ele>28</ele>
        <time>2022-07-13T09:36:48Z</time>
      </trkpt>
      <trkpt lat="47.140240017324686" lon="-0.148409977555275">
        <ele>28</ele>
        <time>2022-07-13T09:36:49Z</time>
      </trkpt>
      <trkpt lat="47.140219984576106" lon="-0.148369995877147">
        <ele>28</ele>
        <time>2022-07-13T09:36:50Z</time>
      </trkpt>
      <trkpt lat="47.140189977362752" lon="-0.148349963128567">
        <ele>28</ele>
        <time>2022-07-13T09:36:51Z</time>
      </trkpt>
      <trkpt lat="47.140159970149398" lon="-0.148320039734244">
        <ele>28</ele>
        <time>2022-07-13T09:36:52Z</time>
      </trkpt>
      <trkpt lat="47.14014002121985" lon="-0.14829003252089">
        <ele>28</ele>
        <time>2022-07-13T09:36:53Z</time>
      </trkpt>
      <trkpt lat="47.14011998847127" lon="-0.14824996702373">
        <ele>28</ele>
        <time>2022-07-13T09:36:54Z</time>
      </trkpt>
      <trkpt lat="47.140100039541721" lon="-0.148219959810376">
        <ele>28</ele>
        <time>2022-07-13T09:36:55Z</time>
      </trkpt>
      <trkpt lat="47.140080006793141" lon="-0.148190036416054">
        <ele>28</ele>
        <time>2022-07-13T09:36:56Z</time>
      </trkpt>
      <trkpt lat="47.140049999579787" lon="-0.1481600292027">
        <ele>28</ele>
        <time>2022-07-13T09:36:57Z</time>
      </trkpt>
      <trkpt lat="47.140029966831207" lon="-0.148130021989346">
        <ele>28</ele>
        <time>2022-07-13T09:36:58Z</time>
      </trkpt>
      <trkpt lat="47.140010017901659" lon="-0.148100014775991">
        <ele>28</ele>
        <time>2022-07-13T09:36:59Z</time>
      </trkpt>
      <trkpt lat="47.139980010688305" lon="-0.148070007562637">
        <ele>27</ele>
        <time>2022-07-13T09:37:00Z</time>
      </trkpt>
      <trkpt lat="47.139959977939725" lon="-0.148040000349283">
        <ele>27</ele>
        <time>2022-07-13T09:37:01Z</time>
      </trkpt>
      <trkpt lat="47.139940029010177" lon="-0.148009993135929">
        <ele>27</ele>
        <time>2022-07-13T09:37:02Z</time>
      </trkpt>
      <trkpt lat="47.139919996261597" lon="-0.147979985922575">
        <ele>27</ele>
        <time>2022-07-13T09:37:03Z</time>
      </trkpt>
      <trkpt lat="47.139889989048243" lon="-0.147949978709221">
        <ele>27</ele>
        <time>2022-07-13T09:37:04Z</time>
      </trkpt>
      <trkpt lat="47.139870040118694" lon="-0.147919971495867">
        <ele>28</ele>
        <time>2022-07-13T09:37:05Z</time>
      </trkpt>
      <trkpt lat="47.139850007370114" lon="-0.147889964282513">
        <ele>28</ele>
        <time>2022-07-13T09:37:06Z</time>
      </trkpt>
      <trkpt lat="47.139829974621534" lon="-0.147870015352964">
        <ele>28</ele>
        <time>2022-07-13T09:37:07Z</time>
      </trkpt>
      <trkpt lat="47.13979996740818" lon="-0.147830033674836">
        <ele>28</ele>
        <time>2022-07-13T09:37:09Z</time>
      </trkpt>
      <trkpt lat="47.139769960194826" lon="-0.147810000926256">
        <ele>28</ele>
        <time>2022-07-13T09:37:10Z</time>
      </trkpt>
      <trkpt lat="47.139729978516698" lon="-0.147789968177676">
        <ele>29</ele>
        <time>2022-07-13T09:37:11Z</time>
      </trkpt>
      <trkpt lat="47.139699971303344" lon="-0.147779993712902">
        <ele>29</ele>
        <time>2022-07-13T09:37:13Z</time>
      </trkpt>
      <trkpt lat="47.139659989625216" lon="-0.147789968177676">
        <ele>29</ele>
        <time>2022-07-13T09:37:15Z</time>
      </trkpt>
      <trkpt lat="47.139629982411861" lon="-0.14781997539103">
        <ele>29</ele>
        <time>2022-07-13T09:37:17Z</time>
      </trkpt>
      <trkpt lat="47.139610033482313" lon="-0.14786004088819">
        <ele>29</ele>
        <time>2022-07-13T09:37:20Z</time>
      </trkpt>
      <trkpt lat="47.139610033482313" lon="-0.147919971495867">
        <ele>30</ele>
        <time>2022-07-13T09:37:23Z</time>
      </trkpt>
      <trkpt lat="47.139610033482313" lon="-0.147960036993027">
        <ele>30</ele>
        <time>2022-07-13T09:37:25Z</time>
      </trkpt>
      <trkpt lat="47.139610033482313" lon="-0.148009993135929">
        <ele>30</ele>
        <time>2022-07-13T09:37:27Z</time>
      </trkpt>
      <trkpt lat="47.139610033482313" lon="-0.148060033097863">
        <ele>31</ele>
        <time>2022-07-13T09:37:29Z</time>
      </trkpt>
      <trkpt lat="47.139620007947087" lon="-0.148100014775991">
        <ele>31</ele>
        <time>2022-07-13T09:37:31Z</time>
      </trkpt>
      <trkpt lat="47.139620007947087" lon="-0.14813999645412">
        <ele>31</ele>
        <time>2022-07-13T09:37:33Z</time>
      </trkpt>
      <trkpt lat="47.139620007947087" lon="-0.148190036416054">
        <ele>30</ele>
        <time>2022-07-13T09:37:35Z</time>
      </trkpt>
      <trkpt lat="47.139610033482313" lon="-0.148230018094182">
        <ele>30</ele>
        <time>2022-07-13T09:37:37Z</time>
      </trkpt>
      <trkpt lat="47.139610033482313" lon="-0.148279974237084">
        <ele>29</ele>
        <time>2022-07-13T09:37:39Z</time>
      </trkpt>
      <trkpt lat="47.139599975198507" lon="-0.148320039734244">
        <ele>29</ele>
        <time>2022-07-13T09:37:41Z</time>
      </trkpt>
      <trkpt lat="47.139580026268959" lon="-0.148360021412373">
        <ele>28</ele>
        <time>2022-07-13T09:37:43Z</time>
      </trkpt>
      <trkpt lat="47.139569967985153" lon="-0.148409977555275">
        <ele>28</ele>
        <time>2022-07-13T09:37:45Z</time>
      </trkpt>
      <trkpt lat="47.139559993520379" lon="-0.148449959233403">
        <ele>28</ele>
        <time>2022-07-13T09:37:47Z</time>
      </trkpt>
      <trkpt lat="47.139539960771799" lon="-0.148490024730563">
        <ele>27</ele>
        <time>2022-07-13T09:37:49Z</time>
      </trkpt>
      <trkpt lat="47.139529986307025" lon="-0.148550039157271">
        <ele>27</ele>
        <time>2022-07-13T09:37:52Z</time>
      </trkpt>
      <trkpt lat="47.139520011842251" lon="-0.148599995300174">
        <ele>26</ele>
        <time>2022-07-13T09:37:53Z</time>
      </trkpt>
      <trkpt lat="47.139499979093671" lon="-0.148650035262108">
        <ele>25</ele>
        <time>2022-07-13T09:37:55Z</time>
      </trkpt>
      <trkpt lat="47.139469971880317" lon="-0.14869999140501">
        <ele>25</ele>
        <time>2022-07-13T09:37:57Z</time>
      </trkpt>
      <trkpt lat="47.139450022950768" lon="-0.148760005831718">
        <ele>25</ele>
        <time>2022-07-13T09:37:59Z</time>
      </trkpt>
      <trkpt lat="47.139420015737414" lon="-0.148809961974621">
        <ele>25</ele>
        <time>2022-07-13T09:38:01Z</time>
      </trkpt>
      <trkpt lat="47.13941004127264" lon="-0.148869976401329">
        <ele>25</ele>
        <time>2022-07-13T09:38:03Z</time>
      </trkpt>
      <trkpt lat="47.13939000852406" lon="-0.148939965292811">
        <ele>25</ele>
        <time>2022-07-13T09:38:05Z</time>
      </trkpt>
      <trkpt lat="47.139380034059286" lon="-0.149010038003325">
        <ele>24</ele>
        <time>2022-07-13T09:38:07Z</time>
      </trkpt>
      <trkpt lat="47.13936997577548" lon="-0.149090001359582">
        <ele>24</ele>
        <time>2022-07-13T09:38:09Z</time>
      </trkpt>
      <trkpt lat="47.139360001310706" lon="-0.149159990251064">
        <ele>23</ele>
        <time>2022-07-13T09:38:11Z</time>
      </trkpt>
      <trkpt lat="47.139350026845932" lon="-0.149220004677773">
        <ele>23</ele>
        <time>2022-07-13T09:38:12Z</time>
      </trkpt>
      <trkpt lat="47.139339968562126" lon="-0.149259986355901">
        <ele>23</ele>
        <time>2022-07-13T09:38:13Z</time>
      </trkpt>
      <trkpt lat="47.139329994097352" lon="-0.149329975247383">
        <ele>23</ele>
        <time>2022-07-13T09:38:15Z</time>
      </trkpt>
      <trkpt lat="47.139320019632578" lon="-0.149399964138865">
        <ele>24</ele>
        <time>2022-07-13T09:38:17Z</time>
      </trkpt>
      <trkpt lat="47.139309961348772" lon="-0.149459978565574">
        <ele>24</ele>
        <time>2022-07-13T09:38:18Z</time>
      </trkpt>
      <trkpt lat="47.139299986883998" lon="-0.149499960243702">
        <ele>24</ele>
        <time>2022-07-13T09:38:19Z</time>
      </trkpt>
      <trkpt lat="47.139290012419224" lon="-0.149550000205636">
        <ele>24</ele>
        <time>2022-07-13T09:38:20Z</time>
      </trkpt>
      <trkpt lat="47.13928003795445" lon="-0.14960004016757">
        <ele>24</ele>
        <time>2022-07-13T09:38:21Z</time>
      </trkpt>
      <trkpt lat="47.139269979670644" lon="-0.149640021845698">
        <ele>24</ele>
        <time>2022-07-13T09:38:22Z</time>
      </trkpt>
      <trkpt lat="47.13926000520587" lon="-0.149680003523827">
        <ele>24</ele>
        <time>2022-07-13T09:38:23Z</time>
      </trkpt>
      <trkpt lat="47.13926000520587" lon="-0.149719985201955">
        <ele>24</ele>
        <time>2022-07-13T09:38:24Z</time>
      </trkpt>
      <trkpt lat="47.139250030741096" lon="-0.149759966880083">
        <ele>24</ele>
        <time>2022-07-13T09:38:25Z</time>
      </trkpt>
      <trkpt lat="47.13923997245729" lon="-0.149810006842017">
        <ele>24</ele>
        <time>2022-07-13T09:38:26Z</time>
      </trkpt>
      <trkpt lat="47.139229997992516" lon="-0.149849988520145">
        <ele>24</ele>
        <time>2022-07-13T09:38:27Z</time>
      </trkpt>
      <trkpt lat="47.139220023527741" lon="-0.149889970198274">
        <ele>24</ele>
        <time>2022-07-13T09:38:28Z</time>
      </trkpt>
      <trkpt lat="47.139209965243936" lon="-0.149919977411628">
        <ele>24</ele>
        <time>2022-07-13T09:38:29Z</time>
      </trkpt>
      <trkpt lat="47.139199990779161" lon="-0.149959959089756">
        <ele>24</ele>
        <time>2022-07-13T09:38:30Z</time>
      </trkpt>
      <trkpt lat="47.139190016314387" lon="-0.150000024586916">
        <ele>24</ele>
        <time>2022-07-13T09:38:31Z</time>
      </trkpt>
      <trkpt lat="47.139169983565807" lon="-0.150060039013624">
        <ele>24</ele>
        <time>2022-07-13T09:38:33Z</time>
      </trkpt>
      <trkpt lat="47.139139976352453" lon="-0.150119969621301">
        <ele>25</ele>
        <time>2022-07-13T09:38:35Z</time>
      </trkpt>
      <trkpt lat="47.139130001887679" lon="-0.150160035118461">
        <ele>25</ele>
        <time>2022-07-13T09:38:36Z</time>
      </trkpt>
      <trkpt lat="47.139109969139099" lon="-0.150200016796589">
        <ele>25</ele>
        <time>2022-07-13T09:38:37Z</time>
      </trkpt>
      <trkpt lat="47.139090020209551" lon="-0.150239998474717">
        <ele>25</ele>
        <time>2022-07-13T09:38:38Z</time>
      </trkpt>
      <trkpt lat="47.139079961925745" lon="-0.150279980152845">
        <ele>25</ele>
        <time>2022-07-13T09:38:39Z</time>
      </trkpt>
      <trkpt lat="47.139069987460971" lon="-0.150319961830974">
        <ele>25</ele>
        <time>2022-07-13T09:38:40Z</time>
      </trkpt>
      <trkpt lat="47.139050038531423" lon="-0.150349969044328">
        <ele>25</ele>
        <time>2022-07-13T09:38:41Z</time>
      </trkpt>
      <trkpt lat="47.139030005782843" lon="-0.150390034541488">
        <ele>25</ele>
        <time>2022-07-13T09:38:42Z</time>
      </trkpt>
      <trkpt lat="47.139009973034263" lon="-0.150420041754842">
        <ele>25</ele>
        <time>2022-07-13T09:38:43Z</time>
      </trkpt>
      <trkpt lat="47.138979965820909" lon="-0.15046002343297">
        <ele>25</ele>
        <time>2022-07-13T09:38:45Z</time>
      </trkpt>
      <trkpt lat="47.13896001689136" lon="-0.150500005111098">
        <ele>25</ele>
        <time>2022-07-13T09:39:02Z</time>
      </trkpt>
      <trkpt lat="47.13893998414278" lon="-0.150530012324452">
        <ele>25</ele>
        <time>2022-07-13T09:39:04Z</time>
      </trkpt>
      <trkpt lat="47.138930009678006" lon="-0.150569994002581">
        <ele>25</ele>
        <time>2022-07-13T09:39:07Z</time>
      </trkpt>
      <trkpt lat="47.138900002464652" lon="-0.150620033964515">
        <ele>24</ele>
        <time>2022-07-13T09:39:10Z</time>
      </trkpt>
      <trkpt lat="47.138879969716072" lon="-0.150660015642643">
        <ele>24</ele>
        <time>2022-07-13T09:39:13Z</time>
      </trkpt>
      <trkpt lat="47.138860020786524" lon="-0.150699997320771">
        <ele>24</ele>
        <time>2022-07-13T09:39:15Z</time>
      </trkpt>
      <trkpt lat="47.138839988037944" lon="-0.150739978998899">
        <ele>24</ele>
        <time>2022-07-13T09:39:18Z</time>
      </trkpt>
      <trkpt lat="47.138820039108396" lon="-0.150779960677028">
        <ele>23</ele>
        <time>2022-07-13T09:39:20Z</time>
      </trkpt>
      <trkpt lat="47.138800006359816" lon="-0.150820026174188">
        <ele>22</ele>
        <time>2022-07-13T09:39:22Z</time>
      </trkpt>
      <trkpt lat="47.138769999146461" lon="-0.150860007852316">
        <ele>22</ele>
        <time>2022-07-13T09:39:24Z</time>
      </trkpt>
      <trkpt lat="47.138760024681687" lon="-0.150899989530444">
        <ele>22</ele>
        <time>2022-07-13T09:39:26Z</time>
      </trkpt>
      <trkpt lat="47.138739991933107" lon="-0.150929996743798">
        <ele>22</ele>
        <time>2022-07-13T09:39:28Z</time>
      </trkpt>
      <trkpt lat="47.138719959184527" lon="-0.150969978421927">
        <ele>21</ele>
        <time>2022-07-13T09:39:31Z</time>
      </trkpt>
      <trkpt lat="47.138700010254979" lon="-0.151009960100055">
        <ele>21</ele>
        <time>2022-07-13T09:39:33Z</time>
      </trkpt>
      <trkpt lat="47.138679977506399" lon="-0.151050025597215">
        <ele>21</ele>
        <time>2022-07-13T09:39:36Z</time>
      </trkpt>
      <trkpt lat="47.138670003041625" lon="-0.151099981740117">
        <ele>20</ele>
        <time>2022-07-13T09:39:39Z</time>
      </trkpt>
      <trkpt lat="47.138670003041625" lon="-0.151150021702051">
        <ele>20</ele>
        <time>2022-07-13T09:39:41Z</time>
      </trkpt>
      <trkpt lat="47.138660028576851" lon="-0.151199977844954">
        <ele>20</ele>
        <time>2022-07-13T09:39:44Z</time>
      </trkpt>
      <trkpt lat="47.138660028576851" lon="-0.151239959523082">
        <ele>19</ele>
        <time>2022-07-13T09:39:46Z</time>
      </trkpt>
      <trkpt lat="47.138649970293045" lon="-0.151280025020242">
        <ele>19</ele>
        <time>2022-07-13T09:39:48Z</time>
      </trkpt>
      <trkpt lat="47.138639995828271" lon="-0.15132000669837">
        <ele>20</ele>
        <time>2022-07-13T09:39:50Z</time>
      </trkpt>
      <trkpt lat="47.138630021363497" lon="-0.151359988376498">
        <ele>20</ele>
        <time>2022-07-13T09:39:52Z</time>
      </trkpt>
      <trkpt lat="47.138630021363497" lon="-0.151410028338432">
        <ele>21</ele>
        <time>2022-07-13T09:39:54Z</time>
      </trkpt>
      <trkpt lat="47.138619963079691" lon="-0.151459984481335">
        <ele>21</ele>
        <time>2022-07-13T09:39:56Z</time>
      </trkpt>
      <trkpt lat="47.138630021363497" lon="-0.151499966159463">
        <ele>20</ele>
        <time>2022-07-13T09:39:58Z</time>
      </trkpt>
      <trkpt lat="47.138619963079691" lon="-0.151540031656623">
        <ele>20</ele>
        <time>2022-07-13T09:40:00Z</time>
      </trkpt>
      <trkpt lat="47.138609988614917" lon="-0.151589987799525">
        <ele>21</ele>
        <time>2022-07-13T09:40:03Z</time>
      </trkpt>
      <trkpt lat="47.138609988614917" lon="-0.151640027761459">
        <ele>21</ele>
        <time>2022-07-13T09:40:05Z</time>
      </trkpt>
      <trkpt lat="47.138600014150143" lon="-0.151699958369136">
        <ele>21</ele>
        <time>2022-07-13T09:40:07Z</time>
      </trkpt>
      <trkpt lat="47.138590039685369" lon="-0.15174999833107">
        <ele>21</ele>
        <time>2022-07-13T09:40:09Z</time>
      </trkpt>
      <trkpt lat="47.138590039685369" lon="-0.151810012757778">
        <ele>22</ele>
        <time>2022-07-13T09:40:11Z</time>
      </trkpt>
      <trkpt lat="47.138579981401563" lon="-0.151880001649261">
        <ele>22</ele>
        <time>2022-07-13T09:40:13Z</time>
      </trkpt>
      <trkpt lat="47.138570006936789" lon="-0.151959965005517">
        <ele>22</ele>
        <time>2022-07-13T09:40:15Z</time>
      </trkpt>
      <trkpt lat="47.138549974188209" lon="-0.152030037716031">
        <ele>22</ele>
        <time>2022-07-13T09:40:17Z</time>
      </trkpt>
      <trkpt lat="47.138539999723434" lon="-0.152079993858933">
        <ele>23</ele>
        <time>2022-07-13T09:40:18Z</time>
      </trkpt>
      <trkpt lat="47.138519966974854" lon="-0.152140008285642">
        <ele>23</ele>
        <time>2022-07-13T09:40:20Z</time>
      </trkpt>
      <trkpt lat="47.138500018045306" lon="-0.15217998996377">
        <ele>23</ele>
        <time>2022-07-13T09:40:21Z</time>
      </trkpt>
      <trkpt lat="47.1384899597615" lon="-0.152219971641898">
        <ele>22</ele>
        <time>2022-07-13T09:40:22Z</time>
      </trkpt>
      <trkpt lat="47.138479985296726" lon="-0.152279986068606">
        <ele>22</ele>
        <time>2022-07-13T09:40:24Z</time>
      </trkpt>
      <trkpt lat="47.138460036367178" lon="-0.152349974960089">
        <ele>22</ele>
        <time>2022-07-13T09:40:26Z</time>
      </trkpt>
      <trkpt lat="47.138449978083372" lon="-0.152400014922023">
        <ele>23</ele>
        <time>2022-07-13T09:40:27Z</time>
      </trkpt>
      <trkpt lat="47.138430029153824" lon="-0.152460029348731">
        <ele>22</ele>
        <time>2022-07-13T09:40:29Z</time>
      </trkpt>
      <trkpt lat="47.138409996405244" lon="-0.152500011026859">
        <ele>22</ele>
        <time>2022-07-13T09:40:30Z</time>
      </trkpt>
      <trkpt lat="47.138389963656664" lon="-0.152539992704988">
        <ele>22</ele>
        <time>2022-07-13T09:40:31Z</time>
      </trkpt>
      <trkpt lat="47.138360040262341" lon="-0.152579974383116">
        <ele>22</ele>
        <time>2022-07-13T09:40:33Z</time>
      </trkpt>
      <trkpt lat="47.138330033048987" lon="-0.15263001434505">
        <ele>21</ele>
        <time>2022-07-13T09:40:35Z</time>
      </trkpt>
      <trkpt lat="47.138300025835633" lon="-0.152690028771758">
        <ele>21</ele>
        <time>2022-07-13T09:40:37Z</time>
      </trkpt>
      <trkpt lat="47.138289967551827" lon="-0.152749959379435">
        <ele>20</ele>
        <time>2022-07-13T09:40:39Z</time>
      </trkpt>
      <trkpt lat="47.138279993087053" lon="-0.152799999341369">
        <ele>20</ele>
        <time>2022-07-13T09:40:41Z</time>
      </trkpt>
      <trkpt lat="47.138289967551827" lon="-0.152850039303303">
        <ele>20</ele>
        <time>2022-07-13T09:40:43Z</time>
      </trkpt>
      <trkpt lat="47.138310000300407" lon="-0.152899995446205">
        <ele>20</ele>
        <time>2022-07-13T09:40:45Z</time>
      </trkpt>
      <trkpt lat="47.138319974765182" lon="-0.152939977124333">
        <ele>20</ele>
        <time>2022-07-13T09:40:47Z</time>
      </trkpt>
      <trkpt lat="47.138340007513762" lon="-0.152979958802462">
        <ele>21</ele>
        <time>2022-07-13T09:40:49Z</time>
      </trkpt>
      <trkpt lat="47.138349981978536" lon="-0.153029998764396">
        <ele>21</ele>
        <time>2022-07-13T09:40:51Z</time>
      </trkpt>
      <trkpt lat="47.138370014727116" lon="-0.153069980442524">
        <ele>21</ele>
        <time>2022-07-13T09:40:53Z</time>
      </trkpt>
      <trkpt lat="47.13837998919189" lon="-0.153129994869232">
        <ele>21</ele>
        <time>2022-07-13T09:40:55Z</time>
      </trkpt>
      <trkpt lat="47.138370014727116" lon="-0.153180034831166">
        <ele>21</ele>
        <time>2022-07-13T09:40:58Z</time>
      </trkpt>
      <trkpt lat="47.138360040262341" lon="-0.153220016509295">
        <ele>21</ele>
        <time>2022-07-13T09:41:00Z</time>
      </trkpt>
      <trkpt lat="47.138340007513762" lon="-0.153269972652197">
        <ele>21</ele>
        <time>2022-07-13T09:41:02Z</time>
      </trkpt>
      <trkpt lat="47.138310000300407" lon="-0.153310038149357">
        <ele>21</ele>
        <time>2022-07-13T09:41:04Z</time>
      </trkpt>
      <trkpt lat="47.138279993087053" lon="-0.153350019827485">
        <ele>21</ele>
        <time>2022-07-13T09:41:06Z</time>
      </trkpt>
      <trkpt lat="47.138259960338473" lon="-0.153380027040839">
        <ele>21</ele>
        <time>2022-07-13T09:41:08Z</time>
      </trkpt>
      <trkpt lat="47.138230036944151" lon="-0.153420008718967">
        <ele>20</ele>
        <time>2022-07-13T09:41:10Z</time>
      </trkpt>
      <trkpt lat="47.138210004195571" lon="-0.15346996486187">
        <ele>20</ele>
        <time>2022-07-13T09:41:12Z</time>
      </trkpt>
      <trkpt lat="47.138179996982217" lon="-0.153529979288578">
        <ele>21</ele>
        <time>2022-07-13T09:41:14Z</time>
      </trkpt>
      <trkpt lat="47.138140015304089" lon="-0.153589993715286">
        <ele>21</ele>
        <time>2022-07-13T09:41:16Z</time>
      </trkpt>
      <trkpt lat="47.138119982555509" lon="-0.153629975393415">
        <ele>21</ele>
        <time>2022-07-13T09:41:17Z</time>
      </trkpt>
      <trkpt lat="47.13810003362596" lon="-0.153659982606769">
        <ele>21</ele>
        <time>2022-07-13T09:41:18Z</time>
      </trkpt>
      <trkpt lat="47.13808000087738" lon="-0.153689989820123">
        <ele>21</ele>
        <time>2022-07-13T09:41:19Z</time>
      </trkpt>
      <trkpt lat="47.138049993664026" lon="-0.153740029782057">
        <ele>21</ele>
        <time>2022-07-13T09:41:21Z</time>
      </trkpt>
      <trkpt lat="47.138019986450672" lon="-0.153799960389733">
        <ele>21</ele>
        <time>2022-07-13T09:41:23Z</time>
      </trkpt>
      <trkpt lat="47.137989979237318" lon="-0.153859974816442">
        <ele>21</ele>
        <time>2022-07-13T09:41:25Z</time>
      </trkpt>
      <trkpt lat="47.13797003030777" lon="-0.153929963707924">
        <ele>21</ele>
        <time>2022-07-13T09:41:27Z</time>
      </trkpt>
      <trkpt lat="47.13794999755919" lon="-0.153970029205084">
        <ele>22</ele>
        <time>2022-07-13T09:41:28Z</time>
      </trkpt>
      <trkpt lat="47.137940023094416" lon="-0.154010010883212">
        <ele>22</ele>
        <time>2022-07-13T09:41:29Z</time>
      </trkpt>
      <trkpt lat="47.137910015881062" lon="-0.15407002530992">
        <ele>22</ele>
        <time>2022-07-13T09:41:31Z</time>
      </trkpt>
      <trkpt lat="47.137889983132482" lon="-0.154110006988049">
        <ele>22</ele>
        <time>2022-07-13T09:41:32Z</time>
      </trkpt>
      <trkpt lat="47.137870034202933" lon="-0.154149988666177">
        <ele>23</ele>
        <time>2022-07-13T09:41:33Z</time>
      </trkpt>
      <trkpt lat="47.137850001454353" lon="-0.154179995879531">
        <ele>23</ele>
        <time>2022-07-13T09:41:34Z</time>
      </trkpt>
      <trkpt lat="47.137829968705773" lon="-0.154230035841465">
        <ele>23</ele>
        <time>2022-07-13T09:41:36Z</time>
      </trkpt>
      <trkpt lat="47.137799961492419" lon="-0.154289966449142">
        <ele>23</ele>
        <time>2022-07-13T09:41:38Z</time>
      </trkpt>
      <trkpt lat="47.137770038098097" lon="-0.15434998087585">
        <ele>23</ele>
        <time>2022-07-13T09:41:40Z</time>
      </trkpt>
      <trkpt lat="47.137740030884743" lon="-0.154400020837784">
        <ele>23</ele>
        <time>2022-07-13T09:41:42Z</time>
      </trkpt>
      <trkpt lat="47.137710023671389" lon="-0.154460035264492">
        <ele>23</ele>
        <time>2022-07-13T09:41:44Z</time>
      </trkpt>
      <trkpt lat="47.137680016458035" lon="-0.154509991407394">
        <ele>23</ele>
        <time>2022-07-13T09:41:46Z</time>
      </trkpt>
      <trkpt lat="47.13765000924468" lon="-0.154570005834103">
        <ele>23</ele>
        <time>2022-07-13T09:41:48Z</time>
      </trkpt>
      <trkpt lat="47.137620002031326" lon="-0.154630020260811">
        <ele>23</ele>
        <time>2022-07-13T09:41:50Z</time>
      </trkpt>
      <trkpt lat="47.137580020353198" lon="-0.154679976403713">
        <ele>23</ele>
        <time>2022-07-13T09:41:52Z</time>
      </trkpt>
      <trkpt lat="47.137550013139844" lon="-0.154730016365647">
        <ele>23</ele>
        <time>2022-07-13T09:41:54Z</time>
      </trkpt>
      <trkpt lat="47.13752000592649" lon="-0.15477997250855">
        <ele>23</ele>
        <time>2022-07-13T09:41:56Z</time>
      </trkpt>
      <trkpt lat="47.137489998713136" lon="-0.15482003800571">
        <ele>23</ele>
        <time>2022-07-13T09:41:58Z</time>
      </trkpt>
      <trkpt lat="47.137459991499782" lon="-0.154869994148612">
        <ele>23</ele>
        <time>2022-07-13T09:42:00Z</time>
      </trkpt>
      <trkpt lat="47.137429984286427" lon="-0.154920034110546">
        <ele>24</ele>
        <time>2022-07-13T09:42:02Z</time>
      </trkpt>
      <trkpt lat="47.137399977073073" lon="-0.154979964718223">
        <ele>24</ele>
        <time>2022-07-13T09:42:04Z</time>
      </trkpt>
      <trkpt lat="47.137380028143525" lon="-0.155020030215383">
        <ele>24</ele>
        <time>2022-07-13T09:42:05Z</time>
      </trkpt>
      <trkpt lat="47.137350020930171" lon="-0.155060011893511">
        <ele>24</ele>
        <time>2022-07-13T09:42:07Z</time>
      </trkpt>
      <trkpt lat="47.137320013716817" lon="-0.155109968036413">
        <ele>24</ele>
        <time>2022-07-13T09:42:09Z</time>
      </trkpt>
      <trkpt lat="47.137299980968237" lon="-0.155150033533573">
        <ele>24</ele>
        <time>2022-07-13T09:42:11Z</time>
      </trkpt>
      <trkpt lat="47.137280032038689" lon="-0.155190015211701">
        <ele>24</ele>
        <time>2022-07-13T09:42:13Z</time>
      </trkpt>
      <trkpt lat="47.137259999290109" lon="-0.15522999688983">
        <ele>24</ele>
        <time>2022-07-13T09:42:15Z</time>
      </trkpt>
      <trkpt lat="47.137239966541529" lon="-0.155269978567958">
        <ele>24</ele>
        <time>2022-07-13T09:42:17Z</time>
      </trkpt>
      <trkpt lat="47.13722001761198" lon="-0.155309960246086">
        <ele>24</ele>
        <time>2022-07-13T09:42:19Z</time>
      </trkpt>
      <trkpt lat="47.137209959328175" lon="-0.15536000020802">
        <ele>24</ele>
        <time>2022-07-13T09:42:21Z</time>
      </trkpt>
      <trkpt lat="47.137190010398626" lon="-0.155399981886148">
        <ele>23</ele>
        <time>2022-07-13T09:42:23Z</time>
      </trkpt>
      <trkpt lat="47.137180035933852" lon="-0.155429989099503">
        <ele>23</ele>
        <time>2022-07-13T09:42:25Z</time>
      </trkpt>
      <trkpt lat="47.137160003185272" lon="-0.155469970777631">
        <ele>22</ele>
        <time>2022-07-13T09:42:27Z</time>
      </trkpt>
      <trkpt lat="47.137139970436692" lon="-0.155499977990985">
        <ele>22</ele>
        <time>2022-07-13T09:42:29Z</time>
      </trkpt>
      <trkpt lat="47.137120021507144" lon="-0.155529985204339">
        <ele>21</ele>
        <time>2022-07-13T09:42:31Z</time>
      </trkpt>
      <trkpt lat="47.13709001429379" lon="-0.155569966882467">
        <ele>21</ele>
        <time>2022-07-13T09:42:33Z</time>
      </trkpt>
      <trkpt lat="47.137060007080436" lon="-0.155599974095821">
        <ele>20</ele>
        <time>2022-07-13T09:42:35Z</time>
      </trkpt>
      <trkpt lat="47.137020025402308" lon="-0.155620006844401">
        <ele>20</ele>
        <time>2022-07-13T09:42:37Z</time>
      </trkpt>
      <trkpt lat="47.136990018188953" lon="-0.155629981309175">
        <ele>20</ele>
        <time>2022-07-13T09:42:39Z</time>
      </trkpt>
      <trkpt lat="47.136950036510825" lon="-0.155629981309175">
        <ele>21</ele>
        <time>2022-07-13T09:42:41Z</time>
      </trkpt>
      <trkpt lat="47.136920029297471" lon="-0.155610032379627">
        <ele>21</ele>
        <time>2022-07-13T09:42:43Z</time>
      </trkpt>
      <trkpt lat="47.136890022084117" lon="-0.155580025166273">
        <ele>21</ele>
        <time>2022-07-13T09:42:45Z</time>
      </trkpt>
      <trkpt lat="47.136869989335537" lon="-0.155550017952919">
        <ele>22</ele>
        <time>2022-07-13T09:42:47Z</time>
      </trkpt>
      <trkpt lat="47.136869989335537" lon="-0.155499977990985">
        <ele>23</ele>
        <time>2022-07-13T09:42:50Z</time>
      </trkpt>
      <trkpt lat="47.136860014870763" lon="-0.155450021848083">
        <ele>24</ele>
        <time>2022-07-13T09:43:17Z</time>
      </trkpt>
      <trkpt lat="47.136839982122183" lon="-0.155429989099503">
        <ele>24</ele>
        <time>2022-07-13T09:43:20Z</time>
      </trkpt>
      <trkpt lat="47.136809974908829" lon="-0.155429989099503">
        <ele>25</ele>
        <time>2022-07-13T09:43:22Z</time>
      </trkpt>
      <trkpt lat="47.136779967695475" lon="-0.155429989099503">
        <ele>25</ele>
        <time>2022-07-13T09:43:25Z</time>
      </trkpt>
      <trkpt lat="47.136749960482121" lon="-0.155429989099503">
        <ele>25</ele>
        <time>2022-07-13T09:43:27Z</time>
      </trkpt>
      <trkpt lat="47.136709978803992" lon="-0.155420014634728">
        <ele>25</ele>
        <time>2022-07-13T09:43:30Z</time>
      </trkpt>
      <trkpt lat="47.136679971590638" lon="-0.155410040169954">
        <ele>26</ele>
        <time>2022-07-13T09:43:32Z</time>
      </trkpt>
      <trkpt lat="47.13663998991251" lon="-0.155390007421374">
        <ele>26</ele>
        <time>2022-07-13T09:43:34Z</time>
      </trkpt>
      <trkpt lat="47.136609982699156" lon="-0.15536000020802">
        <ele>26</ele>
        <time>2022-07-13T09:43:37Z</time>
      </trkpt>
      <trkpt lat="47.136579975485802" lon="-0.15533996745944">
        <ele>26</ele>
        <time>2022-07-13T09:43:39Z</time>
      </trkpt>
      <trkpt lat="47.136560026556253" lon="-0.155320018529892">
        <ele>25</ele>
        <time>2022-07-13T09:43:41Z</time>
      </trkpt>
      <trkpt lat="47.136530019342899" lon="-0.155299985781312">
        <ele>25</ele>
        <time>2022-07-13T09:43:43Z</time>
      </trkpt>
      <trkpt lat="47.136509986594319" lon="-0.155269978567958">
        <ele>26</ele>
        <time>2022-07-13T09:43:45Z</time>
      </trkpt>
      <trkpt lat="47.136479979380965" lon="-0.155239971354604">
        <ele>26</ele>
        <time>2022-07-13T09:43:47Z</time>
      </trkpt>
      <trkpt lat="47.136460030451417" lon="-0.15520996414125">
        <ele>26</ele>
        <time>2022-07-13T09:43:49Z</time>
      </trkpt>
      <trkpt lat="47.136449972167611" lon="-0.155169982463121">
        <ele>27</ele>
        <time>2022-07-13T09:43:51Z</time>
      </trkpt>
      <trkpt lat="47.136430023238063" lon="-0.155139975249767">
        <ele>27</ele>
        <time>2022-07-13T09:43:53Z</time>
      </trkpt>
      <trkpt lat="47.136400016024709" lon="-0.155109968036413">
        <ele>28</ele>
        <time>2022-07-13T09:43:55Z</time>
      </trkpt>
      <trkpt lat="47.136379983276129" lon="-0.155090019106865">
        <ele>28</ele>
        <time>2022-07-13T09:43:57Z</time>
      </trkpt>
      <trkpt lat="47.136349976062775" lon="-0.155060011893511">
        <ele>28</ele>
        <time>2022-07-13T09:43:59Z</time>
      </trkpt>
      <trkpt lat="47.136330027133226" lon="-0.155030004680157">
        <ele>28</ele>
        <time>2022-07-13T09:44:01Z</time>
      </trkpt>
      <trkpt lat="47.136300019919872" lon="-0.154999997466803">
        <ele>29</ele>
        <time>2022-07-13T09:44:03Z</time>
      </trkpt>
      <trkpt lat="47.136270012706518" lon="-0.154979964718223">
        <ele>29</ele>
        <time>2022-07-13T09:44:05Z</time>
      </trkpt>
      <trkpt lat="47.136240005493164" lon="-0.1549500413239">
        <ele>29</ele>
        <time>2022-07-13T09:44:07Z</time>
      </trkpt>
      <trkpt lat="47.13620999827981" lon="-0.15493000857532">
        <ele>29</ele>
        <time>2022-07-13T09:44:09Z</time>
      </trkpt>
      <trkpt lat="47.13618996553123" lon="-0.15490997582674">
        <ele>29</ele>
        <time>2022-07-13T09:44:11Z</time>
      </trkpt>
      <trkpt lat="47.136149983853102" lon="-0.154890026897192">
        <ele>29</ele>
        <time>2022-07-13T09:44:14Z</time>
      </trkpt>
      <trkpt lat="47.136119976639748" lon="-0.154869994148612">
        <ele>29</ele>
        <time>2022-07-13T09:44:16Z</time>
      </trkpt>
      <trkpt lat="47.136089969426394" lon="-0.154860019683838">
        <ele>29</ele>
        <time>2022-07-13T09:44:18Z</time>
      </trkpt>
      <trkpt lat="47.136049987748265" lon="-0.154830012470484">
        <ele>29</ele>
        <time>2022-07-13T09:44:20Z</time>
      </trkpt>
      <trkpt lat="47.136019980534911" lon="-0.154809979721904">
        <ele>29</ele>
        <time>2022-07-13T09:44:22Z</time>
      </trkpt>
      <trkpt lat="47.136000031605363" lon="-0.15477997250855">
        <ele>29</ele>
        <time>2022-07-13T09:44:24Z</time>
      </trkpt>
      <trkpt lat="47.135970024392009" lon="-0.154749965295196">
        <ele>29</ele>
        <time>2022-07-13T09:44:26Z</time>
      </trkpt>
      <trkpt lat="47.135940017178655" lon="-0.154730016365647">
        <ele>29</ele>
        <time>2022-07-13T09:44:28Z</time>
      </trkpt>
      <trkpt lat="47.135919984430075" lon="-0.154700009152293">
        <ele>28</ele>
        <time>2022-07-13T09:44:30Z</time>
      </trkpt>
      <trkpt lat="47.135889977216721" lon="-0.154670001938939">
        <ele>29</ele>
        <time>2022-07-13T09:44:32Z</time>
      </trkpt>
      <trkpt lat="47.135859970003366" lon="-0.154639994725585">
        <ele>29</ele>
        <time>2022-07-13T09:44:34Z</time>
      </trkpt>
      <trkpt lat="47.135829962790012" lon="-0.154630020260811">
        <ele>29</ele>
        <time>2022-07-13T09:44:36Z</time>
      </trkpt>
      <trkpt lat="47.135789981111884" lon="-0.154639994725585">
        <ele>30</ele>
        <time>2022-07-13T09:44:38Z</time>
      </trkpt>
      <trkpt lat="47.13575997389853" lon="-0.154639994725585">
        <ele>30</ele>
        <time>2022-07-13T09:44:40Z</time>
      </trkpt>
      <trkpt lat="47.135729966685176" lon="-0.154630020260811">
        <ele>30</ele>
        <time>2022-07-13T09:44:43Z</time>
      </trkpt>
      <trkpt lat="47.135710017755628" lon="-0.154609987512231">
        <ele>30</ele>
        <time>2022-07-13T09:44:57Z</time>
      </trkpt>
      <trkpt lat="47.135689985007048" lon="-0.154579980298877">
        <ele>29</ele>
        <time>2022-07-13T09:44:59Z</time>
      </trkpt>
      <trkpt lat="47.135670036077499" lon="-0.154539998620749">
        <ele>29</ele>
        <time>2022-07-13T09:45:01Z</time>
      </trkpt>
      <trkpt lat="47.135640028864145" lon="-0.154519965872169">
        <ele>30</ele>
        <time>2022-07-13T09:45:03Z</time>
      </trkpt>
      <trkpt lat="47.135619996115565" lon="-0.15447998419404">
        <ele>30</ele>
        <time>2022-07-13T09:45:06Z</time>
      </trkpt>
      <trkpt lat="47.135589988902211" lon="-0.154460035264492">
        <ele>30</ele>
        <time>2022-07-13T09:45:08Z</time>
      </trkpt>
      <trkpt lat="47.135570039972663" lon="-0.154430028051138">
        <ele>31</ele>
        <time>2022-07-13T09:45:10Z</time>
      </trkpt>
      <trkpt lat="47.135550007224083" lon="-0.154409995302558">
        <ele>31</ele>
        <time>2022-07-13T09:45:12Z</time>
      </trkpt>
      <trkpt lat="47.135520000010729" lon="-0.154379988089204">
        <ele>32</ele>
        <time>2022-07-13T09:45:14Z</time>
      </trkpt>
      <trkpt lat="47.135499967262149" lon="-0.15434998087585">
        <ele>32</ele>
        <time>2022-07-13T09:45:16Z</time>
      </trkpt>
      <trkpt lat="47.135480018332601" lon="-0.154319973662496">
        <ele>33</ele>
        <time>2022-07-13T09:45:18Z</time>
      </trkpt>
      <trkpt lat="47.135450011119246" lon="-0.154270017519593">
        <ele>35</ele>
        <time>2022-07-13T09:45:20Z</time>
      </trkpt>
      <trkpt lat="47.135420003905892" lon="-0.154230035841465">
        <ele>35</ele>
        <time>2022-07-13T09:45:22Z</time>
      </trkpt>
      <trkpt lat="47.135380022227764" lon="-0.154179995879531">
        <ele>36</ele>
        <time>2022-07-13T09:45:24Z</time>
      </trkpt>
      <trkpt lat="47.135340040549636" lon="-0.154130039736629">
        <ele>36</ele>
        <time>2022-07-13T09:45:26Z</time>
      </trkpt>
      <trkpt lat="47.135299975052476" lon="-0.154089974239469">
        <ele>36</ele>
        <time>2022-07-13T09:45:28Z</time>
      </trkpt>
      <trkpt lat="47.135269967839122" lon="-0.154040018096566">
        <ele>36</ele>
        <time>2022-07-13T09:45:30Z</time>
      </trkpt>
      <trkpt lat="47.135239960625768" lon="-0.154000036418438">
        <ele>36</ele>
        <time>2022-07-13T09:45:32Z</time>
      </trkpt>
      <trkpt lat="47.135210037231445" lon="-0.153959970921278">
        <ele>36</ele>
        <time>2022-07-13T09:45:33Z</time>
      </trkpt>
      <trkpt lat="47.135190004482865" lon="-0.15394002199173">
        <ele>35</ele>
        <time>2022-07-13T09:45:34Z</time>
      </trkpt>
      <trkpt lat="47.135150022804737" lon="-0.153900040313601">
        <ele>35</ele>
        <time>2022-07-13T09:45:36Z</time>
      </trkpt>
      <trkpt lat="47.135120015591383" lon="-0.153850000351667">
        <ele>35</ele>
        <time>2022-07-13T09:45:38Z</time>
      </trkpt>
      <trkpt lat="47.135080033913255" lon="-0.153799960389733">
        <ele>34</ele>
        <time>2022-07-13T09:45:40Z</time>
      </trkpt>
      <trkpt lat="47.135039968416095" lon="-0.153759978711605">
        <ele>34</ele>
        <time>2022-07-13T09:45:42Z</time>
      </trkpt>
      <trkpt lat="47.134999986737967" lon="-0.153719997033477">
        <ele>34</ele>
        <time>2022-07-13T09:45:44Z</time>
      </trkpt>
      <trkpt lat="47.134969979524612" lon="-0.153680015355349">
        <ele>34</ele>
        <time>2022-07-13T09:45:46Z</time>
      </trkpt>
      <trkpt lat="47.134939972311258" lon="-0.153629975393415">
        <ele>34</ele>
        <time>2022-07-13T09:45:48Z</time>
      </trkpt>
      <trkpt lat="47.134909965097904" lon="-0.153580019250512">
        <ele>34</ele>
        <time>2022-07-13T09:45:50Z</time>
      </trkpt>
      <trkpt lat="47.134869983419776" lon="-0.153540037572384">
        <ele>34</ele>
        <time>2022-07-13T09:45:52Z</time>
      </trkpt>
      <trkpt lat="47.134830001741648" lon="-0.15348999761045">
        <ele>33</ele>
        <time>2022-07-13T09:45:54Z</time>
      </trkpt>
      <trkpt lat="47.134779961779714" lon="-0.153450015932322">
        <ele>33</ele>
        <time>2022-07-13T09:45:56Z</time>
      </trkpt>
      <trkpt lat="47.134750038385391" lon="-0.153429983183742">
        <ele>33</ele>
        <time>2022-07-13T09:45:57Z</time>
      </trkpt>
      <trkpt lat="47.134720031172037" lon="-0.153390001505613">
        <ele>33</ele>
        <time>2022-07-13T09:45:59Z</time>
      </trkpt>
      <trkpt lat="47.134679965674877" lon="-0.153350019827485">
        <ele>32</ele>
        <time>2022-07-13T09:46:01Z</time>
      </trkpt>
      <trkpt lat="47.134649958461523" lon="-0.153299979865551">
        <ele>32</ele>
        <time>2022-07-13T09:46:03Z</time>
      </trkpt>
      <trkpt lat="47.134609976783395" lon="-0.153250023722649">
        <ele>31</ele>
        <time>2022-07-13T09:46:05Z</time>
      </trkpt>
      <trkpt lat="47.134569995105267" lon="-0.153199983760715">
        <ele>31</ele>
        <time>2022-07-13T09:46:07Z</time>
      </trkpt>
      <trkpt lat="47.134539987891912" lon="-0.153160002082586">
        <ele>31</ele>
        <time>2022-07-13T09:46:09Z</time>
      </trkpt>
      <trkpt lat="47.134500006213784" lon="-0.153120020404458">
        <ele>31</ele>
        <time>2022-07-13T09:46:11Z</time>
      </trkpt>
      <trkpt lat="47.134460024535656" lon="-0.15308003872633">
        <ele>32</ele>
        <time>2022-07-13T09:46:13Z</time>
      </trkpt>
      <trkpt lat="47.134419959038496" lon="-0.153050031512976">
        <ele>32</ele>
        <time>2022-07-13T09:46:15Z</time>
      </trkpt>
      <trkpt lat="47.134379977360368" lon="-0.153029998764396">
        <ele>32</ele>
        <time>2022-07-13T09:46:16Z</time>
      </trkpt>
      <trkpt lat="47.13433999568224" lon="-0.153020024299622">
        <ele>32</ele>
        <time>2022-07-13T09:46:18Z</time>
      </trkpt>
      <trkpt lat="47.134290039539337" lon="-0.153009966015816">
        <ele>31</ele>
        <time>2022-07-13T09:46:20Z</time>
      </trkpt>
      <trkpt lat="47.134239999577403" lon="-0.152999991551042">
        <ele>31</ele>
        <time>2022-07-13T09:46:22Z</time>
      </trkpt>
      <trkpt lat="47.134200017899275" lon="-0.152979958802462">
        <ele>30</ele>
        <time>2022-07-13T09:46:24Z</time>
      </trkpt>
      <trkpt lat="47.134149977937341" lon="-0.152969984337687">
        <ele>30</ele>
        <time>2022-07-13T09:46:26Z</time>
      </trkpt>
      <trkpt lat="47.134100021794438" lon="-0.152950035408139">
        <ele>30</ele>
        <time>2022-07-13T09:46:28Z</time>
      </trkpt>
      <trkpt lat="47.13406004011631" lon="-0.152939977124333">
        <ele>30</ele>
        <time>2022-07-13T09:46:30Z</time>
      </trkpt>
      <trkpt lat="47.134010000154376" lon="-0.152939977124333">
        <ele>30</ele>
        <time>2022-07-13T09:46:32Z</time>
      </trkpt>
      <trkpt lat="47.133970018476248" lon="-0.152939977124333">
        <ele>30</ele>
        <time>2022-07-13T09:46:34Z</time>
      </trkpt>
      <trkpt lat="47.13393003679812" lon="-0.152939977124333">
        <ele>30</ele>
        <time>2022-07-13T09:46:36Z</time>
      </trkpt>
      <trkpt lat="47.13388997130096" lon="-0.152939977124333">
        <ele>31</ele>
        <time>2022-07-13T09:46:38Z</time>
      </trkpt>
      <trkpt lat="47.133849989622831" lon="-0.152939977124333">
        <ele>31</ele>
        <time>2022-07-13T09:46:40Z</time>
      </trkpt>
      <trkpt lat="47.133800033479929" lon="-0.152930002659559">
        <ele>31</ele>
        <time>2022-07-13T09:46:42Z</time>
      </trkpt>
      <trkpt lat="47.133759967982769" lon="-0.152930002659559">
        <ele>30</ele>
        <time>2022-07-13T09:46:44Z</time>
      </trkpt>
      <trkpt lat="47.133710011839867" lon="-0.152920028194785">
        <ele>31</ele>
        <time>2022-07-13T09:46:46Z</time>
      </trkpt>
      <trkpt lat="47.133670030161738" lon="-0.152920028194785">
        <ele>30</ele>
        <time>2022-07-13T09:46:48Z</time>
      </trkpt>
      <trkpt lat="47.133629964664578" lon="-0.152920028194785">
        <ele>30</ele>
        <time>2022-07-13T09:46:49Z</time>
      </trkpt>
      <trkpt lat="47.133600041270256" lon="-0.152920028194785">
        <ele>30</ele>
        <time>2022-07-13T09:46:50Z</time>
      </trkpt>
      <trkpt lat="47.133559975773096" lon="-0.152909969910979">
        <ele>30</ele>
        <time>2022-07-13T09:46:52Z</time>
      </trkpt>
      <trkpt lat="47.133519994094968" lon="-0.152890020981431">
        <ele>31</ele>
        <time>2022-07-13T09:46:54Z</time>
      </trkpt>
      <trkpt lat="47.13348001241684" lon="-0.152890020981431">
        <ele>32</ele>
        <time>2022-07-13T09:46:56Z</time>
      </trkpt>
      <trkpt lat="47.133450005203485" lon="-0.152890020981431">
        <ele>33</ele>
        <time>2022-07-13T09:46:58Z</time>
      </trkpt>
      <trkpt lat="47.133419997990131" lon="-0.152879962697625">
        <ele>34</ele>
        <time>2022-07-13T09:47:00Z</time>
      </trkpt>
      <trkpt lat="47.133380016312003" lon="-0.152879962697625">
        <ele>34</ele>
        <time>2022-07-13T09:47:02Z</time>
      </trkpt>
      <trkpt lat="47.133350009098649" lon="-0.152890020981431">
        <ele>34</ele>
        <time>2022-07-13T09:47:04Z</time>
      </trkpt>
      <trkpt lat="47.133310027420521" lon="-0.152899995446205">
        <ele>34</ele>
        <time>2022-07-13T09:47:06Z</time>
      </trkpt>
      <trkpt lat="47.133280020207167" lon="-0.152899995446205">
        <ele>35</ele>
        <time>2022-07-13T09:47:08Z</time>
      </trkpt>
      <trkpt lat="47.133240038529038" lon="-0.152899995446205">
        <ele>35</ele>
        <time>2022-07-13T09:47:10Z</time>
      </trkpt>
      <trkpt lat="47.133210031315684" lon="-0.152890020981431">
        <ele>35</ele>
        <time>2022-07-13T09:47:12Z</time>
      </trkpt>
      <trkpt lat="47.133169965818524" lon="-0.152890020981431">
        <ele>35</ele>
        <time>2022-07-13T09:47:14Z</time>
      </trkpt>
      <trkpt lat="47.13313995860517" lon="-0.152899995446205">
        <ele>34</ele>
        <time>2022-07-13T09:47:16Z</time>
      </trkpt>
      <trkpt lat="47.133099976927042" lon="-0.152899995446205">
        <ele>34</ele>
        <time>2022-07-13T09:47:18Z</time>
      </trkpt>
      <trkpt lat="47.133069969713688" lon="-0.152909969910979">
        <ele>35</ele>
        <time>2022-07-13T09:47:20Z</time>
      </trkpt>
      <trkpt lat="47.133039962500334" lon="-0.152930002659559">
        <ele>35</ele>
        <time>2022-07-13T09:47:22Z</time>
      </trkpt>
      <trkpt lat="47.133020013570786" lon="-0.152950035408139">
        <ele>35</ele>
        <time>2022-07-13T09:47:25Z</time>
      </trkpt>
      <trkpt lat="47.132990006357431" lon="-0.152969984337687">
        <ele>35</ele>
        <time>2022-07-13T09:47:27Z</time>
      </trkpt>
      <trkpt lat="47.132959999144077" lon="-0.152999991551042">
        <ele>35</ele>
        <time>2022-07-13T09:47:30Z</time>
      </trkpt>
      <trkpt lat="47.132939966395497" lon="-0.153029998764396">
        <ele>35</ele>
        <time>2022-07-13T09:47:32Z</time>
      </trkpt>
      <trkpt lat="47.132920017465949" lon="-0.153069980442524">
        <ele>35</ele>
        <time>2022-07-13T09:47:34Z</time>
      </trkpt>
      <trkpt lat="47.132899984717369" lon="-0.153109962120652">
        <ele>36</ele>
        <time>2022-07-13T09:47:36Z</time>
      </trkpt>
      <trkpt lat="47.132880035787821" lon="-0.153150027617812">
        <ele>36</ele>
        <time>2022-07-13T09:47:38Z</time>
      </trkpt>
      <trkpt lat="47.132860003039241" lon="-0.15319000929594">
        <ele>36</ele>
        <time>2022-07-13T09:47:40Z</time>
      </trkpt>
      <trkpt lat="47.132850028574467" lon="-0.153239965438843">
        <ele>37</ele>
        <time>2022-07-13T09:47:42Z</time>
      </trkpt>
      <trkpt lat="47.132839970290661" lon="-0.153280030936003">
        <ele>37</ele>
        <time>2022-07-13T09:47:44Z</time>
      </trkpt>
      <trkpt lat="47.132820021361113" lon="-0.153320012614131">
        <ele>38</ele>
        <time>2022-07-13T09:47:46Z</time>
      </trkpt>
      <trkpt lat="47.132799988612533" lon="-0.153359994292259">
        <ele>38</ele>
        <time>2022-07-13T09:47:48Z</time>
      </trkpt>
      <trkpt lat="47.132769981399179" lon="-0.153410034254193">
        <ele>39</ele>
        <time>2022-07-13T09:47:50Z</time>
      </trkpt>
      <trkpt lat="47.13275003246963" lon="-0.153450015932322">
        <ele>40</ele>
        <time>2022-07-13T09:47:52Z</time>
      </trkpt>
      <trkpt lat="47.13272999972105" lon="-0.153499972075224">
        <ele>41</ele>
        <time>2022-07-13T09:47:54Z</time>
      </trkpt>
      <trkpt lat="47.132720025256276" lon="-0.153540037572384">
        <ele>42</ele>
        <time>2022-07-13T09:47:56Z</time>
      </trkpt>
      <trkpt lat="47.13270996697247" lon="-0.153580019250512">
        <ele>43</ele>
        <time>2022-07-13T09:47:58Z</time>
      </trkpt>
      <trkpt lat="47.132699992507696" lon="-0.153629975393415">
        <ele>44</ele>
        <time>2022-07-13T09:48:00Z</time>
      </trkpt>
      <trkpt lat="47.132679959759116" lon="-0.153670040890574">
        <ele>45</ele>
        <time>2022-07-13T09:48:02Z</time>
      </trkpt>
      <trkpt lat="47.132669985294342" lon="-0.153719997033477">
        <ele>45</ele>
        <time>2022-07-13T09:48:04Z</time>
      </trkpt>
      <trkpt lat="47.132660010829568" lon="-0.153759978711605">
        <ele>44</ele>
        <time>2022-07-13T09:48:06Z</time>
      </trkpt>
      <trkpt lat="47.132639978080988" lon="-0.153799960389733">
        <ele>44</ele>
        <time>2022-07-13T09:48:08Z</time>
      </trkpt>
      <trkpt lat="47.132630003616214" lon="-0.153840025886893">
        <ele>44</ele>
        <time>2022-07-13T09:48:10Z</time>
      </trkpt>
      <trkpt lat="47.13262002915144" lon="-0.153880007565022">
        <ele>44</ele>
        <time>2022-07-13T09:48:12Z</time>
      </trkpt>
      <trkpt lat="47.132609970867634" lon="-0.153929963707924">
        <ele>44</ele>
        <time>2022-07-13T09:48:15Z</time>
      </trkpt>
      <trkpt lat="47.13259999640286" lon="-0.153980003669858">
        <ele>44</ele>
        <time>2022-07-13T09:48:18Z</time>
      </trkpt>
      <trkpt lat="47.13259999640286" lon="-0.15402995981276">
        <ele>44</ele>
        <time>2022-07-13T09:48:21Z</time>
      </trkpt>
      <trkpt lat="47.132590021938086" lon="-0.154079999774694">
        <ele>45</ele>
        <time>2022-07-13T09:48:24Z</time>
      </trkpt>
      <trkpt lat="47.13257996365428" lon="-0.154130039736629">
        <ele>46</ele>
        <time>2022-07-13T09:48:26Z</time>
      </trkpt>
      <trkpt lat="47.13257996365428" lon="-0.154179995879531">
        <ele>46</ele>
        <time>2022-07-13T09:48:28Z</time>
      </trkpt>
      <trkpt lat="47.132569989189506" lon="-0.154219977557659">
        <ele>46</ele>
        <time>2022-07-13T09:48:30Z</time>
      </trkpt>
      <trkpt lat="47.132560014724731" lon="-0.154259959235787">
        <ele>46</ele>
        <time>2022-07-13T09:48:32Z</time>
      </trkpt>
      <trkpt lat="47.132560014724731" lon="-0.154300024732947">
        <ele>47</ele>
        <time>2022-07-13T09:48:34Z</time>
      </trkpt>
      <trkpt lat="47.132550040259957" lon="-0.154340006411076">
        <ele>48</ele>
        <time>2022-07-13T09:48:36Z</time>
      </trkpt>
      <trkpt lat="47.132539981976151" lon="-0.154379988089204">
        <ele>48</ele>
        <time>2022-07-13T09:48:38Z</time>
      </trkpt>
      <trkpt lat="47.132530007511377" lon="-0.154419969767332">
        <ele>48</ele>
        <time>2022-07-13T09:48:40Z</time>
      </trkpt>
      <trkpt lat="47.132530007511377" lon="-0.154460035264492">
        <ele>48</ele>
        <time>2022-07-13T09:48:42Z</time>
      </trkpt>
      <trkpt lat="47.132520033046603" lon="-0.15450001694262">
        <ele>47</ele>
        <time>2022-07-13T09:48:44Z</time>
      </trkpt>
      <trkpt lat="47.132509974762797" lon="-0.154539998620749">
        <ele>47</ele>
        <time>2022-07-13T09:48:46Z</time>
      </trkpt>
      <trkpt lat="47.132500000298023" lon="-0.154590038582683">
        <ele>46</ele>
        <time>2022-07-13T09:48:49Z</time>
      </trkpt>
      <trkpt lat="47.132500000298023" lon="-0.154639994725585">
        <ele>46</ele>
        <time>2022-07-13T09:48:52Z</time>
      </trkpt>
      <trkpt lat="47.132490025833249" lon="-0.154679976403713">
        <ele>46</ele>
        <time>2022-07-13T09:48:55Z</time>
      </trkpt>
      <trkpt lat="47.132490025833249" lon="-0.154730016365647">
        <ele>46</ele>
        <time>2022-07-13T09:48:57Z</time>
      </trkpt>
      <trkpt lat="47.132479967549443" lon="-0.154769998043776">
        <ele>46</ele>
        <time>2022-07-13T09:48:59Z</time>
      </trkpt>
      <trkpt lat="47.132479967549443" lon="-0.15482003800571">
        <ele>46</ele>
        <time>2022-07-13T09:49:02Z</time>
      </trkpt>
      <trkpt lat="47.132469993084669" lon="-0.154860019683838">
        <ele>46</ele>
        <time>2022-07-13T09:49:04Z</time>
      </trkpt>
      <trkpt lat="47.132460018619895" lon="-0.15490997582674">
        <ele>45</ele>
        <time>2022-07-13T09:49:06Z</time>
      </trkpt>
      <trkpt lat="47.132449960336089" lon="-0.1549500413239">
        <ele>45</ele>
        <time>2022-07-13T09:49:09Z</time>
      </trkpt>
      <trkpt lat="47.132439985871315" lon="-0.154999997466803">
        <ele>45</ele>
        <time>2022-07-13T09:49:12Z</time>
      </trkpt>
      <trkpt lat="47.132430011406541" lon="-0.155039979144931">
        <ele>45</ele>
        <time>2022-07-13T09:49:14Z</time>
      </trkpt>
      <trkpt lat="47.132430011406541" lon="-0.155090019106865">
        <ele>45</ele>
        <time>2022-07-13T09:49:17Z</time>
      </trkpt>
      <trkpt lat="47.132430011406541" lon="-0.155139975249767">
        <ele>45</ele>
        <time>2022-07-13T09:49:19Z</time>
      </trkpt>
      <trkpt lat="47.132420036941767" lon="-0.155180040746927">
        <ele>45</ele>
        <time>2022-07-13T09:49:21Z</time>
      </trkpt>
      <trkpt lat="47.132431101053953" lon="-0.155367711558938">
        <ele>57.8671875</ele>
      </trkpt>
      <trkpt lat="47.132424646988511" lon="-0.155394952744246">
        <ele>57.88671875</ele>
      </trkpt>
      <trkpt lat="47.13240553624928" lon="-0.155467540025711">
        <ele>57.95703125</ele>
      </trkpt>
      <trkpt lat="47.132392711937428" lon="-0.155531074851751">
        <ele>58.00390625</ele>
      </trkpt>
      <trkpt lat="47.132392544299364" lon="-0.155585641041398">
        <ele>58.00390625</ele>
      </trkpt>
      <trkpt lat="47.132354574277997" lon="-0.15563995577395">
        <ele>58.140625</ele>
      </trkpt>
      <trkpt lat="47.132304199039936" lon="-0.155666777864099">
        <ele>58.32421875</ele>
      </trkpt>
      <trkpt lat="47.132285088300705" lon="-0.155730312690139">
        <ele>58.390625</ele>
      </trkpt>
      <trkpt lat="47.132259774953127" lon="-0.155766438692808">
        <ele>58.3828125</ele>
      </trkpt>
      <trkpt lat="47.132202945649624" lon="-0.155829722061753">
        <ele>58.359375</ele>
      </trkpt>
      <trkpt lat="47.132177548483014" lon="-0.155893173068762">
        <ele>58.22265625</ele>
      </trkpt>
      <trkpt lat="47.13212700560689" lon="-0.15594732016325">
        <ele>58.20703125</ele>
      </trkpt>
      <trkpt lat="47.132082832977176" lon="-0.15600155107677">
        <ele>58.1640625</ele>
      </trkpt>
      <trkpt lat="47.132082581520081" lon="-0.156065169721842">
        <ele>58.12109375</ele>
      </trkpt>
      <trkpt lat="47.13203220628202" lon="-0.156092075631022">
        <ele>57.83203125</ele>
      </trkpt>
      <trkpt lat="47.132057016715407" lon="-0.15617405064404">
        <ele>58.2109375</ele>
      </trkpt>
      <trkpt lat="47.132201353088021" lon="-0.156257031485438">
        <ele>57.42578125</ele>
      </trkpt>
      <trkpt lat="47.13223303668201" lon="-0.156184611842036">
        <ele>57.32421875</ele>
      </trkpt>
      <trkpt lat="47.132314760237932" lon="-0.156185198575258">
        <ele>56.84765625</ele>
      </trkpt>
      <trkpt lat="47.132383827120066" lon="-0.15623121522367">
        <ele>56.2890625</ele>
      </trkpt>
      <trkpt lat="47.13254040107131" lon="-0.156377982348204">
        <ele>53.421875</ele>
      </trkpt>
      <trkpt lat="47.132697142660618" lon="-0.156506476923823">
        <ele>50</ele>
      </trkpt>
      <trkpt lat="47.132759839296341" lon="-0.156552493572235">
        <ele>48.54296875</ele>
      </trkpt>
      <trkpt lat="47.132866457104683" lon="-0.156644275411963">
        <ele>45.7734375</ele>
      </trkpt>
      <trkpt lat="47.132954047992826" lon="-0.156744942069054">
        <ele>43.04296875</ele>
      </trkpt>
      <trkpt lat="47.132985312491655" lon="-0.156799759715796">
        <ele>41.984375</ele>
      </trkpt>
      <trkpt lat="47.132991515100002" lon="-0.156818032264709">
        <ele>45</ele>
        <time>2022-07-13T09:49:23Z</time>
      </trkpt>
    </trkseg>
  </trk>

</gpx>